[[{"header":{"parameterUnit":"m.s-1","parameterCategory":1,"la1":30.6,"la2":28.766,"lo1":-90.7593,"lo2":-88.6598,"dy":0.0162,"dx":0.0183,"nx":116,"ny":114,"refTime":"2023-09-07T18:00:00:Z","depth":0,"parameterNumber":2,"parameterNumberName":"U-component_of_WINDS"},"data":[0.0,0.0,0.0,0.0,0.0,0.0,0.0,0.0,0.0,0.0,0.0,0.0,0.0,0.0,0.0,0.0,0.0,0.0,0.0,0.0,0.0,0.0,0.0,0.0,0.0,0.0,0.0,0.0,0.0,0.0,0.0,0.0,0.0,0.0,0.0,0.0,0.0,0.0,0.0,0.0,0.0,0.0,0.0,0.0,0.0,0.0,0.0,0.0,0.0,0.0,0.0,0.0,0.0,0.0,0.0,0.0,0.0,0.0,0.0,0.0,0.0,0.0,0.0,0.0,0.0,0.0,0.0,0.0,0.0,0.0,0.0,0.0,0.0,0.0,0.0,0.0,0.0,0.0,0.0,0.0,0.0,0.0,0.0,0.0,0.0,0.0,0.0,0.0,0.0,0.0,0.0,0.0,0.0,0.0,0.0,0.0,0.0,0.0,0.0,0.0,0.0,0.0,0.0,0.0,0.0,0.0,0.0,0.0,0.0,0.0,0.0,0.0,0.0,0.0,0.0,0.0,0.0,0.0,0.0,0.0,0.0,0.0,0.0,0.0,0.0,0.0,0.0,0.0,0.0,0.0,0.0,0.0,0.0,0.0,0.0,0.0,0.0,0.0,0.0,0.0,0.0,0.0,0.0,0.0,0.0,0.0,0.0,0.0,0.0,0.0,0.0,0.0,0.0,0.0,0.0,0.0,0.0,0.0,0.0,0.0,0.0,0.0,0.0,0.0,0.0,0.0,0.0,0.0,0.0,0.0,0.0,0.0,0.0,0.0,0.0,0.0,0.0,0.0,0.0,0.0,0.0,0.0,0.0,0.0,0.0,0.0,0.0,0.0,0.0,0.0,0.0,0.0,0.0,0.0,0.0,0.0,0.0,0.0,0.0,0.0,0.0,0.0,0.0,0.0,0.0,0.0,0.0,0.0,0.0,0.0,0.0,0.0,0.0,0.0,0.0,0.0,0.0,0.0,0.0,0.0,0.0,0.0,0.0,0.0,0.0,0.0,0.0,0.0,0.0,0.0,0.0,0.0,0.0,0.0,0.0,0.0,0.0,0.0,0.0,0.0,0.0,0.0,0.0,0.0,0.0,0.0,0.0,0.0,0.0,0.0,0.0,0.0,0.0,0.0,0.0,0.0,0.0,0.0,0.0,0.0,0.0,0.0,0.0,0.0,0.0,0.0,0.0,0.0,0.0,0.0,0.0,0.0,0.0,0.0,0.0,0.0,0.0,0.0,0.0,0.0,0.0,0.0,0.0,0.0,0.0,0.0,0.0,0.0,0.0,0.0,0.0,0.0,0.0,0.0,0.0,0.0,0.0,0.0,0.0,0.0,0.0,0.0,0.0,0.0,0.0,0.0,0.0,0.0,0.0,0.0,0.0,0.0,0.0,0.0,0.0,0.0,0.0,0.0,0.0,0.0,0.0,0.0,0.0,0.0,0.0,0.0,0.0,0.0,0.0,0.0,0.0,0.0,0.0,0.0,0.0,0.0,0.0,0.0,0.0,0.0,0.0,0.0,0.0,0.0,0.0,0.0,0.0,0.0,0.0,0.0,0.0,0.0,0.0,0.0,0.0,0.0,0.0,0.0,0.0,0.0,0.0,0.0,0.0,0.0,0.0,0.0,0.0,0.0,0.0,0.0,0.0,0.0,0.0,0.0,0.0,0.0,0.0,0.0,0.0,0.0,0.0,0.0,0.0,0.0,0.0,0.0,0.0,0.0,0.0,0.0,0.0,0.0,0.0,0.0,0.0,0.0,0.0,0.0,0.0,0.0,0.0,0.0,0.0,0.0,0.0,0.0,0.0,0.0,0.0,0.0,0.0,0.0,0.0,0.0,0.0,0.0,0.0,0.0,0.0,0.0,0.0,0.0,0.0,0.0,0.0,0.0,0.0,0.0,0.0,0.0,0.0,0.0,0.0,0.0,0.0,0.0,0.0,0.0,0.0,0.0,0.0,0.0,0.0,0.0,0.0,0.0,0.0,0.0,0.0,0.0,0.0,0.0,0.0,0.0,0.0,0.0,0.0,0.0,0.0,0.0,0.0,0.0,0.0,0.0,0.0,0.0,0.0,0.0,0.0,0.0,0.0,0.0,0.0,0.0,0.0,0.0,0.0,0.0,0.0,0.0,0.0,0.0,0.0,0.0,0.0,0.0,0.0,0.0,0.0,0.0,0.0,0.0,0.0,0.0,0.0,0.0,0.0,0.0,0.0,0.0,0.0,0.0,0.0,0.0,0.0,0.0,0.0,0.0,0.0,0.0,0.0,0.0,0.0,0.0,0.0,0.0,0.0,0.0,0.0,0.0,0.0,0.0,0.0,0.0,0.0,0.0,0.0,0.0,0.0,0.0,0.0,0.0,0.0,0.0,0.0,0.0,0.0,0.0,0.0,0.0,0.0,0.0,0.0,0.0,0.0,0.0,0.0,0.0,0.0,0.0,0.0,0.0,0.0,0.0,0.0,0.0,0.0,0.0,0.0,0.0,0.0,0.0,0.0,0.0,0.0,0.0,0.0,0.0,0.0,0.0,0.0,0.0,0.0,0.0,0.0,0.0,0.0,0.0,0.0,0.0,0.0,0.0,0.0,0.0,0.0,0.0,0.0,0.0,0.0,0.0,0.0,0.0,0.0,0.0,0.0,0.0,0.0,0.0,0.0,0.0,0.0,0.0,0.0,0.0,0.0,0.0,0.0,0.0,0.0,0.0,0.0,0.0,0.0,0.0,0.0,0.0,0.0,0.0,0.0,0.0,0.0,0.0,0.0,0.0,0.0,0.0,0.0,0.0,0.0,0.0,0.0,0.0,0.0,0.0,0.0,0.0,0.0,0.0,0.0,0.0,0.0,0.0,0.0,0.0,0.0,0.0,0.0,0.0,0.0,0.0,0.0,0.0,0.0,0.0,0.0,0.0,0.0,0.0,0.0,0.0,0.0,0.0,0.0,0.0,0.0,0.0,0.0,0.0,0.0,0.0,0.0,0.0,0.0,0.0,0.0,0.0,0.0,0.0,0.0,0.0,0.0,0.0,0.0,0.0,0.0,0.0,0.0,0.0,0.0,0.0,0.0,0.0,0.0,0.0,0.0,0.0,0.0,0.0,0.0,0.0,0.0,0.0,0.0,0.0,0.0,0.0,0.0,0.0,0.0,0.0,0.0,0.0,0.0,0.0,0.0,0.0,0.0,0.0,0.0,0.0,0.0,0.0,0.0,0.0,0.0,0.0,0.0,0.0,0.0,0.0,0.0,0.0,0.0,0.0,0.0,0.0,0.0,0.0,0.0,0.0,0.0,0.0,0.0,0.0,0.0,0.0,0.0,0.0,0.0,0.0,0.0,0.0,0.0,0.0,0.0,0.0,0.0,0.0,0.0,0.0,0.0,0.0,0.0,0.0,0.0,0.0,0.0,0.0,0.0,0.0,0.0,0.0,0.0,0.0,0.0,0.0,0.0,0.0,0.0,0.0,0.0,0.0,0.0,0.0,0.0,0.0,0.0,0.0,0.0,0.0,0.0,0.0,0.0,0.0,0.0,0.0,0.0,0.0,0.0,0.0,0.0,0.0,0.0,0.0,0.0,0.0,0.0,0.0,0.0,0.0,0.0,0.0,0.0,0.0,0.0,0.0,0.0,0.0,0.0,0.0,0.0,0.0,0.0,0.0,0.0,0.0,0.0,0.0,0.0,0.0,0.0,0.0,0.0,0.0,0.0,0.0,0.0,0.0,0.0,0.0,0.0,0.0,0.0,0.0,0.0,0.0,0.0,0.0,0.0,0.0,0.0,0.0,0.0,0.0,0.0,0.0,0.0,0.0,0.0,0.0,0.0,0.0,0.0,0.0,0.0,0.0,0.0,0.0,0.0,0.0,0.0,0.0,0.0,0.0,0.0,0.0,0.0,0.0,0.0,0.0,0.0,0.0,0.0,0.0,0.0,0.0,0.0,0.0,0.0,0.0,0.0,0.0,0.0,0.0,0.0,0.0,0.0,0.0,0.0,0.0,0.0,0.0,0.0,0.0,0.0,0.0,0.0,0.0,0.0,0.0,0.0,0.0,0.0,0.0,0.0,0.0,0.0,0.0,0.0,0.0,0.0,0.0,0.0,0.0,0.0,0.0,0.0,0.0,0.0,0.0,0.0,0.0,0.0,0.0,0.0,0.0,0.0,0.0,0.0,0.0,0.0,0.0,0.0,0.0,0.0,0.0,0.0,0.0,0.0,0.0,0.0,0.0,0.0,0.0,0.0,0.0,0.0,0.0,0.0,0.0,0.0,0.0,0.0,0.0,0.0,0.0,0.0,0.0,0.0,0.0,0.0,0.0,0.0,0.0,0.0,0.0,0.0,0.0,0.0,0.0,0.0,0.0,0.0,0.0,0.0,0.0,0.0,0.0,0.0,0.0,0.0,0.0,0.0,0.0,0.0,0.0,0.0,0.0,0.0,0.0,0.0,0.0,0.0,0.0,0.0,0.0,0.0,0.0,0.0,0.0,0.0,0.0,0.0,0.0,0.0,0.0,0.0,0.0,0.0,0.0,0.0,0.0,0.0,0.0,0.0,0.0,0.0,0.0,0.0,0.0,0.0,0.0,0.0,0.0,0.0,0.0,0.0,0.0,0.0,0.0,0.0,0.0,0.0,0.0,0.0,0.0,0.0,0.0,0.0,0.0,0.0,0.0,0.0,0.0,0.0,0.0,0.0,0.0,0.0,0.0,0.0,0.0,0.0,0.0,0.0,0.0,0.0,0.0,0.0,0.0,0.0,0.0,0.0,0.0,0.0,0.0,0.0,0.0,0.0,0.0,0.0,0.0,0.0,0.0,0.0,0.0,0.0,0.0,0.0,0.0,0.0,0.0,0.0,0.0,0.0,0.0,0.0,0.0,0.0,0.0,0.0,0.0,0.0,0.0,0.0,0.0,0.0,0.0,0.0,0.0,0.0,0.0,0.0,0.0,0.0,0.0,0.0,0.0,0.0,0.0,0.0,0.0,0.0,0.0,0.0,0.0,0.0,0.0,0.0,0.0,0.0,0.0,0.0,0.0,0.0,0.0,0.0,0.0,0.0,0.0,0.0,0.0,0.0,0.0,0.0,0.0,0.0,0.0,0.0,0.0,0.0,0.0,0.0,0.0,0.0,0.0,0.0,0.0,0.0,0.0,0.0,0.0,0.0,0.0,0.0,0.0,0.0,0.0,0.0,0.0,0.0,0.0,0.0,0.0,0.0,0.0,0.0,0.0,0.0,0.0,0.0,0.0,0.0,0.0,0.0,0.0,0.0,0.0,0.0,0.0,0.0,0.0,0.0,0.0,0.0,0.0,0.0,0.0,0.0,0.0,0.0,0.0,0.0,0.0,0.0,0.0,0.0,0.0,0.0,0.0,0.0,0.0,0.0,0.0,0.0,0.0,0.0,0.0,0.0,0.0,0.0,0.0,0.0,0.0,0.0,0.0,0.0,0.0,0.0,0.0,0.0,0.0,0.0,0.0,0.0,0.0,0.0,0.0,0.0,0.0,0.0,0.0,0.0,0.0,0.0,0.0,0.0,0.0,0.0,0.0,0.0,0.0,0.0,0.0,0.0,0.0,0.0,0.0,0.0,0.0,0.0,0.0,0.0,0.0,0.0,0.0,0.0,0.0,0.0,0.0,0.0,0.0,0.0,0.0,0.0,0.0,0.0,0.0,0.0,0.0,0.0,0.0,0.0,0.0,0.0,0.0,0.0,0.0,0.0,0.0,0.0,0.0,0.0,0.0,0.0,0.0,0.0,0.0,0.0,0.0,0.0,0.0,0.0,0.0,0.0,0.0,0.0,0.0,0.0,0.0,0.0,0.0,0.0,0.0,0.0,0.0,0.0,0.0,0.0,0.0,0.0,0.0,0.0,0.0,0.0,0.0,0.0,0.0,0.0,0.0,0.0,0.0,0.0,0.0,0.0,0.0,0.0,0.0,0.0,0.0,0.0,0.0,0.0,0.0,0.0,0.0,0.0,0.0,0.0,0.0,0.0,0.0,0.0,0.0,0.0,0.0,0.0,0.0,0.0,0.0,0.0,0.0,0.0,0.0,0.0,0.0,0.0,0.0,0.0,0.0,0.0,0.0,0.0,0.0,0.0,0.0,0.0,0.0,0.0,0.0,-1.5717,0.0,0.0,0.0,0.0,0.0,0.0,0.0,0.0,0.0,0.0,0.0,0.0,0.0,0.0,0.0,0.0,0.0,0.0,0.0,0.0,0.0,0.0,0.0,0.0,0.0,0.0,0.0,0.0,0.0,0.0,0.0,0.0,0.0,0.0,0.0,0.0,0.0,0.0,0.0,-0.1532,-0.6009,-0.9688,-1.2355,-1.376,-1.4064,0.0,0.0,0.0,0.0,0.0,0.0,0.0,0.0,0.0,0.0,0.0,0.0,0.0,0.0,0.0,0.0,0.0,0.0,0.0,0.0,0.0,0.0,0.0,0.0,0.0,0.0,0.0,0.0,0.0,0.0,0.0,0.0,0.0,0.0,0.0,0.0,0.0,0.0,0.0,0.0,0.0,0.0,0.0,0.0,0.0,0.0,0.0,0.0,0.0,0.0,0.0,0.0,0.0,0.0,0.0,0.0,0.0,0.0,0.0,0.0,0.0,0.0,0.0,0.0,0.0,0.0,0.0,0.0,0.0,0.0,0.0,-1.6921,0.0,0.0,0.0,0.0,0.0,0.0,0.0,0.0,0.0,0.0,0.0,0.0,0.0,0.0,0.0,0.0,0.0,0.0,0.0,0.0,0.0,0.0,0.0,0.0,2.3819,2.5387,2.7677,2.8715,0.0,0.0,0.0,0.0,0.0,0.0,0.0,1.0821,0.7794,0.4696,-0.0221,-0.5429,-1.0747,-1.1678,-1.2145,-1.2337,-1.3096,0.0,0.0,0.0,0.0,0.0,0.0,0.0,0.0,0.0,0.0,0.0,0.0,0.0,0.0,0.0,0.0,0.0,0.0,0.0,0.0,0.0,0.0,0.0,0.0,0.0,0.0,0.0,0.0,0.0,0.0,0.0,0.0,0.0,0.0,0.0,0.0,0.0,0.0,0.0,0.0,0.0,0.0,0.0,0.0,0.0,0.0,0.0,0.0,0.0,0.0,0.0,0.0,0.0,0.0,0.0,0.0,0.0,0.0,0.0,0.0,0.0,0.0,0.0,0.0,-2.3391,-2.4743,-2.3643,-2.3332,-2.3541,-2.0532,-1.8827,-1.8056,0.0,0.0,0.0,0.0,0.0,0.0,0.0,0.0,0.0,0.0,0.0,0.0,0.0,0.0,0.0,0.0,0.0,0.0,0.0,0.0,0.0,0.0,2.1194,2.4047,2.6533,2.9082,2.9958,0.0,0.0,0.0,0.0,0.0,0.0,1.3906,1.1249,0.7925,0.3971,-0.2936,-0.694,-0.8191,-0.9691,-0.9999,-0.9256,-1.0149,-1.0732,-1.1068,0.0,0.0,0.0,0.0,0.0,0.0,0.0,0.0,0.0,0.0,0.0,0.0,0.0,0.0,0.0,0.0,0.0,0.0,0.0,0.0,0.0,0.0,0.0,0.0,0.0,0.0,0.0,0.0,0.0,0.0,0.0,0.0,0.0,0.0,0.0,0.0,0.0,0.0,0.0,0.0,0.0,-0.8123,-0.4429,0.0,0.0,0.0,0.0,0.0,0.0,0.0,0.0,0.0,0.0,0.0,0.0,0.0,0.0,-1.8473,-2.0939,-2.2367,-2.2846,-2.4896,-2.5724,-2.5451,-2.5022,-2.5286,-2.5975,-2.4262,0.0,-2.0629,-1.8171,0.0,0.0,0.0,0.0,0.0,0.0,0.0,0.0,0.0,0.0,0.0,0.0,0.0,0.0,0.0,0.0,0.0,0.0,0.0,0.0,0.0,1.6132,1.6102,1.8911,1.9127,1.9455,2.0345,2.2207,0.0,0.0,0.0,1.4079,1.3752,0.9673,0.4594,-0.1541,-0.5209,-0.7602,-0.8821,-0.8745,-0.8837,-0.8974,-0.8843,-0.9548,-1.0931,-1.1233,0.0,0.0,0.0,0.0,0.0,0.0,0.0,0.0,0.0,0.0,0.0,0.0,0.0,0.0,0.0,0.0,0.0,0.0,0.0,0.0,0.0,0.0,0.0,0.0,0.0,0.0,0.0,0.0,0.0,0.0,0.0,0.0,0.0,0.0,0.0,0.0,0.0,0.0,0.0,-0.7231,-0.7827,-0.5334,-0.5801,-0.5651,0.0,0.0,0.0,0.0,0.0,0.0,0.0,0.0,0.0,-1.8029,-1.9426,-2.09,-2.2393,-2.3802,-2.4853,-2.5555,-2.6809,-2.7419,-2.7398,-2.6809,-2.6993,-2.7723,-2.5936,-2.4566,-2.3495,-2.0322,-1.8792,-1.816,0.0,0.0,0.0,0.0,0.0,-1.4803,0.0,0.0,0.0,0.0,0.0,0.0,0.0,0.0,0.0,0.0,0.0,0.0,1.4505,0.9429,0.6812,0.8793,0.8171,0.9176,1.2731,1.6819,0.0,0.0,1.5309,1.3644,1.3543,0.7605,0.1278,-0.5315,-0.7009,-0.8297,-0.9176,-0.8219,-0.8249,-0.9135,-0.8552,-0.9367,-1.1056,-1.1077,-1.1282,-1.1573,0.0,0.0,0.0,0.0,0.0,0.0,0.0,0.0,0.0,0.0,0.0,0.0,0.0,0.0,0.0,0.0,0.0,0.0,0.0,0.0,0.0,0.0,0.0,0.0,0.0,0.0,0.0,0.0,0.0,0.0,0.0,0.0,0.0,0.0,0.0,0.0,0.0,-0.7365,-0.8416,-0.6862,-0.845,-0.8436,0.0,0.0,0.0,0.0,0.0,0.0,-1.688,-1.8837,-2.0696,-2.2327,-2.3365,-2.4572,-2.5862,-2.6402,-2.7092,-2.7921,-2.8335,-2.875,-2.9075,-2.8427,-2.8504,-2.9025,-2.7323,-2.6298,-2.5573,-2.2194,-2.0191,-1.9083,-1.7102,-1.6515,-1.6678,-1.6337,-1.5959,-1.5718,0.0,0.0,0.0,0.0,0.0,0.0,0.0,0.0,0.0,0.0,0.0,0.7548,0.7026,0.1983,-0.1513,-0.1854,0.0046,0.3887,1.0101,1.0349,1.2357,1.7182,1.5504,1.411,1.3332,0.5385,-0.0578,-0.4293,-0.8056,-0.9234,-0.794,-0.8052,-0.8391,-0.8795,-0.95,-1.028,-1.0974,-1.0555,-1.0642,-1.105,-1.109,0.0,0.0,0.0,0.0,0.0,0.0,0.0,0.0,0.0,0.0,0.0,0.0,0.0,0.0,0.0,0.0,0.0,0.0,0.0,0.0,0.0,0.0,0.0,0.0,0.0,0.0,0.0,0.0,0.0,0.0,0.0,0.0,0.0,0.0,0.0,0.0,0.0,0.0,-1.0086,-1.2453,0.0,0.0,0.0,0.0,-1.4122,-1.6007,-1.8433,-2.1521,-2.2352,-2.3776,-2.617,-2.726,-2.8086,-2.8725,-2.9302,-2.9616,-2.9666,-2.9691,-2.9729,-2.9741,-2.9741,-2.9741,-2.9716,-2.9025,-2.7877,-2.628,-2.2948,-2.1014,-2.0039,-1.7881,-1.7397,-1.7822,-1.728,-1.6992,-1.6822,0.0,0.0,0.0,0.0,0.0,0.0,0.0,0.0,1.5613,1.7144,1.2104,0.7787,0.6233,-0.414,-1.122,-1.1818,-1.6654,-1.5364,-0.5099,0.109,0.6564,1.1367,1.3319,1.1532,0.5634,-0.0388,-0.4913,-0.7989,-0.8676,-0.8684,-0.8172,-0.7673,-0.8398,-0.9937,-1.0253,-1.121,-1.2601,-1.174,-1.1313,-1.1231,-1.0674,-1.0222,0.0,0.0,0.0,0.0,0.0,0.0,0.0,0.0,0.0,0.0,0.0,0.0,0.0,0.0,0.0,0.0,0.0,0.0,0.0,0.0,0.0,0.0,0.0,0.0,0.0,0.0,0.0,0.0,0.0,0.0,0.0,0.0,0.0,0.0,0.0,0.0,0.0,-1.2885,-1.5375,0.0,0.0,-1.4773,-1.623,-1.8323,-2.0687,-2.303,-2.5313,-2.6257,-2.7322,-2.8574,-2.8988,-2.9289,-2.9478,-2.9691,-2.9792,-2.9792,-2.9792,-2.9792,-2.9792,-2.9792,-2.9792,-2.9767,-2.9176,-2.8375,-2.7373,-2.523,-2.299,-2.0807,-1.8854,-1.8212,-1.8398,-1.8163,-1.8086,-1.7997,0.0,0.0,0.0,0.0,0.0,0.0,0.0,0.0,1.598,1.6162,1.0631,0.5401,0.2012,-1.0043,-1.85,-2.0123,-2.6094,-2.4295,-1.1259,-0.4219,0.3088,1.1095,1.157,0.7536,-0.1248,-0.4245,-0.713,-0.997,-0.8905,-0.8219,-0.7939,-0.7729,-0.8664,-1.0636,-1.0974,-1.214,-1.3654,-1.2421,-1.1806,-1.1465,-1.0573,-1.0005,-0.9583,0.0,0.0,0.0,0.0,0.0,0.0,0.0,0.0,0.0,0.0,0.0,0.0,0.0,0.0,0.0,0.0,0.0,0.0,0.0,0.0,0.0,0.0,0.0,0.0,0.0,0.0,0.0,0.0,0.0,0.0,0.0,0.0,0.0,0.0,0.0,-1.7042,-1.485,-1.7881,-1.9087,-1.6439,-1.8183,-2.0212,-2.2004,-2.4631,-2.6766,-2.8059,-2.8825,-2.9402,-2.9779,-2.9792,-2.9792,-2.9792,-2.9792,-2.9792,-2.9792,-2.9792,-2.9792,-2.9792,-2.9792,-2.9792,-2.9779,-2.939,-2.8399,-2.7075,-2.602,-2.3843,-2.1025,-2.0141,-1.9558,-1.9287,-1.9287,-1.9102,-1.8818,0.0,0.0,0.0,0.0,0.0,0.0,0.0,1.6848,1.6225,1.3876,0.6986,-0.0,-0.5911,-1.5431,-2.2862,-2.6429,-2.6907,-2.1091,-0.7327,-0.5183,0.1943,1.6328,1.0071,0.2203,-0.6384,-0.5962,-0.7003,-0.9634,-0.8774,-0.7943,-0.7136,-0.8189,-0.9388,-1.06,-1.1657,-1.2881,-1.399,-1.2498,-1.1938,-1.1832,-1.0804,-0.994,-0.9111,0.0,0.0,0.0,0.0,0.0,0.0,0.0,0.0,0.0,0.0,0.0,0.0,0.0,0.0,0.0,0.0,0.0,0.0,0.0,0.0,0.0,0.0,0.0,0.0,0.0,0.0,0.0,0.0,0.0,0.0,0.0,0.0,0.0,-1.5054,-1.7614,-1.871,-1.6129,-2.0044,-2.143,-1.765,-2.1494,-2.4565,-2.5237,-2.7521,-2.9101,-2.9767,-2.9792,-2.9792,-2.9792,-2.9792,-2.9792,-2.9792,-2.9792,-2.9792,-2.9792,-2.9792,-2.9792,-2.9792,-2.9792,-2.9792,-2.9792,-2.9792,-2.8106,-2.5326,-2.5326,-2.3511,-2.0789,-2.1593,-2.1375,-2.0566,-2.0566,-2.0029,-1.917,0.0,0.0,0.0,0.0,0.0,0.0,0.0,1.7655,1.6957,1.3916,0.7776,0.1379,-0.4701,-1.2789,-1.9507,-2.3639,-2.3633,-2.0068,-1.2324,-0.7765,-0.1494,0.7093,-0.0415,-0.5416,-0.6589,-0.8467,-0.9223,-0.8782,-0.7865,-0.7362,-0.7139,-0.8317,-0.9438,-1.0611,-1.1742,-1.307,-1.4289,-1.2857,-1.2224,-1.2059,-1.0079,-0.8841,-0.799,0.0,0.0,0.0,0.0,0.0,0.0,0.0,0.0,0.0,0.0,0.0,0.0,0.0,0.0,0.0,0.0,0.0,0.0,0.0,0.0,0.0,0.0,0.0,0.0,0.0,0.0,0.0,0.0,0.0,0.0,0.0,0.0,-1.9728,-1.8883,-2.1206,-2.3147,-2.347,-2.3315,-2.3181,-2.3245,-2.3466,-2.4423,-2.6586,-2.7317,-2.8362,-2.9754,-2.9792,-2.9792,-2.9792,-2.9792,-2.9792,-2.9792,-2.9792,-2.9792,-2.9792,-2.9792,-2.9792,-2.9792,-2.9792,-2.9792,-2.9792,-2.9792,-2.8835,-2.7335,-2.7335,-2.5475,-2.2563,-2.1451,-2.0867,-2.0566,-2.0566,-2.0029,-1.9209,0.0,0.0,0.0,0.0,0.0,0.0,0.0,1.803,1.6634,1.1436,0.7443,0.2021,-0.5773,-1.1682,-1.5687,-1.7361,-1.6661,-1.403,-0.8908,-0.3647,-0.0922,-0.161,-0.6288,-0.906,-0.9334,-1.0279,-1.01,-0.8644,-0.7621,-0.7139,-0.7139,-0.8794,-0.9923,-1.0697,-1.2334,-1.3274,-1.3611,-1.2209,-1.1445,-1.0784,-0.9029,-0.8091,-0.7789,-0.6832,-0.6272,-0.5944,-0.5683,-0.541,-0.5204,-0.5106,0.0,0.0,0.0,0.0,0.0,0.0,0.0,0.0,0.0,0.0,0.0,0.0,0.0,0.0,0.0,0.0,0.0,0.0,0.0,0.0,0.0,0.0,0.0,0.0,-2.21,-2.4134,-2.4223,-2.5237,-2.621,-2.6868,-2.5565,-2.4746,-2.4984,-2.436,-2.474,-2.6817,-2.7396,-2.827,-2.9689,-2.9792,-2.9792,-2.9792,-2.9792,-2.9792,-2.9792,-2.9792,-2.9792,-2.9792,-2.9792,-2.9792,-2.9792,-2.9792,-2.9792,0.0,-2.9792,-2.8898,-2.7471,-2.7025,-2.555,0.0,0.0,0.0,0.0,0.0,-1.9717,-1.9199,0.0,0.0,0.0,0.0,0.0,0.0,0.0,1.8163,1.5698,0.7962,0.6368,0.2225,-0.7735,-1.0989,-1.1706,-1.0045,-0.8491,-0.5917,-0.1862,0.1978,-0.0,-0.9057,-0.9478,-1.0579,-1.2978,-1.1363,-0.9927,-0.8715,-0.7669,-0.7143,-0.7139,-0.9396,-1.0448,-1.0559,-1.2735,-1.3256,-1.236,-1.1179,-1.0097,-0.9104,-0.7836,-0.7618,-0.7841,-0.6538,-0.6054,-0.5973,-0.5694,-0.544,-0.5206,-0.5151,0.0,0.0,0.0,0.0,0.0,0.0,0.0,0.0,0.0,0.0,0.0,0.0,0.0,0.0,0.0,0.0,0.0,0.0,0.0,0.0,0.0,0.0,0.0,0.0,-2.6323,-2.9039,-2.9841,-2.9083,-2.83,-2.7847,-2.7047,-2.5991,-2.4634,-2.4797,-2.5378,-2.6389,-2.7522,-2.8597,-2.9714,0.0,0.0,0.0,0.0,-2.988,-2.988,-2.9829,-2.9792,-2.9792,-2.9792,-2.9792,-2.9792,-2.9792,-2.9792,-2.9792,-2.9729,-2.8595,-2.6677,-2.5796,-2.4721,-2.3537,-2.3033,-2.1882,-2.0391,-1.958,-1.9258,0.0,0.0,0.0,0.0,0.0,0.0,0.0,0.0,1.8286,1.5882,0.7588,0.6288,0.275,-0.6139,-0.7716,-0.8483,-0.9459,-0.6463,-0.4328,-0.3906,-0.7584,-1.0534,-1.2365,-1.4251,-1.4515,-1.2843,-1.0784,-0.9003,-0.7489,-0.7245,-0.7071,-0.7139,-0.8536,-0.9314,-0.9455,-1.079,-1.1557,-1.1646,-1.0501,-0.9992,-0.9895,-0.7951,-0.6991,-0.6827,-0.66,-0.619,-0.5775,-0.5885,-0.5863,-0.5721,-0.5281,-0.4835,-0.4072,-0.1351,-0.0599,0.0,0.0,0.0,0.0,0.0,0.0,0.0,0.0,0.0,0.0,0.0,0.0,0.0,0.0,0.0,0.0,0.0,0.0,0.0,-2.4751,-2.7811,-3.0168,-3.1074,-3.09,-3.0323,-2.9437,-2.8083,-2.6873,-2.614,-2.6168,-2.6224,-2.6472,-2.7522,-2.8597,-2.9714,-3.0218,0.0,-3.0457,-3.0457,-3.0457,-3.0457,-3.0018,-2.9792,-2.9792,0.0,0.0,-2.9792,-2.9792,-2.9792,-2.9767,-2.9302,-2.8562,-2.7754,-2.7162,-2.5814,-2.3991,-2.2663,-2.1295,-1.998,-1.9473,-1.9062,-1.8691,0.0,0.0,0.0,0.0,0.0,0.0,0.0,1.7693,1.5815,0.9325,0.863,0.5613,-0.2454,-0.3605,-0.3271,-0.1777,-0.1535,-0.2353,-0.433,-0.9601,-1.3687,-1.5987,-1.6408,-1.5156,-1.2235,-1.0447,-0.8755,-0.7285,-0.7141,-0.7141,-0.7282,-0.79,-0.8524,-0.9161,-1.0734,-1.1136,-1.0594,-1.051,-0.9168,-0.7102,-0.5992,-0.5389,-0.5157,-0.6244,-0.5839,-0.4622,-0.4583,-0.5216,-0.6096,-0.5822,-0.5318,-0.4317,-0.1054,-0.0665,-0.133,0.0,0.0,0.0,0.0,0.0,0.0,0.0,0.0,0.0,0.0,0.0,0.0,0.0,0.0,-1.5121,0.0,0.0,-2.346,-2.7954,-3.0119,-3.1469,-3.2041,-3.1987,-3.1402,-3.0011,-2.8536,-2.7561,-2.7348,-2.6801,-2.6719,-2.729,-2.7775,-2.8706,-3.0102,-3.047,-3.062,-3.062,-3.062,-3.0482,-3.0206,-2.993,-2.9792,-2.9792,-2.9792,-2.9792,-2.9792,-2.9792,-2.9792,-2.9779,-2.949,-2.9038,-2.8448,-2.762,-2.566,-2.3145,-2.2815,-2.1766,-2.0265,-1.9328,-1.8828,-1.8574,0.0,0.0,0.0,0.0,0.0,0.0,0.0,1.7059,1.5729,1.1166,1.0883,0.8456,0.1489,0.0237,0.1675,0.607,0.1816,-0.1961,-0.4058,-0.9928,-1.4902,-1.8466,-1.6775,-1.4395,-1.1785,-0.9978,-0.8606,-0.7422,-0.6281,-0.5999,-0.6652,-0.7175,-0.7953,-0.8922,-1.0408,-1.0236,-0.8644,-0.8863,-0.6686,-0.3202,-0.2721,-0.2397,-0.2496,-0.4212,-0.4556,-0.3962,-0.2906,-0.3607,-0.5133,-0.5519,-0.5542,-0.4921,-0.2247,-0.2133,-0.2943,-0.2599,-0.3678,0.0,0.0,0.0,0.0,0.0,0.0,0.0,0.0,0.0,-1.2052,-1.4076,-1.5211,-1.707,-2.1066,-2.2705,-2.5273,-3.0776,-3.227,-3.2697,-3.2626,-3.2496,-3.1726,-2.9834,-2.8954,-2.8347,-2.8096,-2.7533,-2.7371,-2.8016,-2.8431,-2.9199,-3.0503,-3.0809,-3.0871,-3.0771,-3.0771,-3.0507,-2.9955,-2.9842,-2.9792,-2.9792,-2.9792,-2.9792,-2.9792,-2.9792,-2.9729,-2.9616,-2.9402,-2.9038,-2.8536,-2.7532,-2.5361,-2.2616,-2.3194,-2.2396,-2.0768,-1.9272,-1.8711,-1.8574,0.0,0.0,0.0,0.0,0.0,0.0,0.0,0.0,1.5717,1.1122,1.0517,0.8831,0.4136,0.2847,0.3742,0.7279,-0.187,-0.6603,-0.3456,-1.3187,-1.8721,-1.7872,-1.5239,-1.3165,-1.1701,-0.9185,-0.7712,-0.7422,-0.2937,-0.1896,-0.408,-0.6464,-0.7685,-0.7814,-0.7727,-0.6494,-0.4466,-0.2194,-0.09,-0.03,0.1906,0.2593,0.2306,0.1795,-0.1497,-0.5506,-0.171,-0.0496,-0.1014,-0.2862,-0.4301,-0.5491,-0.6119,-0.6113,-0.581,-0.5101,0.0,-0.6594,-0.4811,-0.6222,0.0,-0.9966,-1.0727,-1.2218,0.0,0.0,-1.6029,-1.7661,-1.9531,-2.1302,-2.2908,-2.57,-2.8782,-3.187,-3.292,-3.3216,-3.2668,-3.2067,-3.1047,-2.9239,-2.9389,-2.9197,-2.8176,-2.8949,-2.9028,-2.8176,-2.9469,-3.0373,-3.0608,-3.1512,-3.18,-3.1323,-3.1298,-3.1047,-3.0532,-3.0043,-2.9792,-2.9792,-2.9792,-2.9792,-2.9792,-2.9792,-2.9515,-2.8976,-2.7984,-2.7519,-2.7419,-2.6804,-2.5853,-2.4517,-2.3413,-2.2308,-2.1157,-1.972,-1.8965,-1.8574,0.0,0.0,0.0,0.0,0.0,0.0,0.0,0.0,0.0,0.0,1.338,1.2326,0.9828,0.8486,0.8125,0.9102,0.0695,-0.4463,-0.395,-1.282,-1.8033,-1.7755,-1.4955,-1.3017,-1.1798,-0.9064,-0.6915,-0.5398,-0.0194,0.1844,0.0783,-0.087,-0.2206,-0.316,-0.304,-0.2456,-0.1359,0.1197,0.3118,0.4505,0.5527,0.5575,0.4875,0.4463,0.2582,0.0389,0.1483,0.1598,0.0,-0.2293,-0.4161,-0.5571,-0.7459,-0.7616,-0.7084,-0.7067,-0.7715,0.0,-1.0366,0.0,0.0,0.0,-1.4693,-1.5434,-1.7668,-1.7387,-1.7122,-1.8818,-2.0444,-2.2011,-2.3681,-2.641,-2.9356,0.0,-3.3417,-3.391,-3.3496,-3.2192,-3.0774,-2.9405,-2.9494,-2.9323,-2.8654,-2.9334,-2.9624,-2.9118,-2.9745,-3.0407,-3.1035,-3.121,-3.1323,-3.1386,-3.1097,-3.0683,-3.0143,-2.9905,-2.9792,-2.9792,-2.9792,-2.9792,-2.9792,-2.9792,-2.9666,-2.939,-2.8586,-2.8059,-2.7745,-2.7507,-2.6141,-2.412,-2.3835,-2.2584,-2.0793,-1.9679,-1.9014,-1.8613,0.0,0.0,0.0,0.0,0.0,0.0,0.0,0.0,0.0,0.0,1.5367,1.4653,1.3433,1.2519,1.1556,1.0633,0.4002,-0.1042,-0.3159,-1.0413,-1.5073,-1.5999,-1.3844,-1.2172,-1.1361,-0.8966,-0.6895,-0.5129,0.1782,0.5652,0.6796,0.5594,0.4214,0.2796,0.2897,0.3101,0.3428,0.5374,0.7278,0.8825,0.8498,0.7914,0.7051,0.6407,0.5935,0.5522,0.4166,0.3349,0.2339,-0.1319,-0.3449,-0.5019,-0.7652,-0.818,-0.7916,-0.8305,-0.8608,-0.9613,-1.3071,0.0,0.0,-1.6906,-1.8044,-1.8653,-1.9282,-1.8654,-1.8293,-1.9469,-2.0374,-2.1531,-2.3476,-2.6062,-2.8773,-3.1511,-3.3253,-3.4038,-3.3587,-3.2085,-3.0682,-2.9684,-2.956,-2.9508,-2.9396,-2.992,-3.0216,-3.0216,-3.0072,-3.0357,-3.1135,-3.0959,-3.0934,-3.1173,-3.0809,-3.0357,-2.9804,-2.9792,-2.9792,-2.9792,-2.9792,-2.9792,-2.9779,-2.9628,-2.9641,-2.9741,-2.8863,-2.8335,-2.8084,-2.777,-2.6046,-2.3559,-2.3906,-2.2637,-2.0488,-1.9863,-1.9287,-1.8799,0.0,0.0,0.0,0.0,0.0,0.0,0.0,0.0,0.0,0.0,0.0,0.0,0.0,1.32,1.2893,1.1471,0.6391,0.2213,-0.0166,-0.5953,-0.999,-1.178,-1.0838,-1.0267,-1.01,-0.8708,-0.7922,-0.7885,0.2714,0.988,1.3796,1.1763,1.0472,0.9935,1.014,1.0501,1.0772,1.1589,1.1944,1.183,1.0768,0.9868,0.9138,0.8265,0.7773,0.7359,0.5542,0.4697,0.404,0.0927,-0.1498,-0.3771,-0.6707,-0.8044,0.0,-0.8705,-0.8396,-0.8402,-1.0407,0.0,-1.5317,-1.769,-1.9961,-2.1784,-2.2313,-2.1355,-2.0217,-1.995,-1.9773,-2.0213,-2.1927,-2.469,-2.7527,-3.0158,-3.2222,-3.3216,-3.2315,-3.1573,-3.0779,-2.9862,-2.9731,-2.9964,0.0,-3.0998,-3.118,-3.118,-3.0778,-3.0608,-3.0633,-3.1097,-3.1135,-3.0658,-3.062,-3.0357,-2.9804,-2.9792,-2.9792,-2.9792,-2.9792,-2.9792,-2.9779,-2.9214,-2.9264,-2.9704,-2.8047,-2.762,-2.8021,-2.6954,-2.5312,-2.3514,-2.3537,-2.236,-2.0634,-2.0537,-1.999,-1.9209,0.0,0.0,0.0,0.0,0.0,0.0,0.0,0.0,0.0,0.0,0.0,0.0,0.0,0.0,0.0,0.0,0.7,0.4083,0.3458,-0.2702,-0.6815,-0.7649,-1.0061,-1.1458,-1.1594,-0.9195,-0.6353,-0.3054,0.1664,0.6512,1.1204,1.1589,1.1547,1.131,1.188,1.1981,1.1604,1.1875,1.1752,1.1139,1.0165,0.9472,0.8913,0.8583,0.8088,0.7448,0.0,0.5498,0.4188,0.0669,-0.1962,-0.4415,-0.8011,-0.9245,-0.9314,-0.9037,-1.0271,-1.2121,-1.3801,0.0,-1.9855,-2.1979,-2.2749,-2.3128,-2.3647,-2.212,-2.0292,-1.9217,-1.8883,-1.8767,-1.8994,-2.1934,-2.5371,-2.8419,-3.1175,-3.3246,-3.4213,-3.2974,-3.168,-3.0934,-3.1233,0.0,0.0,0.0,0.0,-3.2037,-3.1008,-3.0672,-3.15,-3.0788,-3.0419,-3.0608,-3.0256,-2.998,-2.9792,-2.9792,-2.9792,-2.9792,-2.9792,-2.9792,-2.9779,-2.9591,-2.9402,-2.9164,-2.8235,-2.772,-2.7532,-2.7155,-2.6052,-2.4443,-2.4181,-2.2983,-2.1441,-2.0867,-2.0029,-1.9268,0.0,0.0,0.0,0.0,0.0,0.0,0.0,0.0,0.0,0.0,0.0,0.0,0.0,0.0,0.0,0.0,0.0,0.7078,0.6371,0.2089,-0.1,-0.2147,-0.4667,-0.6139,-0.6485,-0.472,-0.2313,0.0753,0.4406,0.7869,1.1227,1.1849,1.2171,1.2313,1.3247,1.34,1.2924,1.2977,1.2779,1.2345,1.1545,1.0884,1.0395,1.0104,0.9416,0.0,0.6862,0.5123,0.3132,-0.0054,-0.281,-0.5437,-0.8742,-1.0153,-1.0716,-1.1274,-1.3086,-1.5483,-1.8049,-2.088,-2.3555,-2.55,-2.529,-2.4597,-2.4498,-2.2325,-1.9924,-1.8394,-1.7512,-1.7031,-1.7225,-1.9764,-2.2817,-2.5785,-2.865,-3.1213,-3.3209,-3.2316,-3.1635,-3.2112,-3.2302,0.0,0.0,0.0,0.0,-3.3003,-3.1537,-3.0869,-3.1695,-3.0471,-2.9955,-3.0306,-2.998,-2.9792,-2.9792,-2.9792,-2.9792,-2.9792,-2.9792,-2.9792,-2.9792,-2.9792,-2.9591,-2.9202,-2.8436,-2.7908,-2.7544,-2.7155,-2.6193,-2.4969,-2.4696,-2.372,-2.2403,-2.1451,-2.0627,-1.9985,0.0,0.0,0.0,0.0,0.0,0.0,0.0,0.0,0.0,0.0,0.0,0.0,0.0,0.0,0.0,0.0,0.0,0.0,0.8514,0.8285,0.7196,0.4841,0.4978,0.5013,0.4844,0.4639,0.4276,0.352,1.0387,1.375,1.3763,1.3068,1.2955,1.3367,1.4481,1.498,1.5029,1.4922,1.5098,1.5343,1.458,1.3952,1.3322,1.2626,1.1617,1.0077,0.6744,0.3732,0.1016,-0.1182,-0.4062,-0.7141,-0.9279,-1.1114,-1.2896,-1.5382,-1.6797,-1.8556,-2.2785,-2.4882,-2.6306,-2.8076,-2.7425,-2.6042,-2.4868,-2.2056,-1.922,-1.7446,-1.5826,-1.5156,0.0,0.0,-2.0207,-2.2608,-2.5261,-2.7745,-2.9862,-3.0175,-3.1072,0.0,0.0,0.0,0.0,0.0,0.0,-3.4119,0.0,-3.1267,-3.1294,-3.0394,-2.9829,-2.9792,-2.9792,-2.9792,-2.9792,-2.9792,-2.9792,-2.9792,-2.9792,-2.9792,-2.9792,-2.9792,-2.9767,-2.9641,-2.8574,-2.8072,-2.7946,-2.6892,-2.5955,-2.5087,-2.5016,-2.4409,-2.3441,-2.2478,-2.1797,-2.1261,0.0,0.0,0.0,0.0,0.0,0.0,0.0,0.0,0.0,0.0,0.0,0.0,0.0,0.0,0.0,0.0,0.0,0.0,1.1881,1.2862,1.3287,1.2859,1.3433,1.4132,1.4887,1.4262,1.2954,1.093,1.4058,1.4948,1.3747,1.52,1.5886,1.5956,1.6581,1.659,1.604,1.591,1.5581,1.5182,1.4685,1.4048,1.3362,1.3267,1.161,0.9015,0.6242,0.2499,-0.1482,0.0,0.0,0.0,0.0,-1.7222,-1.8197,-1.9756,-2.232,-2.4942,-2.6301,-2.8227,-2.9832,-2.9831,-2.7766,-2.5556,-2.467,-2.2119,-1.9371,-1.7351,-1.6047,-1.5137,0.0,0.0,0.0,-2.3978,-2.7494,0.0,-3.4446,-3.5427,0.0,-3.5953,0.0,-3.5492,-3.5323,-3.5574,0.0,0.0,-3.3537,-3.2395,-3.2965,-3.1331,-3.0218,-2.9804,-2.9792,-2.9792,-2.9792,-2.9792,-2.9792,-2.9792,-2.9792,-2.9792,-2.9792,-2.9792,-2.9327,-2.8524,-2.8235,-2.7645,-2.6854,-2.6647,-2.6383,-2.6025,-2.53,-2.4862,-2.4492,-2.3514,-2.2606,-2.1798,0.0,0.0,0.0,0.0,0.0,0.0,0.0,0.0,0.0,0.0,0.0,0.0,0.0,0.0,0.0,0.0,0.0,0.0,0.0,1.4134,1.5074,1.5666,1.6243,1.6826,1.7405,1.7333,1.6405,1.4656,1.5646,1.5323,1.3805,1.5103,1.5445,1.5149,1.5682,1.576,1.5513,1.514,1.4927,0.0,0.0,1.4024,1.3677,1.314,1.1172,0.8268,0.4789,-0.1305,0.0,0.0,0.0,-1.8105,-2.0483,-2.1561,-2.2404,-2.4654,0.0,-2.9124,-3.0501,-3.2076,-3.3094,-3.1856,-2.9534,-2.6893,-2.4328,-2.173,-1.9028,-1.6066,-1.4997,0.0,0.0,0.0,0.0,0.0,0.0,0.0,-3.3571,-3.502,-3.6055,0.0,-3.7115,0.0,-3.6522,-3.6747,-3.7015,0.0,-3.5047,-3.3605,-3.3637,-3.1889,-3.0534,-2.9804,-2.9792,-2.9792,-2.9792,-2.9792,-2.9792,-2.9792,-2.9792,-2.9792,-2.9792,-2.9792,-2.9453,-2.8825,0.0,-2.7971,-2.7155,-2.6917,-2.6816,-2.6791,-2.5972,-2.581,-2.5839,-2.4634,-2.3824,-2.3201,0.0,0.0,0.0,0.0,0.0,0.0,0.0,0.0,0.0,0.0,0.0,0.0,0.0,0.0,0.0,0.0,0.0,0.0,0.0,0.0,1.4495,1.5388,1.5726,1.5954,1.5973,1.656,1.6506,1.5903,1.5708,1.5064,1.3962,1.4009,1.3629,1.302,1.3384,1.3769,1.401,1.3449,1.3408,1.3731,1.346,1.3506,1.3512,0.0,1.0053,0.6897,0.1973,0.0,0.0,0.0,-2.1729,-2.212,-2.4306,-2.5248,-2.6276,-2.9589,-3.1139,-3.2293,-3.4779,-3.5936,-3.597,-3.4121,-3.1921,-2.9003,-2.4238,-2.141,-1.8628,-1.46,0.0,-1.3725,-1.4116,-1.572,-1.7772,-1.994,0.0,-2.6658,-3.0979,-3.2672,-3.4659,-3.7713,-3.7878,-3.7748,-3.7748,-3.7572,-3.7644,-3.8212,-3.6461,-3.4867,-3.3775,-3.2118,-3.0776,-2.9792,-2.9792,-2.9792,-2.9792,-2.9792,-2.9792,-2.9792,-2.9792,-2.9792,-2.9792,-2.9792,-2.9754,-2.9641,0.0,0.0,-2.7959,-2.7482,-2.7281,-2.7231,-2.6753,-2.6866,-2.7147,-2.5717,-2.5181,-2.4837,0.0,0.0,0.0,0.0,0.0,0.0,0.0,0.0,0.0,0.0,1.643,1.6634,0.0,0.0,0.0,0.0,0.0,0.0,0.0,0.0,0.0,1.5034,1.5423,1.5689,1.602,1.5806,1.5601,1.5309,1.4976,1.4646,1.431,1.4026,1.3891,1.3856,1.3322,1.2779,1.2281,1.1936,1.1795,1.1764,1.1833,1.1647,1.1182,1.0045,0.0,0.0,0.0,0.0,0.0,0.0,-2.3717,-2.6298,-2.9143,-3.0467,-3.129,-3.298,-3.4762,-3.6506,-3.7954,-3.8508,-3.833,-3.6912,-3.3816,-2.9945,-2.5481,-2.2251,0.0,0.0,-1.4653,-1.4744,-1.4495,-1.6032,0.0,-2.2388,0.0,0.0,0.0,0.0,-3.7167,0.0,0.0,0.0,0.0,0.0,0.0,0.0,0.0,0.0,-3.4516,-3.2437,-3.0842,-2.9817,-2.9792,-2.9792,-2.9792,-2.9792,-2.9792,-2.9792,-2.9792,-2.9792,-2.9792,-2.9792,-2.9528,-2.9051,0.0,0.0,-2.7419,-2.7318,-2.7281,-2.7268,-2.718,-2.7205,-2.7205,-2.6514,-2.5934,-2.5443,0.0,0.0,0.0,0.0,0.0,0.0,0.0,1.6264,1.7056,1.6578,1.7347,1.7282,1.5593,1.4362,1.3395,0.0,0.0,0.0,0.0,0.0,0.0,0.0,0.0,0.0,0.0,1.3541,0.0,0.0,0.0,0.0,0.0,0.0,0.0,0.0,1.1748,1.1192,1.0622,1.0294,0.9958,0.9667,0.951,0.9174,0.0,0.0,0.0,0.0,0.0,0.0,0.0,0.0,-2.3293,-2.6824,-3.0237,-3.2195,-3.3429,-3.4517,-3.6167,-3.7917,-3.9351,-3.9937,-3.9708,-3.7773,-3.4957,-3.1158,-2.5452,0.0,0.0,0.0,-1.4317,-1.4536,-1.4479,0.0,0.0,0.0,0.0,0.0,0.0,0.0,0.0,0.0,0.0,0.0,0.0,0.0,0.0,0.0,0.0,0.0,-3.4196,-3.1824,-3.0319,-2.9817,-2.9792,-2.9792,-2.9792,-2.9792,-2.9792,-2.9792,-2.9792,-2.9792,-2.9792,-2.9792,-2.9478,-2.8913,-2.8649,0.0,-2.7281,-2.7281,-2.7281,-2.7256,-2.6967,-2.703,-2.7218,-2.6666,-2.6289,-2.6,0.0,0.0,0.0,0.0,0.0,0.0,0.0,1.6759,1.7686,1.7431,1.769,1.7396,1.5974,1.4922,1.3781,0.0,0.0,0.0,0.0,0.0,0.0,0.0,0.0,0.0,0.0,0.0,0.0,0.0,0.0,0.0,0.0,0.0,0.0,0.0,0.0,0.0,0.0,0.8548,0.8028,0.0,0.0,0.0,0.0,0.0,0.0,0.0,0.0,0.0,0.0,0.0,-2.1406,-2.4699,-2.7947,-3.0741,-3.3012,-3.4052,-3.5771,-3.7826,-3.9914,-4.0941,-4.0848,-3.8417,-3.5864,-3.2182,-2.5286,-2.184,0.0,0.0,-1.3901,-1.4258,-1.464,0.0,0.0,0.0,0.0,0.0,0.0,0.0,0.0,0.0,0.0,0.0,0.0,0.0,0.0,0.0,0.0,0.0,0.0,-3.1096,-2.9792,-2.9792,-2.9792,-2.9792,-2.9792,-2.9792,-2.9792,-2.9792,-2.9792,-2.9792,-2.9792,-2.9792,-2.9478,-2.8925,-2.88,0.0,0.0,-2.7281,-2.7281,-2.7243,-2.6804,-2.6904,-2.7218,-2.6666,-2.6533,-2.6458,0.0,0.0,0.0,0.0,0.0,0.0,0.0,1.6297,1.7002,1.6819,1.6418,1.5843,1.5027,1.3907,1.2972,0.0,0.0,0.0,0.0,0.0,0.0,0.0,0.0,0.0,0.0,0.0,0.0,0.0,0.0,0.0,0.0,0.0,0.0,0.0,0.0,0.0,0.0,0.0,0.0,0.0,0.0,0.0,0.0,0.0,0.0,0.0,0.0,0.0,0.0,0.0,0.0,-1.9341,-2.0902,-2.4744,-2.8951,-3.0513,0.0,0.0,-4.0063,-4.1757,-4.206,-3.9925,-3.6823,-3.2508,-2.586,0.0,0.0,-1.4817,-1.427,-1.4789,-1.5334,-1.5804,-1.6955,0.0,0.0,-2.3038,0.0,0.0,0.0,0.0,0.0,0.0,0.0,0.0,0.0,0.0,0.0,0.0,0.0,-3.065,-2.9792,-2.9792,-2.9792,-2.9792,-2.9792,-2.9792,-2.9792,-2.9792,-2.9792,-2.9792,-2.9792,-2.9792,-2.9478,-2.89,0.0,0.0,0.0,-2.7281,-2.7281,-2.7281,-2.7231,-2.7243,-2.7218,-2.6666,-2.6533,-2.6521,0.0,0.0,0.0,0.0,0.0,0.0,1.4888,1.5788,1.6555,1.6842,1.6299,1.5598,1.4765,1.3009,1.1629,1.1048,0.0,0.0,0.0,0.0,0.0,0.0,0.0,0.0,0.0,0.0,0.0,0.0,0.0,0.0,0.0,0.0,0.0,0.0,0.0,0.0,0.0,0.0,0.0,0.0,0.0,0.0,0.0,0.0,0.0,0.0,0.0,0.0,0.0,0.0,0.0,0.0,-1.6267,-1.8587,0.0,0.0,-3.1336,-3.446,-3.8925,-4.0818,-4.11,-3.9469,-3.5669,-3.0916,-2.5671,0.0,-1.7917,-1.4812,-1.4726,-1.5334,-1.5724,-1.6163,-1.7007,-1.8712,-1.978,0.0,0.0,0.0,0.0,0.0,0.0,0.0,0.0,0.0,0.0,0.0,0.0,0.0,0.0,-3.0763,-2.9792,-2.9792,-2.9792,-2.9792,-2.9792,-2.9792,-2.9792,-2.9792,-2.9792,-2.9616,-2.9277,-2.9277,-2.8787,-2.7921,0.0,0.0,0.0,-2.6791,-2.6791,-2.6791,-2.6791,-2.6791,-2.6766,-2.6609,-2.6533,-2.6533,0.0,0.0,0.0,0.0,0.0,1.4728,1.441,1.5219,1.6039,1.6506,1.5569,1.4597,1.3874,1.1693,1.0137,0.9567,0.9661,0.0,0.0,0.0,0.0,0.0,0.0,0.0,0.0,0.0,0.3946,0.3338,0.453,0.0,0.0,0.0,0.0,0.0,0.0,0.0,0.0,0.0,0.0,0.0,0.0,0.0,0.0,0.0,0.0,0.0,0.0,0.0,0.0,0.0,0.0,0.0,0.0,0.0,0.0,0.0,-2.8176,-3.1594,-3.6185,-3.8592,-3.9511,-3.8338,-3.4168,-2.921,0.0,0.0,-1.6841,-1.4746,-1.4884,-1.5558,-1.5976,-1.6454,-1.7177,-1.8301,-1.9487,-2.1496,0.0,0.0,0.0,0.0,0.0,0.0,0.0,0.0,0.0,0.0,0.0,0.0,0.0,-3.0908,-3.0075,-2.9792,-2.9792,-2.9704,-2.9541,-2.9528,-2.9453,-2.9302,-2.9302,-2.9076,-2.8687,-2.8687,-2.8172,-2.7281,0.0,0.0,0.0,-2.6533,-2.6533,-2.6533,-2.6533,-2.6533,-2.6533,-2.6533,-2.6533,-2.6533,0.0,0.0,0.0,0.0,0.0,0.0,1.3761,1.4666,1.5426,1.5525,1.3727,1.2307,1.1961,0.991,0.8286,0.7751,0.8283,0.0,0.0,0.0,0.0,0.0,0.0,0.0,0.0,0.0,0.1878,0.2417,0.3211,0.3999,0.4732,0.0,0.0,0.0,0.0,0.0,0.0,0.0,0.0,0.0,0.0,0.0,0.0,0.0,0.0,0.0,0.0,0.0,0.0,0.0,0.0,0.0,0.0,0.0,-1.4773,0.0,-2.3024,-2.7683,-3.1537,-3.5046,-3.7453,-3.6713,-3.2519,-2.7711,0.0,-2.0069,-1.6507,-1.4439,-1.4708,-1.5468,-1.5983,-1.66,-1.7325,-1.8358,-1.9273,0.0,0.0,0.0,0.0,0.0,0.0,0.0,0.0,0.0,0.0,0.0,0.0,0.0,0.0,0.0,-3.0758,-2.9869,-2.9792,-2.9515,-2.895,-2.8938,-2.8662,-2.8122,-2.8122,-2.8122,-2.8109,-2.8109,-2.7808,0.0,0.0,0.0,0.0,-2.6533,-2.6533,-2.6533,-2.6533,-2.6533,-2.6533,-2.6533,-2.6533,-2.6533,0.0,0.0,0.0,0.0,0.0,0.0,0.0,1.4509,1.4982,1.4506,1.3384,1.2079,1.0666,0.9214,0.7754,0.6531,0.7578,0.0,0.0,0.0,0.0,0.0,0.0,0.0,0.0,0.0,0.0671,0.047,0.2393,0.3464,0.3837,0.4423,0.5108,0.0,0.0,0.0,0.0,0.0,0.0,0.0,0.0,0.0,0.0,0.0,0.0,0.0,0.0,0.0,0.0,0.0,0.0,0.0,0.0,0.0,0.0,-1.4376,-1.7953,0.0,-2.5805,-2.7866,-2.881,-2.8218,-2.5335,-2.2163,-2.0374,-1.7601,-1.5177,-1.4345,-1.496,-1.578,-1.6281,-1.6795,-1.7728,-1.9502,-2.0117,-2.1122,0.0,0.0,0.0,0.0,0.0,0.0,0.0,0.0,0.0,0.0,0.0,0.0,0.0,0.0,-2.9656,-2.9779,-2.9415,-2.9114,-2.8925,-2.8561,-2.8285,-2.8109,-2.8109,-2.7908,-2.7544,-2.7544,0.0,0.0,0.0,0.0,0.0,-2.6038,-2.6101,-2.6483,-2.6025,-2.6113,-2.6483,-2.6013,-2.6126,-2.6471,0.0,0.0,0.0,0.0,0.0,0.0,0.0,1.4297,1.428,1.2985,1.2129,1.0905,0.9005,0.7705,0.6714,0.624,0.6254,0.0,0.0,0.0,0.0,0.0,0.0,0.0,0.0,-0.0955,-0.0672,-0.0873,0.0897,0.2167,0.2934,0.3281,0.3904,0.466,0.4131,0.0,0.0,0.0,0.0,0.0,0.0,0.0,-0.6591,0.0,0.0,0.0,0.0,0.0,0.0,0.0,0.0,0.0,0.0,0.0,0.0,0.0,-1.4462,-1.7159,0.0,-2.2833,-2.398,-2.364,-2.1493,0.0,0.0,-1.623,-1.4435,-1.437,-1.5187,-1.61,-1.6509,-1.7018,-1.7908,-1.9487,-2.0286,0.0,0.0,0.0,0.0,0.0,0.0,0.0,0.0,0.0,0.0,0.0,0.0,0.0,0.0,0.0,-2.9363,-2.9151,-2.88,-2.8511,-2.831,-2.7758,-2.7381,-2.7155,-2.6967,-2.6691,-2.6352,-2.6352,0.0,0.0,0.0,0.0,0.0,-2.5448,-2.5523,-2.5799,-2.5435,-2.5636,-2.6063,-2.5511,-2.5649,-2.605,0.0,0.0,0.0,0.0,0.0,0.0,0.0,1.3897,1.3323,1.1235,1.0198,0.9063,0.7221,0.5746,0.5317,0.6412,0.0,0.0,0.0,0.0,0.0,0.0,0.0,0.0,-0.286,-0.2458,-0.2021,-0.1609,-0.0969,0.0281,0.1963,0.1967,0.2595,0.3702,0.3065,0.2418,0.0,0.0,0.0,0.0,0.0,0.0,0.0,0.0,0.0,0.0,0.0,0.0,0.0,0.0,0.0,0.0,0.0,0.0,0.0,0.0,0.0,0.0,0.0,-1.9469,0.0,0.0,0.0,0.0,-1.7458,-1.58,0.0,-1.4466,-1.5424,-1.6362,-1.6752,-1.7338,-1.7935,-1.8627,-1.9953,0.0,0.0,0.0,0.0,0.0,0.0,0.0,0.0,0.0,0.0,0.0,0.0,0.0,0.0,0.0,-2.9437,-2.8009,-2.7908,-2.7657,-2.7231,-2.6747,-2.6113,-2.5536,-2.5059,-2.482,-2.482,-2.482,0.0,0.0,0.0,0.0,0.0,-2.4782,-2.4795,-2.482,-2.4782,-2.5084,-2.5473,-2.4958,-2.5096,-2.5473,0.0,0.0,0.0,0.0,0.0,0.0,0.0,0.0,0.0,0.0,0.9853,0.8509,0.7659,0.6014,0.4666,0.0,0.0,0.0,0.0,0.0,0.0,0.0,0.0,0.0,-0.2984,-0.2296,-0.1883,-0.1743,-0.1058,-0.0144,0.0937,0.0368,0.0808,0.2017,0.1474,0.0677,0.0,0.0,0.0,0.0,0.0,0.0,0.0,0.0,0.0,0.0,-1.0523,-1.0938,0.0,0.0,0.0,0.0,0.0,0.0,0.0,0.0,-1.2116,-1.2351,-1.3606,0.0,-1.4763,-1.4408,-1.445,-1.4644,0.0,-1.4744,-1.4873,-1.5233,0.0,-1.6497,-1.7144,-1.7557,-1.833,-1.9918,-2.0442,0.0,0.0,0.0,0.0,0.0,0.0,0.0,0.0,0.0,0.0,0.0,0.0,0.0,0.0,0.0,-2.7246,-2.6924,-2.6025,-2.5937,-2.6653,-2.6088,-2.5523,-2.5008,-2.4883,-2.482,-2.482,-2.482,0.0,0.0,0.0,0.0,-2.4795,-2.4368,-2.4443,-2.4782,-2.4356,-2.4531,-2.4933,-2.4393,-2.4544,-2.4921,0.0,0.0,0.0,0.0,0.0,0.0,0.0,0.0,0.0,0.0,0.0,0.0,0.0,0.0,0.0,0.0,0.0,0.0,0.0,0.0,0.0,0.0,0.0,-0.2952,-0.382,-0.3286,-0.2969,-0.3005,-0.2066,-0.0872,0.0582,0.0222,0.0807,0.1928,0.0755,-0.0658,0.0,0.0,0.0,0.0,-0.5944,0.0,0.0,0.0,0.0,0.0,-1.0346,-1.05,0.0,-1.0194,-1.0406,-1.0933,0.0,0.0,0.0,0.0,-1.2344,-1.254,-1.3054,-1.2919,-1.2638,-1.255,-1.3174,-1.391,-1.4063,-1.4771,-1.551,0.0,0.0,-1.7076,-1.7503,-1.814,0.0,-2.0085,0.0,0.0,0.0,0.0,0.0,0.0,0.0,0.0,0.0,0.0,0.0,0.0,0.0,0.0,0.0,0.0,-2.6226,-2.5724,-2.4883,-2.4858,-2.5699,-2.5146,-2.472,-2.4443,-2.418,-2.4042,-2.4042,-2.4042,0.0,0.0,0.0,0.0,-2.4029,-2.3728,-2.3778,-2.4017,-2.3715,-2.3941,-2.4368,-2.3816,-2.3966,-2.4368,0.0,0.0,0.0,0.0,0.0,0.0,0.0,0.0,0.0,0.0,0.0,0.0,0.0,0.0,0.0,0.0,0.0,0.0,0.0,0.0,0.0,0.0,-0.342,-0.3951,-0.5077,-0.4683,-0.4479,-0.4325,-0.3152,-0.1454,0.0585,0.0659,0.1223,0.2012,0.0132,-0.1767,0.0,0.0,0.0,0.0,-0.6876,0.0,0.0,0.0,0.0,0.0,0.0,0.0,0.0,-0.9694,-0.9768,-1.0109,-1.0575,0.0,0.0,0.0,0.0,0.0,-1.3711,-1.3558,-1.3321,-1.3511,-1.4061,-1.4512,-1.4605,0.0,0.0,0.0,0.0,0.0,0.0,0.0,0.0,0.0,0.0,0.0,0.0,0.0,0.0,0.0,0.0,0.0,0.0,0.0,0.0,0.0,0.0,0.0,0.0,0.0,0.0,-2.4594,-2.3954,-2.3841,-2.4305,-2.3941,-2.3703,-2.3615,-2.3125,-2.2887,-2.2887,-2.2887,-2.2887,0.0,0.0,0.0,-2.2887,-2.2915,-2.2952,-2.2965,-2.304,-2.3439,-2.3803,-2.3314,-2.3439,-2.3803,0.0,0.0,0.0,0.0,0.0,0.0,0.0,0.0,0.0,0.0,0.0,0.0,0.0,0.0,0.0,0.0,0.0,0.0,0.0,0.0,0.0,-0.624,-0.5731,-0.5804,-0.6527,-0.58,-0.4937,-0.4035,-0.3149,-0.1468,0.0751,0.0451,0.0073,-0.0405,-0.1566,-0.2867,-0.4139,0.0,0.0,0.0,0.0,0.0,0.0,0.0,0.0,0.0,0.0,0.0,0.0,-0.9251,-0.9557,-1.0326,-1.0611,0.0,0.0,0.0,0.0,0.0,-1.488,-1.5219,-1.5229,-1.4527,-1.4663,-1.5108,-1.5478,-1.5964,0.0,0.0,0.0,0.0,0.0,0.0,0.0,0.0,0.0,0.0,0.0,0.0,0.0,0.0,0.0,0.0,0.0,0.0,0.0,0.0,0.0,0.0,0.0,0.0,0.0,-2.3401,-2.241,-2.1907,-2.1995,-2.2385,-2.2334,-2.187,-2.1782,-2.1744,-2.1744,-2.1744,-2.1744,0.0,0.0,-2.1744,-2.1782,-2.2246,-2.2435,-2.2485,-2.289,-2.3188,-2.3263,-2.3103,-2.3128,-2.319,0.0,0.0,0.0,0.0,0.0,0.0,0.0,0.0,0.0,0.0,0.0,0.0,0.0,0.0,0.0,0.0,0.0,0.0,0.0,0.0,-0.6854,-0.7262,-0.7001,-0.6994,-0.719,-0.6543,-0.5443,-0.3973,-0.2479,-0.0819,0.0981,0.0797,-0.0068,-0.1344,-0.2291,-0.3507,-0.4949,-0.5561,-0.6389,0.0,0.0,0.0,0.0,0.0,0.0,0.0,0.0,0.0,0.0,0.0,-0.9562,-1.0519,-1.1274,0.0,0.0,0.0,0.0,0.0,-1.5534,-1.5832,-1.5952,-1.5884,-1.594,-1.6157,-1.6646,-1.6925,0.0,0.0,0.0,0.0,0.0,0.0,0.0,0.0,0.0,0.0,0.0,0.0,0.0,0.0,0.0,0.0,0.0,0.0,0.0,0.0,0.0,0.0,0.0,0.0,0.0,0.0,-2.1468,-2.0891,-2.0577,-2.0828,-2.1129,-2.1493,-2.1493,-2.1493,-2.1493,-2.1493,-2.1493,-2.1493,0.0,-2.1493,-2.1506,-2.1757,-2.187,-2.192,-2.2472,-2.2686,-2.2723,-2.2965,-2.2949,-2.2736,0.0,0.0,0.0,0.0,0.0,0.0,0.0,0.0,0.0,0.0,0.0,0.0,0.0,0.0,0.0,0.0,0.0,0.0,0.0,0.0,-0.7335,-0.7695,-0.7728,-0.7587,-0.7386,-0.6823,-0.5606,-0.375,-0.2001,-0.0523,0.074,0.0484,-0.0518,-0.2262,-0.3247,-0.4529,-0.5881,-0.6554,-0.745,-0.8493,0.0,0.0,0.0,0.0,0.0,0.0,0.0,0.0,0.0,0.0,0.0,0.0,0.0,0.0,0.0,-1.5369,-1.5732,-1.5756,-1.6032,-1.625,-1.6454,-1.6993,0.0,-1.6909,-1.7814,-1.7841,0.0,0.0,0.0,0.0,0.0,0.0,0.0,0.0,0.0,0.0,0.0,0.0,0.0,0.0,0.0,0.0,0.0,0.0,0.0,0.0,0.0,0.0,0.0,0.0,0.0,0.0,-2.0534,-2.0067,-1.9623,-1.961,-2.0066,-2.0916,-2.1029,-2.1091,-2.1091,-2.1091,-2.1091,-2.1091,-2.1091,-2.1091,-2.1104,-2.1242,-2.1292,-2.1355,-2.1895,-2.2121,-2.2171,-2.2585,-2.256,-2.2372,0.0,0.0,0.0,0.0,0.0,0.0,0.0,0.0,0.0,0.0,0.0,0.0,0.0,0.0,0.0,0.0,0.0,0.0,0.0,0.0,-0.81,-0.8067,-0.7835,-0.7558,-0.7246,-0.6423,-0.4984,-0.2959,-0.2377,-0.1617,-0.07,-0.1284,-0.2319,-0.3706,-0.5173,-0.6194,-0.693,-0.7285,-0.7889,-0.8626,-0.933,0.0,0.0,0.0,0.0,0.0,0.0,0.0,0.0,0.0,0.0,0.0,0.0,0.0,-1.5768,-1.6157,-1.6423,-1.6577,-1.6479,-1.6934,-1.7393,-1.7434,-1.6934,0.0,-1.8769,-1.8401,0.0,-2.0954,0.0,0.0,0.0,0.0,0.0,0.0,0.0,0.0,0.0,0.0,0.0,0.0,0.0,0.0,0.0,0.0,0.0,0.0,0.0,0.0,0.0,0.0,0.0,0.0,0.0,-1.9114,-1.9061,-1.9061,-1.9107,-1.9221,-1.9698,-1.9924,-1.9924,-1.9924,-1.9924,-1.9924,-1.9924,-1.9924,-1.9962,-2.0501,-2.0781,-2.0832,-2.133,-2.1543,-2.1556,-2.1594,-2.1907,-2.2322,0.0,0.0,0.0,0.0,0.0,0.0,0.0,0.0,0.0,0.0,0.0,0.0,0.0,0.0,0.0,0.0,0.0,0.0,0.0,-0.6587,-0.7153,-0.6988,-0.6826,-0.6357,-0.5592,-0.5151,-0.4109,-0.2544,-0.2349,-0.2241,-0.2154,-0.3268,-0.429,-0.5188,-0.6345,-0.7048,-0.7482,-0.8044,-0.8682,-0.9302,-1.0108,-1.1199,0.0,0.0,0.0,0.0,0.0,0.0,0.0,0.0,-1.3021,-1.3615,-1.4819,-1.5591,-1.6144,-1.6847,-1.7018,-1.6989,-1.6947,-1.7227,-1.7557,-1.7855,-1.7529,0.0,0.0,-1.9586,-1.9625,-2.0823,-2.1427,0.0,0.0,0.0,0.0,0.0,0.0,0.0,0.0,0.0,0.0,0.0,0.0,0.0,0.0,0.0,0.0,0.0,0.0,0.0,0.0,0.0,0.0,0.0,0.0,-1.8985,-1.8949,-1.8985,-1.8832,-1.8487,-1.8735,-1.8807,-1.8807,-1.8807,-1.8807,-1.8807,-1.8807,-1.8807,-1.8832,-1.9045,-1.9334,-1.9736,-2.0627,-2.1192,-2.1493,-2.1493,-2.1405,-2.1393,0.0,0.0,0.0,0.0,0.0,0.0,0.0,0.0,0.0,0.0,0.0,0.0,0.0,0.0,0.0,0.0,0.0,0.0,-0.4842,-0.6018,-0.6644,-0.6463,-0.6306,-0.588,-0.5061,-0.4683,-0.3988,-0.2926,-0.3223,-0.3685,-0.4291,-0.5264,-0.6155,-0.6979,-0.737,-0.781,-0.8245,-0.8538,-0.9234,-1.0165,-1.0947,-1.2206,0.0,0.0,0.0,0.0,0.0,0.0,0.0,0.0,-1.428,-1.4752,-1.5894,-1.641,-1.6663,-1.7369,-1.7529,-1.7488,-1.7393,-1.7557,-1.7774,0.0,0.0,0.0,-1.9624,-1.9977,-2.0177,-2.0905,-2.1649,0.0,0.0,0.0,0.0,0.0,0.0,0.0,0.0,0.0,0.0,0.0,0.0,0.0,0.0,0.0,0.0,0.0,0.0,0.0,0.0,0.0,0.0,0.0,0.0,0.0,-1.889,-1.8776,-1.8532,-1.8145,-1.7824,-1.7852,-1.8204,-1.8204,-1.8204,-1.8204,-1.8204,-1.8204,-1.8204,-1.8204,-1.843,-1.8857,-1.9786,-2.0376,-2.0727,-2.0891,-2.0828,-2.0803,0.0,0.0,0.0,0.0,0.0,0.0,0.0,0.0,0.0,0.0,0.0,0.0,0.0,0.0,0.0,0.0,0.0,0.0,-0.4842,-0.6239,-0.6929,-0.6744,-0.6596,-0.6362,-0.6049,-0.5247,-0.466,-0.4312,-0.5236,-0.6173,-0.7197,-0.7296,-0.7915,-0.9001,-0.8465,-0.8637,-0.9343,-0.8664,-0.9479,-1.1121,-1.1639,-1.2998,-1.4952,0.0,0.0,0.0,0.0,0.0,0.0,0.0,-1.5323,-1.5686,-1.6532,-1.7131,-1.7529,-1.7679,-1.7922,-1.8149,-1.7882,-1.8016,0.0,0.0,0.0,0.0,-1.9158,-1.9342,-1.9736,-2.1533,0.0,0.0,0.0,0.0,0.0,0.0,0.0,0.0,0.0,0.0,0.0,0.0,0.0,0.0,0.0,0.0,0.0,0.0,0.0,0.0,0.0,0.0,0.0,0.0,0.0,0.0,-1.8893,-1.838,-1.8106,-1.8106,-1.7034,-1.7099,-1.8191,-1.8191,-1.8191,-1.8191,-1.8191,-1.8191,-1.8191,-1.8191,-1.8191,-1.8254,-1.8807,-1.902,-1.9033,-1.961,-2.0162,-2.0619,0.0,0.0,0.0,0.0,0.0,0.0,0.0,0.0,0.0,0.0,0.0,0.0,0.0,0.0,0.0,0.0,0.0,0.0,-0.6166,-0.6688,-0.7171,-0.7692,-0.7265,-0.7016,-0.7007,-0.7563,-0.7404,-0.6468,-0.7491,-0.8259,-0.8795,-0.8915,-0.8789,-0.8471,-0.8914,-0.8826,-0.8391,-0.8867,-0.9933,-1.1353,-1.2372,-1.4178,-1.6402,0.0,0.0,0.0,0.0,0.0,0.0,0.0,0.0,0.0,-1.7353,-1.7625,-1.7666,-1.7855,-1.7949,-1.7989,-1.7962,-1.8279,0.0,0.0,0.0,0.0,0.0,-1.8922,0.0,0.0,0.0,0.0,0.0,0.0,0.0,0.0,0.0,0.0,0.0,0.0,0.0,0.0,0.0,0.0,0.0,0.0,0.0,0.0,0.0,0.0,0.0,0.0,0.0,0.0,0.0,0.0,-1.9442,-1.893,-1.8458,-1.8106,-1.7394,-1.7046,-1.7011,-1.7011,-1.7011,-1.7011,-1.7011,-1.7011,-1.7049,-1.7451,-1.7626,-1.7677,-1.8229,-1.8681,-1.8995,-1.9196,-1.9597,-2.0085,0.0,0.0,0.0,0.0,0.0,0.0,0.0,0.0,0.0,0.0,0.0,0.0,0.0,0.0,0.0,0.0,0.0,0.0,0.0,-0.7992,-0.8436,-0.8776,-0.8673,-0.8594,-0.8531,-0.9508,-0.9548,-0.8627,-0.9257,-0.9575,-0.9693,-0.9574,-0.9144,-0.8546,-0.8775,-0.8688,-0.8473,-0.9018,-1.044,-1.2422,-1.323,-1.5188,-1.7651,0.0,0.0,0.0,0.0,0.0,0.0,0.0,0.0,0.0,-1.7419,-1.7502,-1.7543,-1.7639,-1.7855,-1.8003,-1.7922,0.0,0.0,0.0,0.0,0.0,0.0,0.0,0.0,0.0,0.0,0.0,0.0,0.0,0.0,0.0,0.0,0.0,0.0,0.0,0.0,0.0,0.0,0.0,0.0,0.0,0.0,0.0,0.0,0.0,0.0,0.0,0.0,0.0,0.0,0.0,-1.9369,-1.8855,-1.8419,-1.8106,-1.7544,-1.7034,-1.6522,-1.6522,-1.6522,-1.6522,-1.6522,-1.6522,-1.6547,-1.6898,-1.7036,-1.7099,-1.7652,-1.8078,-1.843,-1.8869,-1.9008,-1.9098,0.0,0.0,0.0,0.0,0.0,0.0,0.0,0.0,0.0,0.0,0.1222,0.0,0.0,0.0,0.0,0.0,0.0,0.0,0.0,0.0,-1.0473,-1.0128,-1.0632,-1.0723,-1.0279,-1.1039,-1.1107,-1.0555,-1.0465,-1.0297,-0.9991,-0.9494,-0.9108,-0.8835,-0.8298,-0.8473,-0.9193,-0.9182,-1.1039,-1.3861,-1.4189,-1.6025,-1.8616,-1.888,0.0,0.0,0.0,0.0,0.0,0.0,0.0,0.0,-1.7002,-1.717,-1.724,-1.724,-1.7666,-1.8069,-1.776,0.0,0.0,0.0,0.0,0.0,0.0,0.0,0.0,0.0,0.0,0.0,0.0,0.0,0.0,0.0,0.0,0.0,0.0,0.0,0.0,0.0,0.0,0.0,0.0,0.0,0.0,0.0,0.0,0.0,0.0,0.0,0.0,0.0,0.0,0.0,-1.8817,-1.838,-1.8145,0.0,-1.7544,-1.7034,-1.6522,-1.6522,-1.6522,-1.6522,-1.6522,-1.6522,-1.6522,-1.6522,-1.6522,-1.6572,-1.7099,-1.7338,-1.7501,-1.8505,-1.8449,-1.7918,0.0,0.0,0.0,0.0,0.0,0.0,0.0,0.0,0.0,0.0,0.0,0.0,0.0,0.0,0.0,0.0,0.0,0.0,0.0,0.0,-1.2349,-1.2464,-1.1835,-1.1356,-1.0973,-1.1328,-1.1259,-1.0816,-1.0747,-1.0463,-0.9971,-0.9615,-0.8893,-0.8027,-0.8895,-0.9164,-0.8961,-1.0356,-1.1931,-1.3583,-1.5336,-1.7029,-1.8526,-1.9328,-1.9464,0.0,0.0,0.0,0.0,0.0,0.0,0.0,-1.7597,-1.7666,-1.7597,-1.7597,-1.7625,-1.7639,-1.7557,-1.776,0.0,0.0,0.0,0.0,0.0,0.0,0.0,0.0,0.0,0.0,0.0,0.0,0.0,0.0,0.0,0.0,0.0,0.0,0.0,0.0,0.0,0.0,0.0,0.0,0.0,0.0,0.0,0.0,0.0,0.0,0.0,0.0,0.0,-1.8027,-1.8263,-1.8574,-1.8302,0.0,-1.7353,-1.7034,-1.6522,-1.6522,-1.6522,-1.6522,-1.6522,-1.6522,-1.6522,-1.6522,-1.6522,-1.6522,-1.666,-1.6986,-1.7413,-1.7652,-1.7811,-1.7914,0.0,0.0,0.0,0.0,0.0,0.0,0.0,0.0,0.0,0.0,0.0,0.0,0.0,0.0,0.0,0.0,0.0,0.0,0.0,0.0,-1.4327,-1.3234,-1.1991,-1.1293,-1.114,-1.1104,-1.0863,-1.0293,-1.047,-1.0303,-0.9829,-0.9577,-0.8991,-0.8156,-0.9152,-0.974,-1.0172,-1.1558,-1.2914,-1.4369,-1.5997,-1.7111,-1.7867,-1.8855,-1.9031,-1.8702,-1.8593,0.0,0.0,0.0,0.0,0.0,0.0,0.0,-1.7556,-1.7461,-1.7488,-1.7516,-1.7598,0.0,0.0,0.0,0.0,0.0,0.0,0.0,0.0,0.0,0.0,0.0,0.0,0.0,0.0,0.0,0.0,0.0,0.0,0.0,0.0,0.0,0.0,0.0,0.0,0.0,0.0,0.0,0.0,0.0,0.0,0.0,0.0,0.0,-1.7188,-1.7463,-1.7706,-1.7987,-1.7867,-1.7312,-1.7312,-1.7034,-1.6522,-1.6522,-1.6522,-1.6522,-1.6522,-1.6522,-1.6522,-1.6522,-1.6522,-1.6466,-1.6194,-1.6279,-1.6516,-1.6498,-1.6509,-1.6591,0.0,0.0,0.0,0.0,0.0,0.0,0.0,0.0,0.0,0.0,0.0,0.0,0.0,0.0,0.0,0.0,0.0,0.0,0.0,0.0,0.0,-1.3423,-1.1882,-1.1088,-1.1016,-1.0741,-1.0241,-0.9614,-1.0102,-1.0095,-0.9577,-0.9576,-0.9256,-0.8679,-0.9287,-1.0253,-1.1468,-1.2472,-1.3729,-1.5069,-1.6166,-1.6784,-1.7174,-1.8075,-1.8243,-1.801,-1.7968,-1.7787,-1.7598,-1.7323,0.0,0.0,0.0,0.0,-1.7446,-1.7282,-1.7365,-1.7529,-1.7611,0.0,0.0,0.0,0.0,0.0,0.0,0.0,0.0,0.0,0.0,0.0,0.0,0.0,0.0,0.0,0.0,0.0,0.0,0.0,0.0,0.0,0.0,0.0,0.0,0.0,0.0,0.0,0.0,0.0,0.0,0.0,-1.6522,-1.6522,-1.6595,-1.6795,-1.7146,-1.7229,-1.7229,-1.7146,-1.7146,-1.6909,-1.6522,-1.6522,-1.6522,-1.6522,-1.6522,-1.6522,-1.6522,-1.6522,-1.6423,-1.6293,-1.5776,-1.5543,-1.5424,-1.5392,-1.5186,-1.506,0.0,0.0,0.0,0.0,0.0,0.0,0.0,0.0,0.0,0.0,0.0,0.0,0.0,0.0,0.0,0.0,0.0,0.0,-1.8491,0.0,0.0,-1.3883,-1.2559,-1.1455,-1.0694,-1.03,-0.9917,-0.9614,-1.0221,-1.0159,-0.942,-0.9731,-0.9486,-0.883,-0.9821,-1.0515,-1.1019,-1.2641,-1.3596,-1.4187,-1.563,-1.649,-1.7005,-1.7522,-1.7852,-1.7958,-1.7733,-1.7557,-1.7432,-1.7253,-1.7323,0.0,0.0,0.0,-1.7788,-1.7529,-1.7461,-1.7404,0.0,0.0,0.0,0.0,0.0,0.0,0.0,0.0,0.0,0.0,0.0,0.0,0.0,0.0,0.0,0.0,0.0,0.0,0.0,0.0,0.0,0.0,0.0,0.0,0.0,0.0,0.0,0.0,0.0,0.0,0.0,-1.6522,-1.6522,-1.6522,-1.6951,-1.6993,-1.6595,-1.7076,-1.7076,-1.6595,-1.6595,-1.6552,-1.6522,-1.6522,-1.6522,-1.6522,-1.6522,-1.6522,-1.6522,-1.6522,-1.6194,-1.572,-1.5632,-1.5276,-1.4846,-1.4822,-1.4675,-1.4495,0.0,0.0,0.0,0.0,0.0,0.0,0.0,0.0,0.0,0.0,0.0,0.0,0.0,0.0,0.0,-1.719,-1.8235,-1.889,-1.899,-1.7448,-1.574,-1.3969,-1.2544,-1.1209,-1.0091,-0.9941,-0.9658,-0.9145,-1.032,-1.0582,-0.9976,-1.0825,-1.0586,-0.9517,-1.0293,-1.1086,-1.1956,-1.3387,-1.3793,-1.3651,-1.5298,-1.5634,-1.522,-1.6166,-1.6731,-1.6957,-1.6905,-1.6879,-1.6833,-1.6892,-1.6934,-1.7018,-1.7447,0.0,0.0,0.0,-1.776,0.0,-1.7378,0.0,0.0,0.0,0.0,0.0,0.0,0.0,0.0,0.0,0.0,0.0,0.0,0.0,0.0,0.0,0.0,0.0,0.0,0.0,0.0,0.0,0.0,0.0,0.0,0.0,0.0,0.0,0.0,0.0,-1.6522,-1.6522,-1.6522,-1.6522,-1.671,-1.6752,-1.6522,-1.671,-1.671,-1.6522,-1.6522,-1.6522,-1.6522,-1.6522,-1.6522,-1.6522,-1.6522,-1.6522,-1.6466,-1.6139,-1.582,-1.5543,-1.4858,-1.4411,-1.4143,-1.3836,-1.3803,-1.3912,0.0,0.0,0.0,0.0,0.0,0.0,0.0,0.0,0.0,0.0,0.0,0.0,0.0,0.0,0.0,0.0,-1.8628,-1.9056,-1.9073,-1.7643,-1.5938,-1.4084,-1.2452,-1.099,-0.9666,-0.9614,-0.9354,-0.8883,-1.032,-1.0895,-1.0617,-1.1731,-1.1651,-1.053,-1.0896,-1.1661,-1.2778,-1.3712,-1.3806,-1.3482,-1.4833,-1.4759,-1.399,-1.4918,-1.5496,-1.5853,-1.5893,-1.5964,-1.612,-1.6337,-1.6411,-1.6539,-1.7284,-1.7503,0.0,0.0,0.0,0.0,0.0,0.0,0.0,0.0,0.0,0.0,0.0,0.0,0.0,0.0,0.0,0.0,0.0,0.0,0.0,0.0,0.0,0.0,0.0,0.0,0.0,0.0,0.0,0.0,0.0,0.0,0.0,0.0,0.0,0.0,-1.6522,-1.6522,-1.6522,-1.6522,-1.6522,-1.6522,-1.6522,-1.6522,-1.6522,-1.6522,-1.6522,-1.6522,-1.6522,-1.6522,-1.6522,-1.6522,-1.6522,-1.6423,-1.6238,-1.5776,-1.541,-1.5039,-1.4133,-1.3732,-1.3505,-1.3065,-1.3076,-1.3389,0.0,0.0,0.0,0.0,0.0,0.0,0.0,0.0,0.0,0.0,0.0,0.0,-1.6863,-1.6808,-1.7131,-1.8069,-1.8556,-1.886,-1.8934,-1.7743,-1.6253,-1.4384,-1.2584,0.0,-0.9814,-0.9309,-0.9106,-0.9159,-1.0361,-1.0948,-1.1083,-1.1792,-1.2058,-1.1983,-1.1888,-1.2167,-1.2726,-1.3152,-1.3531,-1.3848,-1.3847,-1.409,-1.4427,-1.4094,-1.4383,-1.4959,-1.4824,0.0,0.0,-1.5457,-1.5788,-1.6244,-1.6854,-1.7256,-1.7557,0.0,0.0,0.0,0.0,0.0,0.0,0.0,0.0,0.0,0.0,0.0,0.0,0.0,0.0,0.0,0.0,0.0,0.0,0.0,0.0,0.0,0.0,0.0,0.0,0.0,0.0,0.0,0.0,0.0,0.0,0.0,0.0,0.0,-1.6522,-1.6522,-1.6522,-1.6522,-1.6522,-1.6522,-1.6522,-1.6522,-1.6522,-1.6522,-1.6522,-1.6522,-1.6522,-1.6522,-1.6522,-1.6522,-1.6522,-1.6194,-1.5632,-1.5632,-1.4903,-1.3909,-1.3815,-1.3467,-1.2929,-1.2929,-1.2891,-1.291,0.0,0.0,0.0,0.0,0.0,0.0,0.0,0.0,0.0,0.0,0.0,0.0,0.0,-1.7166,-1.7227,-1.8161,-1.9179,-1.9712,-1.9555,-1.8464,-1.7014,-1.5152,-1.3637,-1.2087,-1.0474,-1.0653,-1.0556,-1.0218,-1.1718,-1.2315,-1.2067,-1.3053,-1.3375,-1.3057,-1.24,-1.2006,-1.2013,-1.3144,0.0,0.0,0.0,-1.362,-1.359,-1.3662,0.0,0.0,0.0,0.0,0.0,-1.4459,-1.5039,-1.5756,-1.6697,-1.6993,-1.7089,-1.7733,-1.7774,0.0,0.0,0.0,0.0,0.0,0.0,0.0,0.0,0.0,0.0,0.0,0.0,0.0,0.0,0.0,0.0,0.0,0.0,0.0,0.0,0.0,0.0,0.0,0.0,0.0,0.0,0.0,0.0,0.0,0.0,0.0,-1.6522,-1.6522,-1.6522,-1.6522,-1.6522,-1.6522,-1.6522,-1.6522,-1.6522,-1.6522,-1.6522,-1.6522,-1.6522,-1.6522,-1.6522,-1.6466,-1.6095,-1.582,-1.5588,-1.5186,-1.456,-1.3779,-1.3372,-1.3104,-1.2881,-1.2881,-1.2881,-1.292,0.0,0.0,0.0,0.0,0.0,0.0,0.0,0.0,0.0,-1.8809,0.0,0.0,0.0,0.0,-1.7644,-1.8466,-1.9415,-1.9839,-1.9605,-1.8641,-1.7314,-1.5793,-1.4601,-1.3238,-1.1731,-1.2026,-1.2123,-1.1877,-1.2965,-1.3465,-1.3527,-1.3936,-1.389,-1.3521,-1.2897,-1.2466,-1.2353,0.0,0.0,-1.2082,0.0,0.0,-1.295,0.0,0.0,0.0,0.0,0.0,0.0,0.0,0.0,0.0,-1.6066,-1.6766,-1.7222,-1.7555,-1.7625,0.0,-1.7842,0.0,0.0,0.0,0.0,0.0,0.0,0.0,0.0,0.0,0.0,0.0,0.0,0.0,0.0,0.0,0.0,0.0,0.0,0.0,0.0,0.0,0.0,0.0,0.0,0.0,0.0,0.0,0.0,0.0,-1.6194,-1.638,-1.6522,-1.6522,-1.668,-1.668,-1.6522,-1.6522,-1.6522,-1.6522,-1.6522,-1.6522,-1.6522,-1.6522,-1.6522,-1.6466,-1.6095,-1.5676,-1.5231,-1.4652,-1.4061,-1.3467,-1.3065,-1.2881,-1.2881,-1.2881,-1.2881,-1.292,0.0,0.0,0.0,0.0,0.0,0.0,0.0,0.0,-1.8332,-1.9284,0.0,0.0,0.0,0.0,0.0,-1.8996,-1.9211,-1.9224,-1.9094,-1.8253,-1.7294,-1.6266,-1.5399,-1.4508,-1.3468,-1.3332,-1.3502,-1.4076,-1.3932,-1.4361,-1.5338,-1.4272,-1.3676,-1.3549,-1.3422,-1.3551,-1.3784,0.0,-1.3266,-1.2716,0.0,-1.2286,-1.2501,0.0,0.0,0.0,-1.2307,-1.211,0.0,0.0,0.0,0.0,0.0,-1.6669,-1.79,-1.7326,-1.7515,0.0,0.0,0.0,0.0,0.0,0.0,0.0,0.0,0.0,0.0,0.0,0.0,0.0,0.0,0.0,0.0,0.0,0.0,0.0,0.0,0.0,0.0,0.0,0.0,0.0,0.0,0.0,0.0,0.0,0.0,-1.5588,-1.5588,-1.6182,-1.6522,-1.6522,-1.7034,-1.7034,-1.6522,-1.6522,-1.6522,-1.6522,-1.6522,-1.6522,-1.6522,-1.6522,-1.6522,-1.6522,-1.6479,-1.5788,-1.4652,-1.405,-1.3467,-1.2881,-1.2881,-1.2881,-1.2881,-1.2881,-1.2881,-1.2774,0.0,0.0,0.0,0.0,0.0,-1.4581,-1.6843,-1.7978,-1.8721,0.0,0.0,0.0,-1.8828,-1.8772,-1.9003,-1.9445,-1.9757,-2.0116,-2.0517,-1.9614,-1.8566,-1.7344,-1.6526,-1.5565,-1.4499,-1.4714,-1.4984,-1.5215,-1.5638,-1.6007,-1.6294,-1.5372,-1.4924,-1.4799,-1.3623,-1.3217,-1.3331,-1.3008,0.0,0.0,-1.1164,-1.0892,0.0,0.0,0.0,0.0,0.0,-1.0426,0.0,0.0,-1.2407,-1.4612,0.0,0.0,-1.7517,-1.6974,-1.7359,0.0,-1.8436,0.0,0.0,0.0,0.0,0.0,0.0,0.0,0.0,0.0,0.0,0.0,0.0,0.0,0.0,0.0,0.0,0.0,0.0,0.0,0.0,0.0,0.0,0.0,0.0,0.0,0.0,0.0,-1.5276,-1.5588,-1.5588,-1.6544,-1.7076,-1.7076,-1.7229,-1.7034,-1.6522,-1.6522,-1.6522,-1.6522,-1.6522,-1.6522,-1.6522,-1.6522,-1.6522,-1.6436,-1.5567,-1.5017,-1.4709,-1.4514,-1.3836,-1.2881,-1.2881,-1.2881,-1.2881,-1.2881,-1.2559,-1.208,0.0,0.0,0.0,0.0,0.0,-1.5135,-1.7054,-1.8009,-1.8729,0.0,0.0,0.0,-1.9545,-1.9472,-1.9674,-2.0188,-2.0035,-2.0074,-2.0478,-1.9803,-1.8835,-1.7547,-1.7265,-1.6579,-1.5274,-1.5781,-1.6208,-1.6634,-1.6645,-1.6698,-1.6979,-1.5892,-1.5107,-1.4528,-1.3556,0.0,0.0,0.0,0.0,0.0,-1.0083,0.0,0.0,-0.9298,-0.9109,0.0,0.0,0.0,-1.0605,-1.0249,-1.2241,0.0,0.0,0.0,0.0,0.0,0.0,0.0,0.0,0.0,0.0,0.0,0.0,0.0,0.0,-1.7844,0.0,0.0,0.0,0.0,0.0,0.0,0.0,0.0,0.0,0.0,0.0,0.0,0.0,0.0,0.0,0.0,0.0,0.0,0.0,0.0,-1.4744,-1.5543,-1.6275,-1.7162,-1.7626,-1.7626,-1.7867,-1.7585,-1.6837,-1.6837,-1.671,-1.6522,-1.6522,-1.6522,-1.6522,-1.6522,-1.638,-1.6095,-1.5377,-1.4778,-1.4329,-1.4329,-1.3742,-1.2881,-1.2881,-1.2881,-1.2871,-1.2559,-1.2187,-1.1715,0.0,0.0,-1.2234,-1.326,-1.4359,-1.557,-1.7166,-1.7802,-1.8521,0.0,-1.9922,-2.0122,-2.0582,-2.0402,-2.0447,-2.1011,-2.024,-1.9782,-1.9828,-1.9543,-1.873,-1.7395,-1.784,-1.7426,-1.5994,-1.6496,-1.7158,-1.7955,-1.7058,-1.6924,-1.7434,-1.5992,-1.4674,-1.3464,0.0,0.0,0.0,0.0,0.0,-1.118,-0.9153,-0.8829,0.0,0.0,-0.9131,0.0,-0.9732,-1.0046,-1.0409,-1.0314,-1.2155,0.0,0.0,0.0,0.0,0.0,-1.7049,0.0,0.0,0.0,0.0,0.0,0.0,0.0,-1.7789,-1.7272,0.0,0.0,0.0,0.0,0.0,0.0,0.0,0.0,0.0,0.0,0.0,0.0,0.0,0.0,0.0,0.0,0.0,0.0,-1.3017,-1.3017,-1.4107,-1.5531,-1.7216,-1.7827,-1.8106,-1.8106,-1.8612,-1.838,-1.7312,-1.7312,-1.7034,-1.6522,-1.6522,-1.6522,-1.6522,-1.6522,-1.6194,-1.5588,-1.5543,-1.4858,-1.3768,-1.3732,-1.3372,-1.2881,-1.2881,-1.2832,-1.2715,-1.203,-1.1715,-1.1416,0.0,-1.213,-1.3326,-1.4767,-1.5332,-1.61,-1.7615,-1.794,-1.8495,-1.9868,-2.0618,-2.0835,-2.0358,-2.0846,-2.125,-2.1387,-2.1401,-2.1272,-2.0864,-2.0928,-2.0134,-1.8354,-1.8165,-1.7816,-1.699,-1.709,-1.7339,-1.7746,-1.7297,-1.7307,-1.7677,-1.5571,-1.4478,-1.4145,-1.2266,0.0,0.0,0.0,0.0,-1.0538,-0.9079,0.0,-0.7402,-0.7662,-0.7544,-0.7368,-0.7919,-0.9211,-1.0851,0.0,-1.3387,-1.3911,0.0,0.0,0.0,0.0,0.0,0.0,0.0,0.0,0.0,0.0,0.0,0.0,-1.9876,-1.8846,0.0,0.0,0.0,0.0,0.0,0.0,0.0,0.0,0.0,0.0,0.0,0.0,0.0,0.0,0.0,0.0,0.0,0.0,-1.3637,-1.3637,-1.4732,-1.5971,-1.7229,-1.7827,-1.8106,-1.8106,-1.8612,-1.838,-1.7312,-1.7312,-1.7034,-1.6522,-1.6522,-1.6522,-1.6522,-1.6522,-1.6194,-1.5588,-1.5107,-1.4468,-1.3779,-1.3286,-1.3017,-1.2881,-1.2881,-1.252,-1.2008,-1.1873,-1.1116,-1.0167,-1.213,-1.3022,-1.3805,-1.4716,-1.5163,-1.5762,-1.7059,-1.7364,-1.795,-1.9376,-2.003,-2.0427,-2.0606,-2.0665,-2.0985,-2.1608,-2.1514,-2.1122,-2.0512,-2.0808,-1.9909,-1.7485,-1.7861,-1.7504,-1.6294,-1.6333,-1.6609,-1.7027,-1.6503,-1.6158,-1.5939,-1.4724,-1.3728,-1.2908,-1.1948,0.0,0.0,0.0,-0.9861,-1.013,-0.8231,0.0,-0.8817,-0.7551,-0.7175,-0.751,-0.84,-0.9956,-1.1766,-1.3315,-1.4165,0.0,0.0,-1.568,-1.584,0.0,-1.6126,-1.6814,0.0,0.0,0.0,-2.013,0.0,0.0,0.0,-1.8503,0.0,0.0,0.0,0.0,0.0,0.0,0.0,0.0,0.0,0.0,0.0,0.0,0.0,0.0,0.0,0.0,0.0,0.0,-1.405,-1.463,-1.5509,-1.6384,-1.7242,-1.7544,-1.7947,-1.8496,-1.8765,-1.8496,-1.7706,-1.7706,-1.7312,-1.6522,-1.6522,-1.6337,-1.6051,-1.6051,-1.5555,-1.4675,-1.4376,-1.392,-1.3334,-1.3017,-1.2666,-1.2344,-1.2344,-1.2138,-1.1733,-1.1074,-1.0364,-0.9762,-1.2975,-1.3589,-1.3952,-1.4202,-1.4538,-1.5153,-1.6141,-1.6616,-1.7407,-1.9094,-1.9497,-2.0064,-2.116,-2.0387,-2.0317,-2.1475,-2.0708,-2.008,-1.9825,0.0,-1.8967,-1.6471,-1.7387,-1.7036,-1.5155,-1.5403,-1.5694,-1.6013,-1.5266,-1.4527,-1.384,-1.3577,-1.2719,-1.1393,-1.1565,-1.1243,0.0,0.0,0.0,-0.9701,0.0,-0.8661,-1.0746,-0.8309,-0.7993,-0.8939,-1.0059,-1.1391,-1.2724,-1.3607,0.0,-1.5717,-1.5478,-1.568,0.0,0.0,0.0,0.0,0.0,0.0,0.0,0.0,0.0,-1.9428,0.0,0.0,0.0,0.0,0.0,0.0,0.0,0.0,0.0,0.0,0.0,0.0,0.0,0.0,0.0,0.0,0.0,0.0,0.0,0.0,-1.437,-1.5511,-1.5984,-1.6351,-1.6782,-1.7008,-1.7531,-1.8391,-1.865,-1.8496,-1.7947,-1.7947,-1.7463,-1.6522,-1.638,-1.6051,-1.5588,-1.5499,-1.4812,-1.3815,-1.3815,-1.3467,-1.2881,-1.2881,-1.2452,-1.1814,-1.1814,-1.1665,-1.1266,-1.0218,-0.971,-0.951,-1.2928,-1.3363,-1.3729,-1.4015,-1.4092,-1.4405,-1.5386,-1.6135,-1.7483,-2.0056,-2.0579,-2.0962,0.0,0.0,0.0,0.0,0.0,0.0,-1.9615,0.0,-1.7671,-1.6762,-1.7404,-1.6854,-1.489,-1.5215,-1.5299,-1.5051,-1.3966,-1.3288,-1.2949,-1.1918,-1.1332,-1.1012,-1.0386,0.0,0.0,0.0,-1.0684,0.0,-0.927,-0.9781,0.0,-1.0342,-1.0599,-1.1186,-1.2291,-1.2869,-1.325,0.0,-1.522,-1.5501,0.0,-1.5844,0.0,0.0,0.0,0.0,0.0,0.0,0.0,0.0,-1.942,0.0,0.0,0.0,0.0,0.0,0.0,0.0,0.0,0.0,0.0,0.0,0.0,0.0,0.0,0.0,0.0,0.0,0.0,0.0,0.0,0.0,0.0,-1.5522,-1.551,-1.5297,-1.4994,-1.5959,-1.6549,-1.6676,-1.7666,-1.7947,-1.7394,-1.7394,-1.7076,-1.6466,-1.5952,-1.5676,-1.5588,-1.5062,-1.4422,-1.3815,-1.3815,-1.3467,-1.2881,-1.2881,-1.2452,-1.1814,-1.1814,-1.1065,-1.002,-0.9865,-0.9413,-0.891,-1.3644,-1.382,0.0,-1.3837,-1.3822,-1.4134,-1.5112,-1.6949,-1.8633,-1.9645,-2.0539,0.0,0.0,0.0,0.0,0.0,0.0,-1.8492,0.0,0.0,-1.7719,-1.689,0.0,0.0,-1.4728,-1.4859,-1.4688,-1.4057,-1.2659,-1.1761,-1.1298,-1.0421,-1.0101,-1.0132,-0.9477,0.0,-0.9921,0.0,0.0,0.0,0.0,0.0,0.0,-1.0684,-1.1143,-1.2456,-1.3235,-1.3775,-1.4239,0.0,-1.5773,0.0,0.0,0.0,0.0,0.0,0.0,0.0,0.0,0.0,0.0,0.0,0.0,0.0,0.0,0.0,-1.8518,0.0,0.0,0.0,0.0,0.0,0.0,0.0,0.0,0.0,0.0,0.0,0.0,0.0,0.0,0.0,0.0,0.0,0.0,0.0,0.0,-1.5213,-1.4731,-1.5487,-1.6089,-1.6391,-1.7203,-1.7544,-1.7312,-1.6954,-1.6502,-1.5952,-1.5377,-1.4869,-1.4549,-1.4283,-1.3826,-1.3286,-1.3286,-1.3152,-1.2881,-1.2452,-1.1832,-1.1166,-1.0813,-1.0312,-0.9762,-0.9361,-0.9061,-0.8804,-1.3796,0.0,0.0,0.0,-1.3154,-1.3575,-1.4729,-1.7039,-1.8676,0.0,0.0,0.0,-2.1069,-2.0551,0.0,0.0,0.0,-1.742,0.0,0.0,-1.6676,0.0,0.0,0.0,0.0,0.0,-1.4163,-1.3402,-1.2045,-1.1063,-1.0377,-1.0062,-1.004,-1.0235,0.0,-0.9818,-0.999,0.0,0.0,-1.0036,-1.0133,-1.1455,-1.3195,-1.1675,-1.2093,-1.3449,-1.4033,-1.4544,-1.5019,-1.5566,-1.6276,0.0,-1.5486,0.0,0.0,0.0,0.0,0.0,-1.6536,0.0,0.0,0.0,0.0,0.0,0.0,0.0,0.0,0.0,0.0,0.0,0.0,0.0,0.0,0.0,0.0,0.0,0.0,0.0,0.0,0.0,0.0,0.0,0.0,0.0,0.0,0.0,-1.4729,0.0,-1.4222,-1.4778,-1.5342,-1.5915,-1.6532,-1.6925,-1.7076,-1.6489,-1.6003,-1.5588,-1.4824,-1.4236,-1.3768,-1.3637,-1.3334,-1.2881,-1.2666,-1.2608,-1.2559,-1.1823,-1.1116,-1.0466,-1.0012,-0.9666,-0.9465,-0.8956,-0.8804,-0.8804,-1.2893,-1.2766,0.0,0.0,0.0,0.0,0.0,0.0,0.0,0.0,0.0,0.0,0.0,0.0,0.0,0.0,0.0,-1.3742,-1.4428,0.0,-1.3702,0.0,0.0,-1.5202,0.0,0.0,0.0,-1.3113,-1.2413,-1.164,-1.0878,-1.1362,-1.1712,-1.1927,-1.2094,-1.1689,-1.0783,-1.1674,-1.0508,-0.8341,-0.9857,-1.1518,-1.3108,0.0,-1.4337,-1.4296,-1.508,0.0,0.0,-1.6307,-1.6587,0.0,0.0,0.0,0.0,0.0,0.0,0.0,0.0,0.0,0.0,-1.7852,0.0,0.0,0.0,0.0,-1.8182,0.0,0.0,0.0,0.0,0.0,-1.4506,-1.4369,0.0,0.0,0.0,0.0,0.0,0.0,0.0,0.0,0.0,0.0,0.0,-1.361,-1.3581,-1.3371,-1.2998,-1.3552,-1.4143,-1.4744,-1.532,-1.5952,-1.6522,-1.5908,-1.5632,-1.5588,-1.4411,-1.3815,-1.3779,-1.32,-1.2929,-1.2871,-1.2129,-1.1814,-1.1765,-1.1116,-1.0415,-0.9814,-0.9814,-0.9413,-0.8804,-0.8811,-0.8804,-0.8804,0.0,0.0,0.0,0.0,0.0,0.0,0.0,-1.5871,0.0,0.0,0.0,0.0,0.0,0.0,-1.7973,0.0,0.0,-1.4561,-1.3933,-1.4687,0.0,0.0,0.0,-1.5351,0.0,0.0,0.0,0.0,0.0,-1.1368,-1.1453,-1.09,-1.1028,-1.1729,0.0,-1.0073,0.0,0.0,0.0,0.0,0.0,-1.2276,-1.4052,0.0,0.0,-1.505,-1.5294,-1.541,0.0,-1.5694,-1.5811,-1.5674,-1.4967,-1.4647,-1.438,-1.3881,-1.3586,0.0,0.0,0.0,-1.4923,-1.6564,0.0,0.0,0.0,0.0,0.0,0.0,0.0,0.0,0.0,0.0,-1.4155,-1.3507,-1.3394,0.0,0.0,0.0,0.0,0.0,0.0,0.0,0.0,0.0,0.0,-1.2404,-1.2398,-1.2544,0.0,-1.3064,-1.3464,-1.4097,-1.5084,-1.5499,-1.5287,-1.5107,-1.4778,-1.4411,-1.36,-1.319,-1.319,-1.2491,-1.2178,-1.2129,-1.1425,-1.1166,-1.1065,-1.0415,-1.0012,-0.9762,-0.9309,-0.9008,-0.8804,-0.8804,-0.8804,-0.8646,-0.9987,0.0,0.0,0.0,0.0,0.0,0.0,0.0,0.0,0.0,-1.7969,0.0,-1.8701,0.0,-1.7932,0.0,-1.593,-1.5071,-1.42,-1.4757,0.0,-1.1444,-1.417,0.0,0.0,0.0,0.0,0.0,0.0,-1.1804,-1.181,-1.1243,-1.1449,-1.2254,0.0,-1.0437,-0.9664,0.0,-0.9159,0.0,0.0,-1.2791,0.0,0.0,-1.5181,-1.59,0.0,-1.541,-1.5352,-1.505,-1.4984,-1.4781,-1.3675,-1.3386,-1.3327,-1.2683,-1.2549,-1.2716,-1.3176,-1.3193,0.0,-1.5119,-1.5164,0.0,-1.6516,0.0,0.0,0.0,0.0,0.0,0.0,0.0,0.0,-1.2763,-1.2571,-1.2233,0.0,-1.0934,0.0,0.0,0.0,0.0,0.0,0.0,-1.1266,-1.1366,-1.1366,-1.1575,0.0,0.0,-1.2531,-1.3416,-1.4193,-1.4619,-1.4698,-1.4468,-1.419,-1.3779,-1.32,-1.2774,-1.2501,-1.203,-1.1665,-1.1416,-1.0762,-1.0415,-1.0415,-0.971,-0.9465,-0.9413,-0.8962,-0.8804,-0.8804,-0.8804,-0.8646,-0.8209,0.0,0.0,0.0,0.0,-1.2687,0.0,0.0,0.0,-1.6357,0.0,-1.7123,-1.8192,-1.8289,-1.7717,-1.7394,-1.7368,-1.5832,0.0,-1.4788,-1.4972,0.0,0.0,-1.2195,-1.1751,-0.8249,0.0,0.0,0.0,0.0,0.0,-1.2088,-1.2499,-1.2875,-1.3398,-1.3822,0.0,-1.011,-1.1242,-1.0343,-0.8409,-1.1618,-1.3025,-1.3241,-1.4765,0.0,-1.6789,-1.5723,-1.5352,-1.5235,-1.4392,-1.4085,-1.3786,-1.2258,-1.1764,-1.1586,-1.0807,-1.0624,-1.0744,-1.1531,-1.2058,-1.2655,-1.3571,0.0,0.0,0.0,0.0,-1.5013,0.0,0.0,0.0,0.0,0.0,0.0,-1.2327,-1.2078,-1.1484,-0.9889,0.0,0.0,0.0,0.0,0.0,0.0,-1.0151,-1.0261,-1.0509,-1.0517,-1.061,0.0,0.0,-1.1375,-1.2725,-1.2793,-1.3426,-1.4606,-1.405,-1.3779,-1.3732,-1.3142,-1.2501,-1.1814,-1.1715,-1.1366,-1.0712,-1.0064,-0.9762,-0.9718,-0.9061,-0.8804,-0.8804,-0.8804,-0.8804,-0.8804,-0.8804,-0.8315,-0.7557,-0.9989,-1.074,-1.164,0.0,-1.3044,-1.3746,0.0,0.0,0.0,0.0,-1.6034,-1.6001,-1.5143,-1.4899,-1.4456,-1.3471,-1.3495,0.0,0.0,0.0,0.0,-0.9932,-1.251,-1.2428,-0.899,-1.1464,0.0,-1.1952,0.0,0.0,-1.3012,-1.2668,-1.2534,-1.2631,0.0,0.0,-0.9685,-1.1088,-1.1041,-1.0034,-1.1524,-1.2939,0.0,0.0,-1.5191,-1.5987,-1.4916,-1.451,-1.4392,-1.3606,-1.2931,-1.232,-1.195,-1.1413,-1.0863,-1.0681,-1.0624,-1.0624,-1.0863,-1.0982,-1.1346,-1.2515,-1.2562,-1.2613,0.0,0.0,0.0,0.0,0.0,0.0,0.0,0.0,0.0,0.0,-1.1391,0.0,0.0,0.0,0.0,0.0,0.0,0.0,0.0,-0.9285,-0.9636,-0.9688,-0.9636,-0.9894,0.0,0.0,0.0,-1.2012,-1.2729,-1.3155,-1.3344,-1.3637,-1.3552,-1.3104,-1.2433,-1.1972,-1.1765,-1.0771,-1.0218,-1.0012,-0.9361,-0.9061,-0.9061,-0.8857,-0.8804,-0.8804,-0.8804,-0.8804,-0.8804,-0.8804,-0.799,-0.6858,-1.0103,0.0,0.0,-1.2261,0.0,0.0,-1.4426,0.0,0.0,-1.6231,-1.5831,0.0,-1.4613,-1.3674,-1.2678,-1.1905,-1.2505,0.0,0.0,0.0,0.0,-1.1579,-1.2454,-1.1725,-0.9013,-1.0495,0.0,-1.1546,0.0,0.0,-1.3118,-1.2619,-1.2448,-1.254,0.0,-1.1718,0.0,-1.1111,-1.1262,-1.1242,-1.1789,0.0,0.0,-1.3889,-1.4382,-1.4923,-1.3622,-1.3364,-1.3545,-1.2757,-1.2197,-1.1772,-1.1413,-1.0989,-1.0624,-1.0624,-1.0624,-1.0624,-1.0624,-1.0624,-1.0785,-1.1454,-1.1368,-1.1409,-1.2453,-1.2476,-1.222,0.0,0.0,0.0,0.0,0.0,0.0,0.0,0.0,0.0,0.0,0.0,0.0,0.0,0.0,0.0,0.0,0.0,-0.8045,-0.811,-0.7966,-0.8172,0.0,0.0,0.0,-1.0772,-1.2078,-1.2856,-1.3154,-1.3851,-1.3789,-1.2908,-1.2459,-1.1886,-1.1104,-1.0339,-0.9798,-0.9309,-0.8633,-0.8321,-0.8321,-0.7996,-0.8049,-0.8321,-0.8321,-0.8321,-0.8262,-0.7937,-0.7289,-0.6534,0.0,0.0,0.0,0.0,0.0,0.0,0.0,-1.5409,0.0,-1.6497,0.0,-1.4893,-1.4702,-1.2893,-1.1564,-1.1248,0.0,-1.3237,-1.4389,-1.3964,-1.3655,-1.3742,-1.227,-1.0524,-0.8639,-0.9211,0.0,0.0,0.0,0.0,-1.2619,-1.2448,-1.2448,-1.2619,0.0,0.0,0.0,-1.1091,-1.1095,0.0,-1.2079,-1.2436,-1.2858,-1.3279,-1.3625,-1.3717,-1.232,-1.2266,-1.2704,-1.1896,-1.1648,-1.1531,-1.0807,-1.0491,-1.0434,-1.0561,-1.0491,-1.0428,-1.0561,-1.0624,-1.0624,-1.0624,-1.0624,-1.0744,-1.124,-1.1358,-1.1358,-1.1358,-1.1849,-1.1903,0.0,0.0,0.0,0.0,0.0,0.0,0.0,0.0,0.0,0.0,0.0,0.0,0.0,0.0,0.0,0.0,-0.624,0.0,0.0,0.0,0.0,-0.957,-1.1198,0.0,-1.3682,0.0,-1.4136,-1.2994,-1.2831,-1.1885,-1.0314,-1.0206,-0.966,-0.8752,-0.8103,-0.7777,-0.767,-0.702,-0.7074,-0.7563,-0.7563,-0.7563,-0.745,-0.675,-0.648,-0.6367,0.0,0.0,0.0,0.0,0.0,-1.1749,-1.2395,-1.2567,-1.2664,-1.2703,-1.265,0.0,-1.1058,-1.0578,-0.9824,-0.8586,-1.0282,0.0,0.0,0.0,0.0,-1.2976,-1.2716,-1.1347,-0.884,-1.0542,-1.0887,0.0,0.0,0.0,-1.2448,-1.2186,-1.21,-1.2112,0.0,0.0,-1.1367,-1.0599,0.0,-1.0931,-1.1819,-1.2119,-1.2112,-1.3027,-1.2939,-1.2197,-1.1888,-1.1888,-1.1896,-1.1108,-1.08,-1.0807,-1.0624,-1.011,-0.9658,-1.0364,-1.011,-0.9658,-1.0428,-1.0624,-1.0624,-1.0624,-1.0624,-1.0624,-1.0744,-1.0744,-1.0744,-1.0744,-1.087,-1.0926,-1.0996,0.0,0.0,0.0,0.0,0.0,0.0,0.0,0.0,0.0,0.0,0.0,0.0,0.0,0.0,0.0,0.0,0.0,0.0,0.0,0.0,0.0,0.0,0.0,0.0,0.0,-1.3948,-1.3462,-1.25,-1.1438,-1.026,-0.9666,-0.9187,-0.8804,-0.8646,-0.8268,-0.767,-0.7563,-0.7235,-0.6804,-0.6804,-0.6804,-0.6696,-0.5977,-0.5706,-0.5651,0.0,0.0,0.0,0.0,0.0,0.0,0.0,-1.0023,0.0,-1.2411,-1.194,-1.1332,-1.084,-0.9608,-0.8534,-0.7808,-0.9675,-1.0736,-1.0303,-1.224,-1.322,-1.2842,-1.2132,0.0,-1.017,-1.0207,-1.0458,-1.0864,0.0,0.0,-1.2881,-1.2448,-1.21,-1.2009,0.0,-1.1609,0.0,0.0,0.0,-1.129,-1.1504,-1.1688,-1.1802,-1.2082,-1.2,-1.1772,-1.1351,-1.1163,-1.1108,-1.0744,-1.0624,-1.0491,-1.0047,-0.9658,-0.9274,-0.9262,-0.8935,-0.8742,-0.9128,-0.9256,-0.9256,-0.9256,-0.9256,-0.9256,-0.9256,-0.9256,-0.9297,-0.9367,-0.9331,-0.9396,-0.9587,-0.9384,0.0,0.0,0.0,0.0,0.0,0.0,0.0,0.0,0.0,0.0,0.0,0.0,0.0,0.0,0.0,0.0,0.0,0.0,0.0,0.0,0.0,0.0,0.0,0.0,0.0,-1.3279,-1.2319,-1.1297,-1.02,-0.9704,-0.9305,-0.8971,-0.8051,-0.7456,-0.7074,-0.674,-0.6145,-0.5555,-0.5873,-0.6036,-0.5928,-0.5218,-0.5218,-0.5433,0.0,-0.987,0.0,0.0,-0.9214,0.0,0.0,-0.8238,-0.9008,-1.1889,-1.1215,-1.0542,-1.0724,-0.8975,-0.779,-0.7614,-0.94,-1.026,-0.9829,-1.1688,-1.2635,-1.205,-1.1433,-1.0991,-1.0805,-0.9742,-0.9936,0.0,0.0,0.0,0.0,-1.2546,0.0,0.0,0.0,0.0,0.0,0.0,-1.1201,-1.1557,-1.1156,-1.1189,-1.1505,-1.1129,-1.1247,-1.1469,-1.0807,-1.0624,-1.0561,-1.0371,-1.0301,-1.0174,-0.953,-0.9075,-0.8678,-0.8156,-0.7897,-0.7762,-0.7962,-0.8027,-0.8027,-0.8027,-0.8027,-0.8027,-0.8027,-0.8027,-0.8012,-0.8122,-0.8198,-0.8175,-0.822,-0.8157,0.0,0.0,0.0,0.0,0.0,0.0,0.0,0.0,0.0,0.0,0.0,0.0,0.0,0.0,0.0,0.0,0.0,0.0,0.0,0.0,0.0,-1.299,-1.3821,0.0,-1.4197,0.0,-1.2421,-1.1363,-1.0107,-0.988,-0.9613,-0.9207,-0.7638,-0.6754,-0.6385,-0.5648,-0.5012,-0.4574,-0.5096,-0.5305,-0.5218,-0.4677,-0.4842,-0.5218,0.0,0.0,0.0,0.0,0.0,0.0,0.0,-0.8238,-0.8134,-0.8425,-0.8428,-0.8329,-0.8329,-0.812,-0.7906,-0.7624,-0.8687,-0.911,-0.84,-1.0444,-1.1032,-0.9727,-1.126,-1.1143,-0.8915,-1.0378,-1.0327,0.0,0.0,0.0,0.0,0.0,0.0,0.0,0.0,0.0,0.0,-1.0779,-1.1069,-1.0766,-1.0909,-1.088,-1.0715,-1.0947,-1.088,-1.0681,-1.0624,-1.0624,-1.0498,-0.9658,-0.9402,-0.9402,-0.9338,-0.8221,-0.7111,-0.7767,-0.7437,-0.6981,-0.7762,-0.8027,-0.8027,-0.8027,-0.8027,-0.8027,-0.8027,-0.8027,-0.8032,-0.7987,-0.8087,-0.822,-0.8339,-0.7751,-0.7136,0.0,0.0,0.0,0.0,0.0,0.0,0.0,0.0,0.0,0.0,0.0,0.0,0.0,0.0,0.0,0.0,0.0,0.0,-0.8393,0.0,-1.1859,-1.4488,-1.4342,0.0,-1.3551,-1.3096,-1.1913,-1.0114,-1.0087,-0.992,-0.9582,-0.8655,-0.7349,-0.5817,-0.5229,-0.4769,-0.4532,-0.4727,-0.4695,-0.457,-0.4515,-0.4519,-0.457,0.0,0.0,0.0,0.0,0.0,0.0,0.0,-0.81,-0.8038,-0.8038,-0.8038,-0.8038,-0.8038,-0.8452,-0.8475,-0.7701,-0.9146,-0.9575,-0.8279,-0.97,-1.0148,-0.9316,-0.9898,-0.9952,-0.9399,-0.9941,-0.9935,0.0,0.0,0.0,0.0,0.0,0.0,0.0,0.0,-0.9176,-0.8398,-0.9635,-1.0049,-0.9798,-0.9903,-0.9885,-0.9798,-0.9374,-0.915,-0.9064,-0.9064,-0.9064,-0.9,-0.8613,-0.8877,-0.9139,-0.8091,-0.7242,-0.6654,-0.647,-0.6207,-0.6009,-0.6338,-0.647,-0.647,-0.647,-0.647,-0.6432,-0.6542,-0.6566,-0.6627,-0.6768,-0.6957,-0.7074,-0.6956,-0.6807,-0.6569,0.0,0.0,0.0,0.0,0.0,0.0,0.0,0.0,0.0,0.0,0.0,0.0,0.0,0.0,0.0,0.0,0.0,0.0,-0.7517,0.0,-1.1475,-1.3646,-1.3066,-1.2944,-1.3215,-1.2096,-1.1169,-1.0374,-1.02,-0.9402,-0.8181,-0.7354,-0.6305,-0.5244,-0.5012,-0.4796,-0.4673,-0.4735,-0.467,-0.4484,-0.4484,-0.4482,-0.4492,-0.6683,0.0,-0.8383,0.0,-0.8445,-0.8311,-0.8024,-0.8038,-0.8038,-0.8038,-0.8038,-0.8038,-0.8038,-0.8475,-0.8475,-0.7695,-0.8833,-0.906,-0.7863,-0.8756,-0.9207,-0.8861,-0.9143,0.0,-1.0061,-1.0021,-0.9876,-0.957,-1.025,0.0,0.0,0.0,0.0,0.0,-0.8485,-0.8204,-0.7926,-0.863,-0.8941,-0.8941,-0.8941,-0.8941,-0.8877,-0.8226,-0.8027,-0.8027,-0.8027,-0.8027,-0.7962,-0.7697,-0.8027,-0.8291,-0.7111,-0.6523,-0.6203,-0.5554,-0.5428,-0.5428,-0.5428,-0.5428,-0.5428,-0.5428,-0.5428,-0.5403,-0.5555,-0.5589,-0.5674,-0.5969,-0.6115,-0.6173,-0.6108,-0.617,-0.6228,-0.6037,0.0,0.0,0.0,0.0,0.0,0.0,0.0,-0.5366,-0.5404,0.0,0.0,0.0,0.0,0.0,0.0,0.0,0.0,0.0,0.0,0.0,0.0,-1.2127,-1.2081,-1.2634,-1.1476,-1.0674,-1.0231,-0.9706,-0.8634,-0.7115,-0.645,-0.5755,-0.4986,-0.5033,-0.4945,-0.4775,-0.4352,-0.4036,-0.3809,-0.3809,-0.3809,-0.382,-0.2515,-0.5734,-0.8468,-0.8072,-0.8052,-0.8038,-0.8038,-0.8038,-0.8038,-0.8038,-0.8038,-0.8038,-0.8038,-0.7902,-0.7753,-0.7611,-0.7319,-0.7014,-0.6719,-0.7515,-0.7969,0.0,0.0,-1.0401,-1.0401,-1.107,-1.0374,-0.8425,0.0,0.0,-0.7321,0.0,-1.0098,-0.9765,-0.9759,-0.9135,-0.7967,-0.8027,-0.8027,-0.8027,-0.8027,-0.8027,-0.8027,-0.8027,-0.8027,-0.8027,-0.8027,-0.8027,-0.7897,-0.6981,-0.6719,-0.6719,-0.6719,-0.6141,-0.5428,-0.5428,-0.5428,-0.5428,-0.5428,-0.5428,-0.5428,-0.5428,-0.5428,-0.5403,-0.5555,-0.5589,-0.5674,-0.5969,-0.603,-0.6078,-0.623,-0.6335,-0.6207,-0.6054,0.0,0.0,0.0,0.0,0.0,0.0,-0.544,-0.5153,-0.5994,0.0,0.0,0.0,0.0,0.0,0.0,0.0,0.0,-0.7877,-0.893,0.0,-1.1992,-1.1866,-1.1834,-1.1826,-1.1764,-1.0899,-0.9274,-0.8415,-0.7562,-0.6711,-0.6711,-0.6096,-0.5142,-0.5304,-0.5135,-0.4684,-0.3258,-0.2531,-0.2225,-0.2225,-0.2225,-0.2237,-0.0805,-0.1809,-0.3817,-0.7359,-0.7965,-0.7959,-0.8041,-0.8038,-0.8038,-0.8038,-0.8038,-0.7997,-0.7896,-0.8409,-0.8434,0.0,-0.7952,-0.775,0.0,-0.6877,-0.7133,-0.7443,-0.8476,-0.9281,-0.9748,-1.0693,-1.011,-0.8128,0.0,0.0,0.0,-0.9437,-0.9314,-0.7702,-0.8307,-0.7702,-0.6276,-0.7507,-0.7632,-0.7111,-0.7111,-0.7111,-0.7046,-0.647,-0.621,-0.621,-0.621,-0.621,-0.621,-0.5881,-0.5815,-0.5815,-0.5815,-0.562,-0.5428,-0.5428,-0.5428,-0.5428,-0.5428,-0.5428,-0.5428,-0.5428,-0.544,-0.5555,-0.5701,-0.5898,-0.6074,-0.6169,-0.6186,-0.6203,-0.6251,-0.6338,-0.621,-0.6054,-0.603,0.0,0.0,0.0,0.0,0.0,0.0,-0.5292,0.0,-0.5359,0.0,0.0,0.0,0.0,0.0,0.0,0.0,0.0,-0.8461,0.0,-1.2484,-1.185,-1.168,-1.2037,-1.1687,-1.0855,-0.9638,-0.7986,-0.7118,-0.6781,-0.6264,-0.5773,-0.5304,-0.5365,-0.5349,-0.5181,-0.4731,-0.2939,-0.0729,-0.0729,-0.0677,-0.0813,-0.0,-0.0,-0.1106,-0.4422,-0.6651,-0.7975,-0.7962,-0.7955,-0.7952,-0.7952,-0.7994,-0.7896,-0.7746,-0.8247,0.0,-0.7471,-0.7733,-0.7628,-0.6788,-0.6903,-0.7277,-0.7859,-0.8588,-0.9425,-1.0411,0.0,0.0,-0.8945,-0.9221,-0.9087,-0.8594,-0.943,-0.9089,-0.7744,-0.7932,-0.7227,-0.6041,-0.6768,-0.6726,-0.621,-0.6277,-0.6262,-0.6137,-0.5624,-0.5428,-0.5428,-0.5428,-0.5428,-0.5428,-0.5428,-0.5428,-0.5428,-0.5428,-0.5428,-0.5428,-0.5428,-0.5428,-0.5428,-0.5428,-0.5428,-0.5428,-0.5428,-0.5477,-0.5644,-0.584,-0.6084,-0.6268,-0.6264,-0.6264,-0.6268,-0.6338,-0.6213,-0.6142,-0.6044,-0.5983,-0.5911,-0.5817,0.0,0.0,0.0,0.0,0.0,0.0,-0.5238,0.0,0.0,0.0,0.0,0.0,0.0,0.0,-0.7981,-0.8752,0.0,-1.2351,-1.1758,-1.1594,-1.186,-1.0834,-0.9811,-0.8824,-0.7229,-0.6456,-0.6402,-0.5876,-0.559,-0.5379,-0.5396,-0.5422,-0.5274,-0.3903,-0.198,-0.0,-0.0,-0.0,-0.0129,-0.0,-0.0,0.0,0.0,-0.4126,0.0,-0.7682,-0.7675,-0.7769,-0.7972,-0.7923,-0.7756,-0.7614,-0.7461,-0.7363,-0.7343,0.0,0.0,0.0,-0.7344,-0.8045,-0.8709,-0.9504,-1.0481,-1.1804,-1.1577,-1.1166,-1.0569,-0.922,-0.8809,-0.9327,-0.9391,-0.9503,-0.9493,-0.8472,-0.7626,-0.6852,-0.5989,-0.5501,-0.5442,-0.5528,-0.5498,-0.5428,-0.5428,-0.5428,-0.5428,-0.5428,-0.5428,-0.5428,-0.5428,-0.5428,-0.5428,-0.5428,-0.5428,-0.5428,-0.5428,-0.5428,-0.5428,-0.5428,-0.5435,-0.5446,-0.5446,-0.5501,-0.5694,-0.5983,-0.6169,-0.6274,-0.6183,-0.6268,-0.6274,-0.6264,-0.6135,-0.6027,-0.6017,-0.5884,-0.5783,-0.5772,0.0,0.0,0.0,0.0,0.0,0.0,-0.502,-0.5111,0.0,0.0,0.0,0.0,0.0,-0.681,-0.8604,-0.9416,-1.0401,-1.1826,-1.1407,-1.1276,-1.1201,-0.941,-0.8009,-0.7115,-0.6248,-0.5745,-0.562,-0.5696,-0.5535,-0.5189,-0.5065,-0.5001,-0.4718,-0.1308,-0.0,-0.0,-0.0,-0.0,-0.0,0.0,0.0,-0.0,-0.0,-0.1005,-0.2613,-0.4624,-0.4924,-0.5732,-0.7769,-0.7835,-0.7681,-0.7617,-0.7461,-0.7278,-0.7051,-0.6831,-0.6651,-0.6532,-0.708,-0.7759,-0.8487,-0.9416,-1.0305,-1.1202,-1.157,-1.1365,-1.0569,-1.0026,-0.9771,-0.9923,-1.0602,-1.0459,-0.9644,-0.8703,-0.7745,-0.6664,-0.5942,-0.5501,-0.5442,-0.5528,-0.5498,-0.5428,-0.5428,-0.5428,-0.5428,-0.5428,-0.5428,-0.5428,-0.5428,-0.5428,-0.5428,-0.5428,-0.5428,-0.5428,-0.5428,-0.5428,-0.5428,-0.5428,-0.5447,-0.5535,-0.5535,-0.5739,-0.5986,-0.6176,-0.6257,-0.5967,-0.4924,-0.5556,-0.6274,-0.6264,-0.6135,-0.5989,-0.5874,-0.5735,-0.5599,-0.5484,-0.5437,0.0,0.0,-0.5471,-0.5448,-0.5448,-0.5448,-0.5126,0.0,0.0,0.0,0.0,-0.4991,-0.5962,-0.7628,-0.8079,-0.9155,-1.107,-1.0199,-0.9807,-0.9802,-0.8217,-0.7513,-0.7568,-0.647,-0.5959,-0.5922,-0.5833,-0.4838,-0.3245,-0.1832,-0.128,-0.1212,-0.0334,-0.0,-0.0,-0.0,-0.0,-0.0,-0.0,-0.0,-0.0,-0.0,-0.0,-0.0504,-0.1912,-0.2211,-0.2703,-0.4171,-0.6363,-0.7794,-0.7633,-0.7377,-0.719,-0.7046,-0.6793,-0.6634,-0.6481,-0.7173,-0.7829,-0.8561,-0.9548,-1.0557,-1.1396,-1.1703,-1.1585,-1.0955,-1.093,-1.0792,-1.0541,-1.109,-1.0923,-0.999,-0.9456,-0.8363,-0.7047,-0.6663,-0.608,-0.5481,-0.5627,-0.5555,-0.5428,-0.5428,-0.5428,-0.5428,-0.5428,-0.5428,-0.5428,-0.5428,-0.5428,-0.5428,-0.5428,-0.5428,-0.5428,-0.5428,-0.5428,-0.5442,-0.5447,-0.5528,-0.5623,-0.5755,-0.5922,-0.6088,-0.6244,-0.6295,-0.5905,-0.4455,-0.5323,-0.6281,-0.6264,-0.6078,-0.5898,-0.5817,-0.5326,-0.5117,-0.5382,-0.5081,0.0,-0.5597,-0.5688,-0.5715,-0.5783,-0.5789,-0.548,-0.4711,0.0,0.0,-0.4867,-0.5213,-0.604,-0.7339,-0.7626,-0.8537,-1.0115,-0.9599,-0.9069,-0.8613,-0.7799,-0.7289,-0.7096,-0.6398,-0.6098,-0.6034,-0.5983,-0.524,-0.3707,-0.1104,-0.0,-0.0,-0.0,-0.0,-0.0,-0.0,-0.0,-0.0,-0.0,-0.0,-0.0,-0.0,-0.0,-0.0,-0.0,-0.0,-0.0,-0.0,-0.3947,-0.6826,-0.706,-0.6722,-0.6753,-0.7056,-0.6912,-0.6664,-0.6485,-0.7239,-0.7961,-0.8583,-0.9746,-1.0767,-1.165,-1.1839,-1.181,-1.1557,-1.181,-1.1677,-1.1196,-1.1443,-1.1237,-1.0611,-1.0331,-0.9335,-0.7888,-0.7625,-0.6857,-0.5807,-0.5813,-0.5627,-0.5428,-0.5428,-0.5428,-0.5428,-0.5428,-0.5428,-0.5428,-0.5428,-0.5428,-0.5432,-0.5456,-0.5449,-0.5432,-0.5456,-0.5396,-0.5423,-0.5555,-0.5623,-0.5725,-0.6,-0.6078,-0.6125,-0.6257,-0.5827,-0.5121,-0.4222,-0.5249,-0.6288,-0.6264,-0.601,-0.5738,-0.5686,-0.4965,-0.4617,-0.5138,0.0,-0.4792,-0.5711,-0.5823,-0.5888,-0.6017,-0.603,-0.5925,-0.5674,-0.5745,-0.5769,0.0,-0.5908,-0.6406,-0.7315,-0.7471,-0.8012,-0.8841,-0.8993,-0.8537,-0.7553,-0.7553,-0.7099,-0.6338,-0.6338,-0.6196,-0.6002,-0.5849,-0.5549,-0.481,-0.1406,-0.0,-0.0,-0.0,-0.0,-0.0,-0.0,-0.0,-0.0,-0.0,-0.0,-0.0,-0.0,-0.0,-0.0,-0.0,-0.0,-0.0,-0.0,-0.0769,-0.2075,-0.4342,-0.4342,-0.4968,-0.69,-0.7042,-0.6894,-0.6495,-0.7046,-0.7442,-0.7556,-0.9378,-1.0479,-1.0623,-1.1661,-1.2211,-1.2164,-1.2211,-1.2191,-1.2098,-1.2144,-1.1985,-1.165,-1.0885,-1.0189,-0.9606,-0.8152,-0.7284,-0.6829,-0.6093,-0.5627,-0.5428,-0.5428,-0.5428,-0.5428,-0.5428,-0.5428,-0.5428,-0.5428,-0.5428,-0.5452,-0.5515,-0.5464,-0.5452,-0.5515,-0.5555,-0.5559,-0.5583,-0.5779,-0.602,-0.6193,-0.6264,-0.6291,-0.6315,-0.3538,-0.1412,-0.2969,-0.4857,-0.6288,-0.6264,-0.601,-0.5623,-0.5072,-0.509,-0.5023,-0.4565,0.0,-0.5501,-0.5786,-0.5915,-0.6003,-0.6027,-0.603,-0.601,-0.5966,-0.5864,-0.5905,-0.6146,-0.6078,-0.6163,-0.6447,-0.6553,-0.6644,-0.6795,-0.7629,-0.7553,-0.6567,-0.6567,-0.6412,-0.6338,-0.6338,-0.6247,-0.6143,-0.4344,-0.3567,-0.3247,-0.0991,-0.0,-0.0,-0.0,-0.0,-0.0,-0.0,-0.0,-0.0,-0.0,-0.0,-0.0,-0.0,-0.0,-0.0,-0.0,-0.0,-0.0,-0.0,-0.0,-0.047,-0.1732,-0.2852,-0.4563,-0.691,-0.5966,-0.5146,-0.4942,-0.6103,-0.7,-0.7576,-0.8463,-0.9506,-1.0607,-1.1704,-1.2225,-1.2064,-1.2225,-1.2225,-1.2064,-1.2064,-1.2084,-1.2091,-1.1572,-1.1006,-1.0376,-0.902,-0.8001,-0.7241,-0.6233,-0.5674,-0.5477,-0.5459,-0.5428,-0.5428,-0.5428,-0.5428,-0.5428,-0.5428,-0.5428,-0.5456,-0.5542,-0.5484,-0.5459,-0.5545,-0.5654,-0.5668,-0.5813,-0.6006,-0.5883,-0.4838,-0.5427,-0.6329,-0.6329,-0.3066,-0.0627,-0.2656,-0.4779,-0.6288,-0.6264,-0.6078,-0.5798,-0.5492,-0.5209,0.0,0.0,-0.5065,-0.5259,-0.5835,-0.5986,-0.6061,-0.6146,-0.6159,-0.6129,-0.6044,-0.6057,-0.6095,-0.6003,-0.6093,-0.6207,-0.6278,-0.6268,-0.6338,-0.6338,-0.6795,-0.6795,-0.6338,-0.6338,-0.6338,-0.6338,-0.6338,-0.6268,-0.6274,-0.5271,-0.3495,-0.1334,-0.0362,-0.0,-0.0,-0.0,-0.0,-0.0,-0.0,0.1474,0.336,-0.0,-0.0,-0.0,-0.0,-0.0,-0.0,-0.0,-0.0,-0.0,-0.0,-0.0,-0.0,-0.0,-0.1673,-0.3478,-0.5321,-0.4279,-0.359,-0.3568,-0.5283,-0.6672,-0.7415,-0.771,-0.8761,-1.0783,-1.1545,-1.1965,-1.1971,-1.2191,-1.2184,-1.1971,-1.1971,-1.2091,-1.2291,-1.1847,-1.1345,-1.0714,-0.9442,-0.8416,-0.7405,-0.6292,-0.5718,-0.5572,-0.542,-0.5428,-0.5428,-0.5428,-0.5428,-0.5428,-0.5428,-0.5428,-0.5393,-0.5545,-0.5562,-0.5536,-0.5624,-0.5641,-0.5653,-0.5935,-0.6173,-0.5902,-0.4231,-0.4321,-0.481,-0.481,-0.2357,-0.0627,-0.2656,-0.488,-0.6421,-0.6315,-0.6186,-0.6019,-0.5822,0.0,0.0,0.0,-0.5201,-0.517,-0.5946,-0.6067,-0.6139,-0.6257,-0.6278,-0.5996,-0.5339,-0.5431,-0.5452,-0.5202,-0.5443,-0.5575,-0.5575,-0.6038,-0.6251,-0.621,-0.621,-0.621,-0.6207,-0.6207,-0.6227,-0.6338,-0.6264,-0.6274,-0.6291,-0.6302,-0.4496,-0.136,-0.037,-0.0,-0.0,-0.0,-0.0,-0.0,-0.0,0.2073,0.493,-0.0,-0.0,-0.0,-0.0,-0.0,-0.0,-0.0,-0.0,-0.0,-0.0,-0.0,-0.0,-0.0,-0.0176,-0.0348,-0.0522,-0.2387,-0.3586,-0.3587,-0.5308,-0.6304,-0.644,-0.7334,-0.8761,-1.0783,-1.0858,-1.1378,-1.2271,-1.2291,-1.2291,-1.2271,-1.2271,-1.2278,-1.2224,-1.1298,-1.0846,-1.0634,-0.8761,-0.7744,-0.7405,-0.6292,-0.5718,-0.5572,-0.542,-0.5428,-0.5428,-0.5428,-0.5428,-0.5428,-0.5428,-0.5369,-0.5403,-0.5628,-0.5719,-0.5769,-0.579,-0.5593,-0.552,-0.5864,-0.6183,-0.6247,-0.6087,-0.3224,-0.0471,-0.0471,-0.0236,-0.0627,-0.2656,-0.5026,-0.6662,-0.6544,-0.6339,-0.6051,-0.5382,0.0,0.0,-0.4941,-0.5495,-0.5959,-0.5969,-0.6183,-0.6278,-0.6291,-0.6295,-0.5491,-0.3428,-0.3355,-0.3355,-0.3272,-0.3355,-0.3359,-0.3359,-0.5254,-0.622,-0.5989,-0.5989,-0.6057,-0.6047,-0.6047,-0.6122,-0.6338,-0.6271,-0.6278,-0.6281,-0.6312,-0.616,-0.556,-0.1587,-0.0,-0.0,-0.0,-0.0,-0.0,-0.0,0.0226,0.105,-0.0,-0.0,-0.0,-0.0,-0.0,-0.0,-0.0,-0.0,-0.0,-0.0,-0.0,-0.0,-0.0,-0.0,-0.0,-0.0,-0.0818,-0.1367,-0.1354,-0.319,-0.4925,-0.6203,-0.7257,-0.8161,-0.8908,-0.9966,-1.0851,-1.1391,-1.182,-1.2124,-1.2298,-1.2118,-1.1827,-1.1385,-1.0765,-1.0273,-0.9744,-0.8385,-0.774,-0.7572,-0.6332,-0.5769,-0.5694,-0.5454,-0.5432,-0.5372,-0.5372,-0.5376,-0.5382,-0.5382,-0.5386,-0.5209,-0.4158,-0.3885,-0.3889,-0.3844,-0.4599,-0.5507,-0.603,-0.4295,-0.2357,-0.2357,-0.1178,-0.0,-0.0,-0.0,-0.0236,-0.1037,-0.4114,-0.6715,-0.6706,-0.658,-0.6471,-0.6194,0.0,-0.6163,-0.5921,-0.6089,-0.572,-0.4394,-0.4278,-0.4304,-0.4304,-0.5509,-0.5993,-0.5115,-0.2665,-0.1175,-0.1175,-0.2431,-0.3061,-0.3061,-0.3929,-0.4271,-0.4227,-0.5298,-0.5868,-0.5848,-0.6094,-0.6249,-0.6311,-0.6325,-0.6298,-0.6312,-0.6325,-0.4784,-0.2245,-0.0686,-0.0,-0.0,-0.0,-0.0,-0.0,-0.0,0.0832,0.2102,-0.0,-0.0,-0.0,-0.0,-0.0,-0.0,-0.0,-0.0,-0.0,-0.0,-0.0,-0.0,-0.0,-0.0,-0.0,-0.0,-0.0,-0.0,-0.0,-0.1951,-0.4055,-0.6203,-0.6957,-0.7452,-0.7694,-0.8886,-0.9907,-1.0745,-1.1232,-1.1795,-1.2298,-1.1801,-1.129,-1.0777,-0.9939,-0.9293,-0.8765,-0.7783,-0.7326,-0.7218,-0.6215,-0.5803,-0.5847,-0.5549,-0.5372,-0.5316,-0.4767,-0.4567,-0.4573,-0.4573,-0.4916,-0.5212,-0.3917,-0.2776,-0.1975,-0.2507,-0.3993,-0.5515,-0.6132,-0.3226,-0.0,-0.0,-0.0,-0.0,-0.0,-0.0,-0.0,-0.0,-0.2462,-0.5087,-0.6528,-0.679,-0.6776,-0.6773,-0.6644,-0.6536,-0.6592,-0.5885,-0.5018,-0.424,-0.2914,-0.2128,-0.2112,-0.3456,-0.4332,-0.4332,-0.1649,-0.0,-0.0,-0.1335,-0.2123,-0.2123,-0.2123,-0.2096,-0.2114,-0.3327,-0.4244,-0.483,-0.5072,-0.5231,-0.5315,-0.5999,-0.6315,-0.625,-0.4888,-0.2672,-0.0,-0.0,-0.0,-0.0,-0.0,0.0843,0.1992,0.1992,0.2447,0.3185,-0.0,-0.0,-0.0,-0.0,-0.0,-0.0,-0.0,-0.0,-0.0,-0.0,-0.0,-0.0,-0.0,-0.0,-0.0,-0.0,-0.0,-0.0,-0.0,-0.1918,-0.4056,-0.6207,-0.6271,-0.6638,-0.7495,-0.7491,-0.8514,-1.0563,-1.0563,-1.1137,-1.2224,-1.1242,-1.0783,-1.0708,-0.8685,-0.7783,-0.7706,-0.6718,-0.6338,-0.6234,-0.5925,-0.5882,-0.5936,-0.5559,-0.5386,-0.5189,-0.3351,-0.2678,-0.2678,-0.2678,-0.3899,-0.5346,-0.5346,-0.2884,-0.0353,-0.2174,-0.3952,-0.5451,-0.6067,-0.3228,-0.0,-0.0,-0.0,-0.0,-0.0,-0.0,-0.0,-0.0,-0.0,-0.1384,-0.5895,-0.6949,-0.7035,-0.6932,-0.6803,-0.6658,-0.661,-0.463,-0.388,-0.6038,-0.2568,-0.0,-0.0,-0.0,-0.0,-0.0,-0.0,-0.0,-0.0,-0.0,-0.0,-0.0,-0.0,-0.0,-0.0,-0.0,-0.0882,-0.2654,-0.265,-0.2791,-0.3172,-0.53,-0.625,-0.6009,-0.1806,-0.0,-0.0,-0.0,-0.0,-0.0,-0.0,0.2594,0.6329,0.6329,0.4953,0.3424,0.0702,-0.0,-0.0,-0.0,-0.0,-0.0,-0.0,-0.0,-0.0,-0.0,-0.0,-0.0,-0.0,-0.0,-0.0,-0.0,-0.0,-0.0,-0.0,-0.0613,-0.1742,-0.3663,-0.5256,-0.6145,-0.6299,-0.682,-0.7443,-0.8293,-0.8867,-0.9487,-1.0014,-0.982,-0.9367,-0.8685,-0.8084,-0.7403,-0.6718,-0.6416,-0.6338,-0.6311,-0.6009,-0.5957,-0.5785,-0.4138,-0.4287,-0.5343,-0.4754,-0.296,-0.0807,-0.0807,-0.1144,-0.1622,-0.1585,-0.0847,-0.0072,-0.0669,-0.1219,-0.1635,-0.1804,-0.0955,-0.0,-0.0,-0.0,-0.0,-0.0,-0.0,-0.0,-0.0,-0.0,-0.0435,-0.1765,-0.4789,-0.7119,-0.7027,-0.6987,-0.6963,-0.6982,-0.6306,-0.4889,-0.2212,-0.079,-0.0,-0.0,-0.0,-0.0,-0.0,-0.0,-0.0,-0.0,-0.0,-0.0,-0.0,-0.0,-0.0,-0.0,-0.0,-0.0297,-0.0792,-0.0818,-0.0831,-0.0984,-0.1552,-0.1885,-0.1806,-0.055,-0.0,-0.0,-0.0,-0.0,0.0314,0.3224,0.5207,0.6329,0.6312,0.5895,0.5386,0.3815,0.1499,-0.0,-0.0,-0.0,-0.0,-0.0,-0.0,-0.0,-0.0,-0.0,-0.0,-0.0,-0.0,-0.0,-0.0,-0.0,-0.0,-0.0,-0.0,-0.0827,-0.2601,-0.4648,-0.5735,-0.5718,-0.6179,-0.6652,-0.7246,-0.7734,-0.8377,-0.9108,-0.8728,-0.8307,-0.7783,-0.7403,-0.6872,-0.6338,-0.6338,-0.6338,-0.6311,-0.6089,-0.5539,-0.4798,-0.4067,-0.3546,-0.3055,-0.1395,0.0624,0.2433,0.2199,0.171,0.1233,0.1254,0.0646,-0.0,-0.0,-0.0,-0.0,-0.0,-0.0,-0.0,-0.0,-0.0,-0.0,-0.0,-0.0,-0.0,-0.0,-0.0,-0.0,-0.0,-0.2337,-0.4578,-0.5525,-0.5676,-0.6031,-0.698,-0.709,-0.5371,-0.0568,-0.0,-0.0,-0.0,-0.0,-0.0,-0.0,-0.0,-0.0,-0.0,-0.0,-0.0,-0.0,-0.0,-0.0,-0.0,-0.0,-0.0,-0.0,-0.0,-0.0,-0.0,-0.0,-0.0,-0.0,-0.0,-0.0,-0.0,-0.0,0.1021,0.2752,0.5288,0.6322,0.6308,0.6295,0.6281,0.6251,0.7972,0.4055,0.0585,0.0098,-0.0,-0.0,-0.0,-0.0,-0.0,-0.0,-0.0,-0.0,-0.0,-0.0,-0.0,-0.0,-0.0,-0.0,-0.0,-0.0,-0.0822,-0.2616,-0.4406,-0.5464,-0.5569,-0.5569,-0.6043,-0.6924,-0.6941,-0.7613,-0.8782,-0.785,-0.7447,-0.7633,-0.6718,-0.6338,-0.6338,-0.6338,-0.6338,-0.6311,-0.6092,-0.4879,-0.3238,-0.4448,-0.2856,0.0585,0.4773,0.6332,0.6223,0.5637,0.4507,0.3365,0.3367,0.2104,0.0453,0.0076,-0.0,-0.0,-0.0,-0.0,-0.0,-0.0,-0.0,-0.0,-0.0,-0.0,-0.0,-0.0,-0.0,-0.0,-0.0,-0.0,-0.0722,-0.2939,-0.3258,-0.3995,-0.6129,-0.6489,-0.4863,-0.0508,-0.0,-0.0,-0.0,-0.0,-0.0,-0.0,-0.0,-0.0,-0.0,-0.0,-0.0,-0.0,-0.0,-0.0,-0.0,-0.0,-0.0,-0.0,-0.0,-0.0,-0.0,-0.0,-0.0,-0.0,-0.0,0.0236,0.055,0.055,0.275,0.6006,0.6244,0.6305,0.6278,0.6278,0.6271,0.624,0.8024,0.7027,0.4975,0.0752,-0.0,-0.0,-0.0,-0.0,-0.0,-0.0,-0.0,-0.0,-0.0,-0.0,-0.0,-0.0,-0.0,-0.0,-0.0,-0.0,-0.0822,-0.2616,-0.4406,-0.5415,-0.5413,-0.541,-0.5543,-0.574,-0.587,-0.6095,-0.6493,-0.6412,-0.641,-0.6644,-0.6412,-0.6338,-0.6338,-0.6338,-0.6338,-0.6314,-0.6261,-0.4941,-0.2926,-0.1657,-0.065,0.0524,0.4803,0.6332,0.6241,0.5823,0.5509,0.5287,0.5509,0.5261,0.4249,0.0981,-0.0,-0.0,-0.0,-0.0,-0.0,-0.0,-0.0,-0.0,-0.0,-0.0,-0.0,-0.0,-0.0,-0.0,-0.0,-0.0,-0.0184,-0.0739,-0.0818,-0.098,-0.1483,-0.1573,-0.1128,-0.0084,-0.0,-0.0,-0.0,-0.0,-0.0,-0.0,-0.0,-0.0,-0.0,-0.0,-0.0,-0.0,-0.0,-0.0,-0.0,-0.0,-0.0,-0.0,-0.0,-0.0,-0.0,-0.0,-0.0,-0.0,-0.0,0.1885,0.4967,0.4967,0.4482,0.3992,0.5652,0.6285,0.6278,0.6268,0.6264,0.6254,0.7983,0.797,0.631,0.0927,-0.0,-0.0,-0.0,-0.0,-0.0,-0.0,-0.0,-0.0,-0.0,-0.0,-0.0,-0.0,-0.0,-0.0,-0.0,-0.1862,-0.2971,-0.2888,-0.4557,-0.5706,-0.6135,-0.5663,-0.5428,-0.5428,-0.5443,-0.5589,-0.5803,-0.5884,-0.6044,-0.6338,-0.6338,-0.6338,-0.6254,-0.6183,-0.6149,-0.6125,-0.6147,-0.4941,-0.2903,-0.08,-0.0,0.0385,0.3656,0.5435,0.6271,0.6019,0.5865,0.5939,0.6089,0.6207,0.5634,0.2455,0.0775,-0.0,-0.0,-0.0,-0.0,-0.0,-0.0,-0.0,-0.0,-0.0,-0.0,-0.0,-0.0,-0.0,-0.0,-0.0,-0.0,-0.0,-0.0,-0.0,-0.0,-0.0,-0.0,-0.0,-0.0,-0.0,-0.0,-0.0,-0.0,-0.0,-0.0,-0.0,-0.0,-0.0,-0.0,-0.0,0.2176,0.3292,0.3014,0.2006,0.1592,0.1751,0.2605,0.3163,0.3356,0.2232,0.1593,0.1513,0.1513,0.2771,0.4873,0.5911,0.5662,0.4771,0.5879,0.6274,0.6271,0.6264,0.6213,0.6149,0.783,0.7237,0.5259,0.0733,-0.0,-0.0,-0.0,-0.0,-0.0,-0.0,-0.0,-0.0,-0.0,-0.0,-0.0,-0.0,-0.0,-0.0314,-0.1021,-0.4332,-0.5461,-0.3703,-0.4944,-0.6104,-0.6873,-0.59,-0.5491,-0.562,-0.5519,-0.5538,-0.58,-0.5827,-0.5989,-0.6338,-0.6338,-0.6338,-0.6251,-0.6095,-0.603,-0.6006,-0.5941,-0.4988,-0.3312,-0.0876,-0.0,0.0235,0.2348,0.4493,0.627,0.6081,0.6067,0.6067,0.6067,0.6166,0.596,0.4144,0.1954,-0.0,-0.0,-0.0,-0.0,-0.0,-0.0,-0.0,-0.0,-0.0,-0.0,-0.0,-0.0,-0.0,-0.0,-0.0,-0.0,-0.0,-0.0,-0.0,-0.0,-0.0,-0.0,-0.0,-0.0,-0.0,-0.0,-0.0,-0.0,-0.0,0.0719,0.1258,0.1258,0.0795,0.0612,0.0612,0.4455,0.6492,0.6463,0.4587,0.383,0.4157,0.563,0.6624,0.6997,0.507,0.4076,0.3747,0.3651,0.3683,0.3851,0.5581,0.6285,0.6274,0.6274,0.6254,0.6297,0.6451,0.6363,0.625,0.7267,0.4116,0.0896,0.0088,-0.0,-0.0,-0.0,-0.0,-0.0,-0.0,-0.0,-0.0,-0.0,-0.0,-0.0,-0.0,-0.0,-0.1571,-0.5207,-0.6009,-0.6089,-0.5598,-0.5689,-0.6104,-0.6873,-0.59,-0.5752,-0.6523,-0.5894,-0.5644,-0.5803,-0.5935,-0.6091,-0.6338,-0.6338,-0.6338,-0.6251,-0.6095,-0.603,-0.6006,-0.5796,-0.5649,-0.5055,-0.1359,-0.0,0.0235,0.2381,0.4474,0.6264,0.6237,0.623,0.623,0.623,0.6251,0.6278,0.597,0.3052,-0.0,-0.0,-0.0,-0.0,-0.0,-0.0,-0.0,-0.0,-0.0,-0.0,-0.0,-0.0,-0.0,-0.0,-0.0,-0.0,-0.0,-0.0,-0.0,-0.0,-0.0,-0.0,-0.0,-0.0,-0.0,-0.0,-0.0,-0.0,-0.0,0.3776,0.6132,0.6132,0.42,0.3112,0.3112,0.3751,0.5011,0.7015,0.6444,0.621,0.6293,0.6599,0.6771,0.6725,0.6639,0.6636,0.6542,0.6078,0.5928,0.6138,0.6254,0.6274,0.6264,0.6264,0.6179,0.6136,0.7021,0.7298,0.7274,0.5172,0.4613,0.3127,0.0435,-0.0,-0.0,-0.0,-0.0,0.0873,0.322,0.354,0.3508,0.3513,0.1433,-0.0,-0.0,-0.2119,-0.528,-0.9393,-0.7512,-0.657,-0.7247,-0.6745,-0.6907,-0.7711,-0.6672,-0.6527,-0.7437,-0.6156,-0.5579,-0.5803,-0.5871,-0.603,-0.6338,-0.6338,-0.6213,-0.6122,-0.5966,-0.5854,-0.5766,-0.5624,-0.5587,-0.5469,-0.2621,-0.088,0.0235,0.2322,0.4508,0.6291,0.6271,0.6338,0.6338,0.6338,0.6264,0.6271,0.6281,0.446,0.1969,0.0409,-0.0,-0.0,-0.0,-0.0,-0.0,-0.0,-0.0,-0.0,-0.0,-0.0,-0.0,-0.0,-0.0,-0.0,-0.0,-0.0,-0.0,-0.0,-0.0,-0.0,-0.0,-0.0,-0.0,-0.0,0.2725,0.4373,0.3959,0.4718,0.5727,0.7029,0.6103,0.5552,0.5552,0.559,0.5976,0.6963,0.6888,0.6851,0.6851,0.6841,0.6848,0.6946,0.6943,0.6979,0.6892,0.6651,0.6525,0.6445,0.6373,0.6268,0.6338,0.6338,0.6166,0.6101,0.7052,0.7001,0.6583]},{"header":{"parameterUnit":"m.s-1","parameterCategory":1,"la1":30.6,"la2":28.766,"lo1":-90.7593,"lo2":-88.6598,"dy":0.0162,"dx":0.0183,"nx":116,"ny":114,"refTime":"2023-09-07T18:00:00:Z","depth":0,"parameterNumber":3,"parameterNumberName":"V-component_of_WINDS"},"data":[0.0,0.0,0.0,0.0,0.0,0.0,0.0,0.0,0.0,0.0,0.0,0.0,0.0,0.0,0.0,0.0,0.0,0.0,0.0,0.0,0.0,0.0,0.0,0.0,0.0,0.0,0.0,0.0,0.0,0.0,0.0,0.0,0.0,0.0,0.0,0.0,0.0,0.0,0.0,0.0,0.0,0.0,0.0,0.0,0.0,0.0,0.0,0.0,0.0,0.0,0.0,0.0,0.0,0.0,0.0,0.0,0.0,0.0,0.0,0.0,0.0,0.0,0.0,0.0,0.0,0.0,0.0,0.0,0.0,0.0,0.0,0.0,0.0,0.0,0.0,0.0,0.0,0.0,0.0,0.0,0.0,0.0,0.0,0.0,0.0,0.0,0.0,0.0,0.0,0.0,0.0,0.0,0.0,0.0,0.0,0.0,0.0,0.0,0.0,0.0,0.0,0.0,0.0,0.0,0.0,0.0,0.0,0.0,0.0,0.0,0.0,0.0,0.0,0.0,0.0,0.0,0.0,0.0,0.0,0.0,0.0,0.0,0.0,0.0,0.0,0.0,0.0,0.0,0.0,0.0,0.0,0.0,0.0,0.0,0.0,0.0,0.0,0.0,0.0,0.0,0.0,0.0,0.0,0.0,0.0,0.0,0.0,0.0,0.0,0.0,0.0,0.0,0.0,0.0,0.0,0.0,0.0,0.0,0.0,0.0,0.0,0.0,0.0,0.0,0.0,0.0,0.0,0.0,0.0,0.0,0.0,0.0,0.0,0.0,0.0,0.0,0.0,0.0,0.0,0.0,0.0,0.0,0.0,0.0,0.0,0.0,0.0,0.0,0.0,0.0,0.0,0.0,0.0,0.0,0.0,0.0,0.0,0.0,0.0,0.0,0.0,0.0,0.0,0.0,0.0,0.0,0.0,0.0,0.0,0.0,0.0,0.0,0.0,0.0,0.0,0.0,0.0,0.0,0.0,0.0,0.0,0.0,0.0,0.0,0.0,0.0,0.0,0.0,0.0,0.0,0.0,0.0,0.0,0.0,0.0,0.0,0.0,0.0,0.0,0.0,0.0,0.0,0.0,0.0,0.0,0.0,0.0,0.0,0.0,0.0,0.0,0.0,0.0,0.0,0.0,0.0,0.0,0.0,0.0,0.0,0.0,0.0,0.0,0.0,0.0,0.0,0.0,0.0,0.0,0.0,0.0,0.0,0.0,0.0,0.0,0.0,0.0,0.0,0.0,0.0,0.0,0.0,0.0,0.0,0.0,0.0,0.0,0.0,0.0,0.0,0.0,0.0,0.0,0.0,0.0,0.0,0.0,0.0,0.0,0.0,0.0,0.0,0.0,0.0,0.0,0.0,0.0,0.0,0.0,0.0,0.0,0.0,0.0,0.0,0.0,0.0,0.0,0.0,0.0,0.0,0.0,0.0,0.0,0.0,0.0,0.0,0.0,0.0,0.0,0.0,0.0,0.0,0.0,0.0,0.0,0.0,0.0,0.0,0.0,0.0,0.0,0.0,0.0,0.0,0.0,0.0,0.0,0.0,0.0,0.0,0.0,0.0,0.0,0.0,0.0,0.0,0.0,0.0,0.0,0.0,0.0,0.0,0.0,0.0,0.0,0.0,0.0,0.0,0.0,0.0,0.0,0.0,0.0,0.0,0.0,0.0,0.0,0.0,0.0,0.0,0.0,0.0,0.0,0.0,0.0,0.0,0.0,0.0,0.0,0.0,0.0,0.0,0.0,0.0,0.0,0.0,0.0,0.0,0.0,0.0,0.0,0.0,0.0,0.0,0.0,0.0,0.0,0.0,0.0,0.0,0.0,0.0,0.0,0.0,0.0,0.0,0.0,0.0,0.0,0.0,0.0,0.0,0.0,0.0,0.0,0.0,0.0,0.0,0.0,0.0,0.0,0.0,0.0,0.0,0.0,0.0,0.0,0.0,0.0,0.0,0.0,0.0,0.0,0.0,0.0,0.0,0.0,0.0,0.0,0.0,0.0,0.0,0.0,0.0,0.0,0.0,0.0,0.0,0.0,0.0,0.0,0.0,0.0,0.0,0.0,0.0,0.0,0.0,0.0,0.0,0.0,0.0,0.0,0.0,0.0,0.0,0.0,0.0,0.0,0.0,0.0,0.0,0.0,0.0,0.0,0.0,0.0,0.0,0.0,0.0,0.0,0.0,0.0,0.0,0.0,0.0,0.0,0.0,0.0,0.0,0.0,0.0,0.0,0.0,0.0,0.0,0.0,0.0,0.0,0.0,0.0,0.0,0.0,0.0,0.0,0.0,0.0,0.0,0.0,0.0,0.0,0.0,0.0,0.0,0.0,0.0,0.0,0.0,0.0,0.0,0.0,0.0,0.0,0.0,0.0,0.0,0.0,0.0,0.0,0.0,0.0,0.0,0.0,0.0,0.0,0.0,0.0,0.0,0.0,0.0,0.0,0.0,0.0,0.0,0.0,0.0,0.0,0.0,0.0,0.0,0.0,0.0,0.0,0.0,0.0,0.0,0.0,0.0,0.0,0.0,0.0,0.0,0.0,0.0,0.0,0.0,0.0,0.0,0.0,0.0,0.0,0.0,0.0,0.0,0.0,0.0,0.0,0.0,0.0,0.0,0.0,0.0,0.0,0.0,0.0,0.0,0.0,0.0,0.0,0.0,0.0,0.0,0.0,0.0,0.0,0.0,0.0,0.0,0.0,0.0,0.0,0.0,0.0,0.0,0.0,0.0,0.0,0.0,0.0,0.0,0.0,0.0,0.0,0.0,0.0,0.0,0.0,0.0,0.0,0.0,0.0,0.0,0.0,0.0,0.0,0.0,0.0,0.0,0.0,0.0,0.0,0.0,0.0,0.0,0.0,0.0,0.0,0.0,0.0,0.0,0.0,0.0,0.0,0.0,0.0,0.0,0.0,0.0,0.0,0.0,0.0,0.0,0.0,0.0,0.0,0.0,0.0,0.0,0.0,0.0,0.0,0.0,0.0,0.0,0.0,0.0,0.0,0.0,0.0,0.0,0.0,0.0,0.0,0.0,0.0,0.0,0.0,0.0,0.0,0.0,0.0,0.0,0.0,0.0,0.0,0.0,0.0,0.0,0.0,0.0,0.0,0.0,0.0,0.0,0.0,0.0,0.0,0.0,0.0,0.0,0.0,0.0,0.0,0.0,0.0,0.0,0.0,0.0,0.0,0.0,0.0,0.0,0.0,0.0,0.0,0.0,0.0,0.0,0.0,0.0,0.0,0.0,0.0,0.0,0.0,0.0,0.0,0.0,0.0,0.0,0.0,0.0,0.0,0.0,0.0,0.0,0.0,0.0,0.0,0.0,0.0,0.0,0.0,0.0,0.0,0.0,0.0,0.0,0.0,0.0,0.0,0.0,0.0,0.0,0.0,0.0,0.0,0.0,0.0,0.0,0.0,0.0,0.0,0.0,0.0,0.0,0.0,0.0,0.0,0.0,0.0,0.0,0.0,0.0,0.0,0.0,0.0,0.0,0.0,0.0,0.0,0.0,0.0,0.0,0.0,0.0,0.0,0.0,0.0,0.0,0.0,0.0,0.0,0.0,0.0,0.0,0.0,0.0,0.0,0.0,0.0,0.0,0.0,0.0,0.0,0.0,0.0,0.0,0.0,0.0,0.0,0.0,0.0,0.0,0.0,0.0,0.0,0.0,0.0,0.0,0.0,0.0,0.0,0.0,0.0,0.0,0.0,0.0,0.0,0.0,0.0,0.0,0.0,0.0,0.0,0.0,0.0,0.0,0.0,0.0,0.0,0.0,0.0,0.0,0.0,0.0,0.0,0.0,0.0,0.0,0.0,0.0,0.0,0.0,0.0,0.0,0.0,0.0,0.0,0.0,0.0,0.0,0.0,0.0,0.0,0.0,0.0,0.0,0.0,0.0,0.0,0.0,0.0,0.0,0.0,0.0,0.0,0.0,0.0,0.0,0.0,0.0,0.0,0.0,0.0,0.0,0.0,0.0,0.0,0.0,0.0,0.0,0.0,0.0,0.0,0.0,0.0,0.0,0.0,0.0,0.0,0.0,0.0,0.0,0.0,0.0,0.0,0.0,0.0,0.0,0.0,0.0,0.0,0.0,0.0,0.0,0.0,0.0,0.0,0.0,0.0,0.0,0.0,0.0,0.0,0.0,0.0,0.0,0.0,0.0,0.0,0.0,0.0,0.0,0.0,0.0,0.0,0.0,0.0,0.0,0.0,0.0,0.0,0.0,0.0,0.0,0.0,0.0,0.0,0.0,0.0,0.0,0.0,0.0,0.0,0.0,0.0,0.0,0.0,0.0,0.0,0.0,0.0,0.0,0.0,0.0,0.0,0.0,0.0,0.0,0.0,0.0,0.0,0.0,0.0,0.0,0.0,0.0,0.0,0.0,0.0,0.0,0.0,0.0,0.0,0.0,0.0,0.0,0.0,0.0,0.0,0.0,0.0,0.0,0.0,0.0,0.0,0.0,0.0,0.0,0.0,0.0,0.0,0.0,0.0,0.0,0.0,0.0,0.0,0.0,0.0,0.0,0.0,0.0,0.0,0.0,0.0,0.0,0.0,0.0,0.0,0.0,0.0,0.0,0.0,0.0,0.0,0.0,0.0,0.0,0.0,0.0,0.0,0.0,0.0,0.0,0.0,0.0,0.0,0.0,0.0,0.0,0.0,0.0,0.0,0.0,0.0,0.0,0.0,0.0,0.0,0.0,0.0,0.0,0.0,0.0,0.0,0.0,0.0,0.0,0.0,0.0,0.0,0.0,0.0,0.0,0.0,0.0,0.0,0.0,0.0,0.0,0.0,0.0,0.0,0.0,0.0,0.0,0.0,0.0,0.0,0.0,0.0,0.0,0.0,0.0,0.0,0.0,0.0,0.0,0.0,0.0,0.0,0.0,0.0,0.0,0.0,0.0,0.0,0.0,0.0,0.0,0.0,0.0,0.0,0.0,0.0,0.0,0.0,0.0,0.0,0.0,0.0,0.0,0.0,0.0,0.0,0.0,0.0,0.0,0.0,0.0,0.0,0.0,0.0,0.0,0.0,0.0,0.0,0.0,0.0,0.0,0.0,0.0,0.0,0.0,0.0,0.0,0.0,0.0,0.0,0.0,0.0,0.0,0.0,0.0,0.0,0.0,0.0,0.0,0.0,0.0,0.0,0.0,0.0,0.0,0.0,0.0,0.0,0.0,0.0,0.0,0.0,0.0,0.0,0.0,0.0,0.0,0.0,0.0,0.0,0.0,0.0,0.0,0.0,0.0,0.0,0.0,0.0,0.0,0.0,0.0,0.0,0.0,0.0,0.0,0.0,0.0,0.0,0.0,0.0,0.0,0.0,0.0,0.0,0.0,0.0,0.0,0.0,0.0,0.0,0.0,0.0,0.0,0.0,0.0,0.0,0.0,0.0,0.0,0.0,0.0,0.0,0.0,0.0,0.0,0.0,0.0,0.0,0.0,0.0,0.0,0.0,0.0,0.0,0.0,0.0,0.0,0.0,0.0,0.0,0.0,0.0,0.0,0.0,0.0,0.0,0.0,0.0,0.0,0.0,0.0,0.0,0.0,0.0,0.0,0.0,0.0,0.0,0.0,0.0,0.0,0.0,0.0,0.0,0.0,0.0,0.0,0.0,0.0,0.0,0.0,0.0,0.0,0.0,0.0,0.0,0.0,0.0,0.0,0.0,0.0,0.0,0.0,0.0,0.0,0.0,0.0,0.0,0.0,0.0,0.0,0.0,0.0,0.0,0.0,0.0,0.0,0.0,0.0,0.0,0.0,0.0,0.0,0.0,0.0,0.0,0.0,0.0,0.0,0.0,0.0,0.0,0.0,0.0,0.0,0.0,0.0,0.0,0.0,0.0,0.0,0.0,0.0,0.0,0.0,0.0,0.0,0.0,0.0,0.0,0.0,0.0,0.0,0.0,0.0,0.0,0.0,0.0,0.0,0.0,0.0,0.0,0.0,0.0,0.0,0.0,0.0,0.0,0.0,0.0,0.0,0.0,0.0,0.0,0.0,0.0,0.0,0.0,0.0,0.0,0.0,0.0,0.0,0.0,0.0,0.0,0.0,0.0,0.0,0.0,0.0,0.0,0.0,0.0,0.0,0.0,0.0,0.0,0.0,-2.2136,0.0,0.0,0.0,0.0,0.0,0.0,0.0,0.0,0.0,0.0,0.0,0.0,0.0,0.0,0.0,0.0,0.0,0.0,0.0,0.0,0.0,0.0,0.0,0.0,0.0,0.0,0.0,0.0,0.0,0.0,0.0,0.0,0.0,0.0,0.0,0.0,0.0,0.0,0.0,-2.5051,-2.479,-2.4439,-2.3734,-2.2675,-2.135,0.0,0.0,0.0,0.0,0.0,0.0,0.0,0.0,0.0,0.0,0.0,0.0,0.0,0.0,0.0,0.0,0.0,0.0,0.0,0.0,0.0,0.0,0.0,0.0,0.0,0.0,0.0,0.0,0.0,0.0,0.0,0.0,0.0,0.0,0.0,0.0,0.0,0.0,0.0,0.0,0.0,0.0,0.0,0.0,0.0,0.0,0.0,0.0,0.0,0.0,0.0,0.0,0.0,0.0,0.0,0.0,0.0,0.0,0.0,0.0,0.0,0.0,0.0,0.0,0.0,0.0,0.0,0.0,0.0,0.0,0.0,-2.266,0.0,0.0,0.0,0.0,0.0,0.0,0.0,0.0,0.0,0.0,0.0,0.0,0.0,0.0,0.0,0.0,0.0,0.0,0.0,0.0,0.0,0.0,0.0,0.0,-1.5174,-0.9618,-0.8993,-0.6894,0.0,0.0,0.0,0.0,0.0,0.0,0.0,-2.3744,-2.4534,-2.5648,-2.5272,-2.5543,-2.6434,-2.6698,-2.5606,-2.3325,-2.2343,0.0,0.0,0.0,0.0,0.0,0.0,0.0,0.0,0.0,0.0,0.0,0.0,0.0,0.0,0.0,0.0,0.0,0.0,0.0,0.0,0.0,0.0,0.0,0.0,0.0,0.0,0.0,0.0,0.0,0.0,0.0,0.0,0.0,0.0,0.0,0.0,0.0,0.0,0.0,0.0,0.0,0.0,0.0,0.0,0.0,0.0,0.0,0.0,0.0,0.0,0.0,0.0,0.0,0.0,0.0,0.0,0.0,0.0,0.0,0.0,0.0,0.0,0.0,0.0,-2.8,-2.8464,-2.9459,-2.9332,-2.818,-2.6638,-2.4647,-2.2598,0.0,0.0,0.0,0.0,0.0,0.0,0.0,0.0,0.0,0.0,0.0,0.0,0.0,0.0,0.0,0.0,0.0,0.0,0.0,0.0,0.0,0.0,-2.0113,-1.6838,-1.3229,-0.8408,-0.6163,0.0,0.0,0.0,0.0,0.0,0.0,-2.4086,-2.5265,-2.5721,-2.5434,-2.6282,-2.7578,-2.9286,-2.9606,-2.9669,-2.9357,-2.5601,-2.498,-2.6555,0.0,0.0,0.0,0.0,0.0,0.0,0.0,0.0,0.0,0.0,0.0,0.0,0.0,0.0,0.0,0.0,0.0,0.0,0.0,0.0,0.0,0.0,0.0,0.0,0.0,0.0,0.0,0.0,0.0,0.0,0.0,0.0,0.0,0.0,0.0,0.0,0.0,0.0,0.0,0.0,0.0,-2.5761,-2.512,0.0,0.0,0.0,0.0,0.0,0.0,0.0,0.0,0.0,0.0,0.0,0.0,0.0,0.0,-2.7778,-2.9087,-2.9415,-2.8721,-3.0202,-3.0657,-3.0197,-3.1457,-3.1647,-3.0956,-3.0639,0.0,-2.3836,-2.3896,0.0,0.0,0.0,0.0,0.0,0.0,0.0,0.0,0.0,0.0,0.0,0.0,0.0,0.0,0.0,0.0,0.0,0.0,0.0,0.0,0.0,-2.2102,-1.9708,-1.8262,-1.5078,-1.2999,-1.259,-1.5549,0.0,0.0,0.0,-2.3782,-2.4556,-2.5199,-2.5726,-2.6126,-2.9167,-3.0774,-3.1016,-3.2355,-3.2694,-3.2089,-3.0339,-2.8955,-2.7749,-2.5379,0.0,0.0,0.0,0.0,0.0,0.0,0.0,0.0,0.0,0.0,0.0,0.0,0.0,0.0,0.0,0.0,0.0,0.0,0.0,0.0,0.0,0.0,0.0,0.0,0.0,0.0,0.0,0.0,0.0,0.0,0.0,0.0,0.0,0.0,0.0,0.0,0.0,0.0,0.0,-2.564,-2.6424,-2.5643,-2.6441,-2.6873,0.0,0.0,0.0,0.0,0.0,0.0,0.0,0.0,0.0,-2.7111,-2.8265,-2.8898,-2.9051,-3.0057,-3.0691,-3.1001,-3.2092,-3.2677,-3.2796,-3.3704,-3.3783,-3.3186,-3.2752,-3.0746,-2.7631,-2.7214,-2.6468,-2.5695,0.0,0.0,0.0,0.0,0.0,-2.4395,0.0,0.0,0.0,0.0,0.0,0.0,0.0,0.0,0.0,0.0,0.0,0.0,-2.6994,-2.4247,-2.2283,-2.2041,-2.0481,-1.8711,-1.6818,-2.0585,0.0,0.0,-2.3687,-2.5129,-2.5205,-2.5675,-2.661,-2.7996,-3.1615,-3.3278,-3.3087,-3.4905,-3.5379,-3.4696,-3.4623,-3.2668,-2.9375,-2.7417,-2.6104,-2.5248,0.0,0.0,0.0,0.0,0.0,0.0,0.0,0.0,0.0,0.0,0.0,0.0,0.0,0.0,0.0,0.0,0.0,0.0,0.0,0.0,0.0,0.0,0.0,0.0,0.0,0.0,0.0,0.0,0.0,0.0,0.0,0.0,0.0,0.0,0.0,0.0,0.0,-2.6333,-2.7102,-2.6065,-2.7214,-2.7811,0.0,0.0,0.0,0.0,0.0,0.0,-2.7818,-2.8731,-2.9284,-2.9495,-3.0176,-3.0616,-3.0821,-3.1465,-3.2287,-3.3275,-3.3769,-3.4262,-3.4805,-3.5261,-3.5199,-3.4745,-3.4044,-3.2913,-3.144,-3.013,-2.897,-2.8026,-2.8323,-2.8037,-2.7484,-2.7461,-2.6958,-2.642,0.0,0.0,0.0,0.0,0.0,0.0,0.0,0.0,0.0,0.0,0.0,-2.6322,-2.818,-2.592,-2.3878,-2.2913,-2.0859,-1.9539,-1.9403,-1.967,-2.0874,-2.3221,-2.4812,-2.5853,-2.6307,-2.7704,-2.9447,-3.1545,-3.2613,-3.4165,-3.619,-3.7085,-3.785,-3.848,-3.7406,-3.527,-3.2329,-2.9807,-2.8654,-2.8415,-2.661,0.0,0.0,0.0,0.0,0.0,0.0,0.0,0.0,0.0,0.0,0.0,0.0,0.0,0.0,0.0,0.0,0.0,0.0,0.0,0.0,0.0,0.0,0.0,0.0,0.0,0.0,0.0,0.0,0.0,0.0,0.0,0.0,0.0,0.0,0.0,0.0,0.0,0.0,-2.6275,-2.8811,0.0,0.0,0.0,0.0,-2.8794,-2.815,-2.8249,-2.9485,-3.0207,-3.0846,-3.1327,-3.2631,-3.3621,-3.4233,-3.4921,-3.5295,-3.5355,-3.5385,-3.5429,-3.5444,-3.5444,-3.5444,-3.5415,-3.4745,-3.4425,-3.4094,-3.1297,-2.9872,-2.9431,-2.9906,-3.0438,-3.0869,-3.0234,-2.9431,-2.8558,0.0,0.0,0.0,0.0,0.0,0.0,0.0,0.0,-2.7879,-2.7977,-2.9043,-2.9841,-2.9964,-2.9457,-2.9041,-2.8887,-2.8702,-2.815,-2.7182,-2.7732,-2.8151,-2.8311,-2.7924,-2.8012,-2.865,-2.9665,-3.102,-3.265,-3.5458,-3.7243,-3.8038,-3.9018,-3.9088,-3.8423,-3.8603,-3.7542,-3.534,-3.2474,-3.0259,-2.8512,-2.6926,-2.595,0.0,0.0,0.0,0.0,0.0,0.0,0.0,0.0,0.0,0.0,0.0,0.0,0.0,0.0,0.0,0.0,0.0,0.0,0.0,0.0,0.0,0.0,0.0,0.0,0.0,0.0,0.0,0.0,0.0,0.0,0.0,0.0,0.0,0.0,0.0,0.0,0.0,-2.9112,-3.1007,0.0,0.0,-2.8838,-2.8112,-2.89,-2.9003,-2.9743,-3.1399,-3.257,-3.3441,-3.4053,-3.4547,-3.4906,-3.513,-3.5385,-3.5504,-3.5504,-3.5504,-3.5504,-3.5504,-3.5504,-3.5504,-3.5474,-3.4771,-3.4269,-3.3803,-3.2733,-3.2231,-3.204,-3.1691,-3.1704,-3.1867,-3.1619,-3.1326,-3.1016,0.0,0.0,0.0,0.0,0.0,0.0,0.0,0.0,-2.8389,-2.8421,-3.0443,-3.185,-3.1753,-3.2344,-3.2866,-3.3161,-3.31,-3.2535,-3.136,-3.1516,-3.1352,-3.0693,-3.0141,-2.9945,-3.0091,-3.1709,-3.3188,-3.4486,-3.7452,-3.9087,-3.9463,-3.9763,-3.949,-3.8681,-3.8912,-3.8503,-3.7514,-3.5321,-3.2658,-2.9867,-2.8659,-2.7868,-2.7251,0.0,0.0,0.0,0.0,0.0,0.0,0.0,0.0,0.0,0.0,0.0,0.0,0.0,0.0,0.0,0.0,0.0,0.0,0.0,0.0,0.0,0.0,0.0,0.0,0.0,0.0,0.0,0.0,0.0,0.0,0.0,0.0,0.0,0.0,0.0,-3.0122,-3.0959,-3.2762,-3.3566,-3.2615,-3.1179,-3.0538,-3.1134,-3.1244,-3.1898,-3.344,-3.4352,-3.504,-3.5489,-3.5504,-3.5504,-3.5504,-3.5504,-3.5504,-3.5504,-3.5504,-3.5504,-3.5504,-3.5504,-3.5504,-3.5489,-3.5026,-3.4604,-3.4191,-3.4219,-3.421,-3.4143,-3.3355,-3.3203,-3.3406,-3.3406,-3.3085,-3.2594,0.0,0.0,0.0,0.0,0.0,0.0,0.0,-2.8179,-2.8677,-2.8609,-3.0259,-3.2031,-3.3526,-3.4456,-3.5037,-3.5232,-3.3376,-3.2017,-3.1423,-3.0163,-2.9643,-3.0072,-3.1229,-3.1505,-3.0691,-3.3814,-3.6025,-3.7251,-3.8385,-3.9482,-4.0469,-3.9372,-3.9104,-3.9561,-3.8427,-3.822,-3.8701,-3.8182,-3.594,-3.2732,-3.2056,-3.082,-2.9341,0.0,0.0,0.0,0.0,0.0,0.0,0.0,0.0,0.0,0.0,0.0,0.0,0.0,0.0,0.0,0.0,0.0,0.0,0.0,0.0,0.0,0.0,0.0,0.0,0.0,0.0,0.0,0.0,0.0,0.0,0.0,0.0,0.0,-2.5429,-2.8743,-3.1139,-3.1655,-3.4028,-3.5315,-3.4453,-3.4565,-3.492,-3.5545,-3.491,-3.4835,-3.5474,-3.5504,-3.5504,-3.5504,-3.5504,-3.5504,-3.5504,-3.5504,-3.5504,-3.5504,-3.5504,-3.5504,-3.5504,-3.5504,-3.5504,-3.5504,-3.5504,-3.5493,-3.5506,-3.5506,-3.5522,-3.547,-3.4894,-3.5052,-3.5622,-3.5622,-3.4692,-3.3203,0.0,0.0,0.0,0.0,0.0,0.0,0.0,-2.881,-2.9519,-3.0361,-3.3023,-3.509,-3.5707,-3.7405,-3.8285,-3.7831,-3.537,-3.424,-3.5045,-3.2343,-3.1097,-3.1997,-3.1677,-3.2362,-3.4295,-3.5609,-3.6992,-3.8423,-3.9538,-4.021,-4.0489,-3.9984,-3.9694,-3.9599,-3.9013,-3.9063,-3.9528,-3.899,-3.8189,-3.7113,-3.4861,-3.2996,-3.1462,0.0,0.0,0.0,0.0,0.0,0.0,0.0,0.0,0.0,0.0,0.0,0.0,0.0,0.0,0.0,0.0,0.0,0.0,0.0,0.0,0.0,0.0,0.0,0.0,0.0,0.0,0.0,0.0,0.0,0.0,0.0,0.0,-2.5827,-2.6595,-2.8528,-3.0857,-3.3518,-3.5393,-3.6388,-3.6138,-3.6135,-3.6039,-3.5603,-3.544,-3.5338,-3.5459,-3.5504,-3.5504,-3.5504,-3.5504,-3.5504,-3.5504,-3.5504,-3.5504,-3.5504,-3.5504,-3.5504,-3.5504,-3.5504,-3.5504,-3.5504,-3.5504,-3.4979,-3.4059,-3.4059,-3.4116,-3.4252,-3.5005,-3.5424,-3.5622,-3.5622,-3.4692,-3.3271,0.0,0.0,0.0,0.0,0.0,0.0,0.0,-2.8715,-2.9702,-3.0588,-3.4279,-3.7015,-3.7507,-3.9439,-4.0338,-3.9455,-3.6558,-3.4945,-3.54,-3.3297,-3.2487,-3.3516,-3.3517,-3.4413,-3.642,-3.7382,-3.8361,-3.9395,-4.0142,-4.0489,-4.0489,-4.0082,-3.9797,-3.9576,-3.9117,-3.9386,-4.0096,-3.9933,-3.9915,-3.9896,-3.8346,-3.6497,-3.4423,-3.2492,-3.1531,-3.0938,-2.9238,-2.8495,-2.8076,-2.6266,0.0,0.0,0.0,0.0,0.0,0.0,0.0,0.0,0.0,0.0,0.0,0.0,0.0,0.0,0.0,0.0,0.0,0.0,0.0,0.0,0.0,0.0,0.0,0.0,-2.4544,-2.6337,-2.8113,-2.9943,-3.208,-3.4701,-3.6342,-3.721,-3.7215,-3.7511,-3.7378,-3.6573,-3.6191,-3.5861,-3.5539,-3.5504,-3.5504,-3.5504,-3.5504,-3.5504,-3.5504,-3.5504,-3.5504,-3.5504,-3.5504,-3.5504,-3.5504,-3.5504,-3.5504,0.0,-3.5504,-3.4901,-3.3924,-3.4281,-3.406,0.0,0.0,0.0,0.0,0.0,-3.415,-3.3254,0.0,0.0,0.0,0.0,0.0,0.0,0.0,-2.8237,-2.9523,-2.9976,-3.4356,-3.7727,-3.8448,-4.0306,-4.1161,-4.029,-3.7147,-3.4892,-3.4109,-3.3535,-3.3769,-3.502,-3.6,-3.6892,-3.7691,-3.8983,-3.9816,-4.0139,-4.0392,-4.0508,-4.0489,-3.9905,-3.9683,-3.9754,-3.9194,-3.9618,-4.0745,-4.1003,-4.1263,-4.1493,-4.1771,-4.0123,-3.729,-3.5278,-3.4334,-3.3872,-3.2295,-3.0852,-2.9525,-2.8483,0.0,0.0,0.0,0.0,0.0,0.0,0.0,0.0,0.0,0.0,0.0,0.0,0.0,0.0,0.0,0.0,0.0,0.0,0.0,0.0,0.0,0.0,0.0,0.0,-2.4121,-2.5805,-2.9711,-3.2159,-3.4027,-3.5324,-3.6719,-3.7641,-3.7752,-3.8368,-3.8525,-3.7863,-3.7024,-3.6275,-3.5569,0.0,0.0,0.0,0.0,-3.5609,-3.5609,-3.5549,-3.5504,-3.5504,-3.5504,-3.5504,-3.5504,-3.5504,-3.5504,-3.5504,-3.5429,-3.4999,-3.4454,-3.5021,-3.4498,-3.3304,-3.2894,-3.3857,-3.5318,-3.3914,-3.3355,0.0,0.0,0.0,0.0,0.0,0.0,0.0,0.0,-2.8158,-2.9403,-3.0154,-3.3517,-3.595,-3.6202,-3.8353,-3.9909,-4.0171,-3.7613,-3.5892,-3.5666,-3.4208,-3.4726,-3.7774,-3.7124,-3.7567,-3.9528,-3.9896,-4.0195,-4.0406,-4.0569,-4.062,-4.0489,-4.0157,-4.0345,-4.0954,-4.0623,-4.1324,-4.2718,-4.2511,-4.2433,-4.2436,-4.2386,-4.0158,-3.6834,-3.6498,-3.5103,-3.3173,-3.2141,-3.2423,-3.2865,-2.9948,-2.8895,-2.8519,-2.69,-2.4973,0.0,0.0,0.0,0.0,0.0,0.0,0.0,0.0,0.0,0.0,0.0,0.0,0.0,0.0,0.0,0.0,0.0,0.0,0.0,-2.5077,-2.6391,-2.8132,-3.1074,-3.2848,-3.4273,-3.5394,-3.5784,-3.6483,-3.768,-3.7898,-3.7978,-3.7806,-3.7024,-3.6275,-3.5569,-3.6013,0.0,-3.6297,-3.6297,-3.6297,-3.6297,-3.5774,-3.5504,-3.5504,0.0,0.0,-3.5504,-3.5504,-3.5504,-3.5474,-3.4921,-3.4343,-3.3668,-3.3244,-3.2599,-3.1982,-3.3599,-3.4413,-3.4607,-3.3728,-3.3017,-3.2374,0.0,0.0,0.0,0.0,0.0,0.0,0.0,-2.7773,-2.9128,-3.0031,-3.3072,-3.5437,-3.6226,-3.7444,-3.8357,-3.8768,-3.7019,-3.5899,-3.5912,-3.5522,-3.6607,-3.9568,-3.842,-3.8973,-4.1638,-4.1135,-4.1189,-4.1851,-4.1559,-4.1559,-4.1832,-4.1123,-4.0978,-4.1321,-4.1505,-4.1925,-4.2488,-4.2951,-4.3597,-4.4218,-4.3318,-4.0936,-3.7893,-3.7313,-3.635,-3.5107,-3.3674,-3.3404,-3.3294,-3.0305,-2.9048,-2.8463,-2.6815,-2.5401,-2.4358,0.0,0.0,0.0,0.0,0.0,0.0,0.0,0.0,0.0,0.0,0.0,0.0,0.0,0.0,-2.3622,0.0,0.0,-2.4507,-2.5954,-2.7,-2.871,-3.1763,-3.2835,-3.3822,-3.5294,-3.5875,-3.6409,-3.7128,-3.7573,-3.7632,-3.7219,-3.6859,-3.6413,-3.6034,-3.6312,-3.6492,-3.6492,-3.6492,-3.6327,-3.5998,-3.5669,-3.5504,-3.5504,-3.5504,-3.5504,-3.5504,-3.5504,-3.5504,-3.5489,-3.5145,-3.4607,-3.3903,-3.2916,-3.2696,-3.3054,-3.3825,-3.3839,-3.3395,-3.2976,-3.2611,-3.2171,0.0,0.0,0.0,0.0,0.0,0.0,0.0,-2.7433,-2.8819,-2.9667,-3.2524,-3.4888,-3.5907,-3.6269,-3.6524,-3.6768,-3.6165,-3.5923,-3.6317,-3.7052,-3.8569,-4.0994,-4.0004,-4.0651,-4.3227,-4.2376,-4.2297,-4.3195,-4.2665,-4.2686,-4.3221,-4.2306,-4.1888,-4.1972,-4.2534,-4.2636,-4.2489,-4.3561,-4.4737,-4.5787,-4.4487,-4.2217,-3.9394,-3.7695,-3.7104,-3.6917,-3.4977,-3.3616,-3.2408,-3.0143,-2.8847,-2.7909,-2.635,-2.5673,-2.5337,-2.4727,-2.3898,0.0,0.0,0.0,0.0,0.0,0.0,0.0,0.0,0.0,-2.4305,-2.4259,-2.458,-2.4836,-2.4774,-2.4997,-2.5494,-2.6518,-2.6839,-2.8298,-3.2061,-3.2496,-3.3141,-3.5085,-3.5915,-3.6446,-3.6615,-3.704,-3.716,-3.6676,-3.6554,-3.6545,-3.6514,-3.6716,-3.6791,-3.6671,-3.6671,-3.6357,-3.5699,-3.5564,-3.5504,-3.5504,-3.5504,-3.5504,-3.5504,-3.5504,-3.5429,-3.5295,-3.504,-3.4607,-3.4008,-3.2811,-3.3051,-3.417,-3.359,-3.3048,-3.2599,-3.2555,-3.2408,-3.2171,0.0,0.0,0.0,0.0,0.0,0.0,0.0,0.0,-2.8648,-2.8974,-3.1432,-3.2958,-3.2511,-3.3375,-3.4171,-3.4614,-3.5674,-3.6974,-3.8537,-3.857,-3.9693,-4.2361,-4.2154,-4.2398,-4.329,-4.3214,-4.3184,-4.3195,-4.3358,-4.3416,-4.3363,-4.325,-4.3585,-4.4316,-4.4391,-4.4785,-4.5347,-4.567,-4.5831,-4.5897,-4.5956,-4.3966,-4.0618,-3.7379,-3.6082,-3.577,-3.4059,-3.2457,-3.096,-2.9726,-2.8782,-2.7922,-2.677,-2.5709,-2.4917,-2.5072,0.0,-2.4398,-2.3915,-2.3021,0.0,-2.1493,-2.2365,-2.3101,0.0,0.0,-2.4102,-2.442,-2.4119,-2.4078,-2.4891,-2.4388,-2.4583,-2.6861,-2.6539,-2.7503,-3.1962,-3.2207,-3.2574,-3.4386,-3.5179,-3.5894,-3.6554,-3.607,-3.6006,-3.6554,-3.6554,-3.652,-3.6477,-3.7554,-3.7898,-3.733,-3.73,-3.7,-3.6387,-3.5804,-3.5504,-3.5504,-3.5504,-3.5504,-3.5504,-3.5504,-3.5175,-3.4532,-3.335,-3.2796,-3.2677,-3.1943,-3.2068,-3.2833,-3.2673,-3.2919,-3.337,-3.3311,-3.2848,-3.2171,0.0,0.0,0.0,0.0,0.0,0.0,0.0,0.0,0.0,0.0,-3.0772,-3.211,-3.2655,-3.3412,-3.3843,-3.3674,-3.5384,-3.7017,-3.8391,-3.9166,-4.0503,-4.26,-4.2525,-4.2913,-4.4033,-4.4058,-4.4287,-4.4773,-4.4414,-4.4454,-4.4837,-4.4308,-4.3929,-4.3812,-4.4878,-4.4991,-4.4471,-4.5707,-4.6027,-4.5736,-4.584,-4.3826,-4.043,-3.7017,-3.5805,-3.5681,-3.3971,-3.1815,0.0,-2.76,-2.665,-2.5932,-2.4209,-2.3791,-2.3914,-2.3858,-2.3923,0.0,-2.2104,0.0,0.0,0.0,-2.2199,-2.3208,-2.3026,-2.3822,-2.4681,-2.4973,-2.4911,-2.4989,-2.5506,-2.5172,-2.5294,0.0,-2.67,-2.7582,-3.1236,-3.136,-3.159,-3.2946,-3.3337,-3.4031,-3.5228,-3.5428,-3.5619,-3.5958,-3.5924,-3.6237,-3.6985,-3.7195,-3.733,-3.7404,-3.706,-3.6567,-3.5923,-3.5639,-3.5504,-3.5504,-3.5504,-3.5504,-3.5504,-3.5504,-3.5355,-3.5026,-3.4068,-3.344,-3.3066,-3.2781,-3.2863,-3.3198,-3.3571,-3.4121,-3.4605,-3.3743,-3.2933,-3.2239,0.0,0.0,0.0,0.0,0.0,0.0,0.0,0.0,0.0,0.0,-3.0487,-3.1785,-3.3248,-3.3707,-3.3802,-3.3469,-3.5124,-3.6743,-3.8013,-3.9551,-4.1134,-4.279,-4.3248,-4.389,-4.4732,-4.5074,-4.5457,-4.5906,-4.5356,-4.5214,-4.5471,-4.4749,-4.3762,-4.2662,-4.4202,-4.4345,-4.3557,-4.5406,-4.5951,-4.54,-4.3215,-3.9787,-3.5856,-3.4567,-3.366,-3.2998,-3.2744,-3.1207,-2.8909,-2.6256,-2.4938,-2.4132,-2.238,-2.2629,-2.3487,-2.329,-2.3492,-2.3353,-2.154,0.0,0.0,-2.1541,-2.2282,-2.3346,-2.3918,-2.4755,-2.5528,-2.6072,-2.5845,-2.5659,-2.5959,-2.5168,-2.5012,-2.6559,-2.6215,-2.6954,-3.0241,-3.0314,-3.0416,-3.1417,-3.1561,-3.2062,-3.3372,-3.4419,-3.5067,-3.5067,-3.5523,-3.6178,-3.7105,-3.6896,-3.6866,-3.715,-3.6716,-3.6178,-3.5519,-3.5504,-3.5504,-3.5504,-3.5504,-3.5504,-3.5489,-3.531,-3.5325,-3.5444,-3.4397,-3.3769,-3.3469,-3.3095,-3.3187,-3.3646,-3.4142,-3.4857,-3.5487,-3.4404,-3.3406,-3.256,0.0,0.0,0.0,0.0,0.0,0.0,0.0,0.0,0.0,0.0,0.0,0.0,0.0,-3.3509,-3.3587,-3.4037,-3.4908,-3.6182,-3.7988,-3.9831,-4.1611,-4.3208,-4.5143,-4.5837,-4.5094,-4.6417,-4.6716,-4.589,-4.6014,-4.5502,-4.4431,-4.4285,-4.3202,-4.1383,-4.2237,-4.2913,-4.3611,-4.5218,-4.5772,-4.4934,-3.7244,-3.0371,-2.5107,-2.9062,-2.851,-2.6091,-2.9543,-3.0519,-2.9687,-2.6546,-2.4485,-2.3152,-2.2641,-2.3196,0.0,-2.408,-2.4211,-2.4229,-2.3651,0.0,-2.2816,-2.214,-2.2761,-2.3669,-2.435,-2.545,-2.6707,-2.7969,-2.6722,-2.5525,-2.6016,-2.3636,-2.2491,-2.5194,-2.4613,-2.5144,-2.8969,-2.9059,-2.908,-2.9993,-3.0123,-3.0359,0.0,-3.2809,-3.4027,-3.4027,-3.5562,-3.6477,-3.6507,-3.706,-3.7105,-3.6537,-3.6492,-3.6178,-3.5519,-3.5504,-3.5504,-3.5504,-3.5504,-3.5504,-3.5489,-3.4816,-3.4876,-3.54,-3.3425,-3.2916,-3.3395,-3.2123,-3.2398,-3.3582,-3.3614,-3.4431,-3.556,-3.5571,-3.4624,-3.3271,0.0,0.0,0.0,0.0,0.0,0.0,0.0,0.0,0.0,0.0,0.0,0.0,0.0,0.0,0.0,0.0,-3.3655,-3.5154,-3.6752,-3.8636,-4.0188,-4.127,-4.358,-4.4707,-4.443,-4.5705,-4.593,-4.5092,-4.4832,-4.423,-4.3321,-4.2146,-4.0942,-3.9771,-3.9788,-4.0124,-4.0804,-4.2107,-4.202,-4.0508,-3.4592,-3.0271,-2.7231,-2.5838,-2.4171,-2.2922,0.0,-2.6725,-2.6823,-2.5538,-2.4257,-2.2978,-2.1714,-2.2046,-2.3053,-2.3853,-2.4051,-2.3789,-2.2856,0.0,-2.2541,-2.1411,-2.2355,-2.3741,-2.4381,-2.4893,-2.5511,-2.6572,-2.5753,-2.4792,-2.4421,-2.3316,-2.2844,-2.4165,-2.4466,-2.5396,-2.7829,-2.8664,-2.9029,-2.8972,-2.9253,0.0,0.0,0.0,0.0,-3.3031,-3.384,-3.4668,-3.5448,-3.5889,-3.6252,-3.6477,-3.6058,-3.5729,-3.5504,-3.5504,-3.5504,-3.5504,-3.5504,-3.5504,-3.5489,-3.5265,-3.504,-3.4756,-3.3649,-3.3036,-3.2811,-3.2362,-3.246,-3.3033,-3.39,-3.4559,-3.4988,-3.5424,-3.4692,-3.3372,0.0,0.0,0.0,0.0,0.0,0.0,0.0,0.0,0.0,0.0,0.0,0.0,0.0,0.0,0.0,0.0,0.0,-3.3658,-3.5229,-3.6796,-3.817,-3.9316,-4.1771,-4.3001,-4.2753,-4.3986,-4.4139,-4.3138,-4.2821,-4.1944,-4.0484,-3.9369,-3.8021,-3.6535,-3.6395,-3.6567,-3.7007,-3.8229,-3.8192,-3.6896,-3.2378,-2.9502,-2.762,-2.5009,-2.3159,0.0,-2.3735,-2.4629,-2.5059,-2.4863,-2.4193,-2.332,-2.2481,-2.2803,-2.3513,-2.377,-2.3853,-2.3503,-2.1798,-2.1812,-2.1965,-2.065,-2.1695,-2.3138,-2.3554,-2.394,-2.4277,-2.4632,-2.4214,-2.3549,-2.2652,-2.2047,-2.2034,-2.3115,-2.3617,-2.4607,-2.6772,-2.7723,-2.8235,-2.8285,-2.8453,0.0,0.0,0.0,0.0,-3.201,-3.2944,-3.3835,-3.4589,-3.5208,-3.5699,-3.6118,-3.5729,-3.5504,-3.5504,-3.5504,-3.5504,-3.5504,-3.5504,-3.5504,-3.5504,-3.5504,-3.5265,-3.4801,-3.3888,-3.326,-3.2826,-3.2362,-3.2346,-3.2687,-3.3527,-3.4034,-3.4333,-3.5005,-3.4499,-3.3426,0.0,0.0,0.0,0.0,0.0,0.0,0.0,0.0,0.0,0.0,0.0,0.0,0.0,0.0,0.0,0.0,0.0,0.0,-3.3525,-3.4508,-3.5768,-3.7403,-3.9827,-4.0826,-4.0178,-4.1519,-4.1558,-4.0237,-4.0163,-3.8829,-3.6328,-3.6148,-3.4649,-3.2072,-3.2335,-3.2494,-3.2601,-3.3913,-3.4518,-3.426,-3.0568,-2.7831,-2.6005,-2.6176,-2.5055,-2.3454,-2.3911,-2.4246,-2.4491,-2.46,-2.4272,-2.3917,-2.4492,-2.4962,-2.5038,-2.3686,-2.3549,-2.3224,-2.0696,-2.0694,-2.1113,-1.9934,-2.0854,-2.2046,-2.2001,-2.274,-2.3212,-2.2532,-2.2394,-2.2052,0.0,0.0,-2.012,-2.2024,-2.2056,-2.2871,-2.5844,-2.6347,-2.6773,0.0,0.0,0.0,0.0,0.0,0.0,-3.0992,0.0,-3.3973,-3.4002,-3.4964,-3.5549,-3.5504,-3.5504,-3.5504,-3.5504,-3.5504,-3.5504,-3.5504,-3.5504,-3.5504,-3.5504,-3.5504,-3.5474,-3.5325,-3.4053,-3.3455,-3.3305,-3.2048,-3.191,-3.2547,-3.2602,-3.2986,-3.3633,-3.4284,-3.405,-3.3373,0.0,0.0,0.0,0.0,0.0,0.0,0.0,0.0,0.0,0.0,0.0,0.0,0.0,0.0,0.0,0.0,0.0,0.0,-3.136,-3.3075,-3.4167,-3.4393,-3.7158,-3.8566,-3.8281,-3.9184,-3.9574,-3.9411,-3.8365,-3.6997,-3.5351,-3.4751,-3.3494,-3.1655,-3.0067,-2.9928,-3.0976,-3.1394,-3.2124,-3.2745,-2.9779,-2.8023,-2.6947,-2.4821,-2.3804,-2.3485,-2.3501,-2.3775,-2.4232,0.0,0.0,0.0,0.0,-2.0708,-2.1496,-2.1845,-2.1367,-2.0652,-2.0457,-2.0227,-1.9933,-1.9188,-2.0266,-2.135,-2.0977,-2.1547,-2.2186,-2.2308,-2.2188,-2.1922,0.0,0.0,0.0,-2.112,-2.2066,0.0,-2.4119,-2.5504,0.0,-2.6242,0.0,-2.7854,-2.7722,-2.9065,0.0,0.0,-3.2245,-3.3255,-3.3545,-3.5258,-3.6013,-3.5519,-3.5504,-3.5504,-3.5504,-3.5504,-3.5504,-3.5504,-3.5504,-3.5504,-3.5504,-3.5504,-3.4951,-3.3993,-3.3649,-3.2946,-3.2003,-3.1616,-3.1582,-3.1853,-3.2382,-3.2695,-3.2949,-3.3582,-3.3047,-3.2014,0.0,0.0,0.0,0.0,0.0,0.0,0.0,0.0,0.0,0.0,0.0,0.0,0.0,0.0,0.0,0.0,0.0,0.0,0.0,-3.1013,-3.1782,-3.2299,-3.3864,-3.508,-3.5884,-3.6136,-3.6417,-3.6735,-3.5984,-3.4825,-3.3328,-3.276,-3.1843,-3.0552,-2.8733,-2.8579,-2.9643,-2.9397,-2.9615,0.0,0.0,-2.6939,-2.5996,-2.4202,-2.3689,-2.3842,-2.3541,-2.299,0.0,0.0,0.0,-2.1292,-1.9867,-2.055,-2.173,-2.1056,0.0,-1.983,-1.8783,-1.8426,-1.825,-1.8023,-1.8635,-1.9539,-2.0504,-2.0711,-2.0949,-2.1811,-2.1924,0.0,0.0,0.0,0.0,0.0,0.0,0.0,-2.3835,-2.4864,-2.5599,0.0,-2.7464,0.0,-2.8024,-2.9757,-3.106,0.0,-3.1974,-3.2736,-3.3344,-3.4649,-3.5437,-3.5519,-3.5504,-3.5504,-3.5504,-3.5504,-3.5504,-3.5504,-3.5504,-3.5504,-3.5504,-3.5504,-3.51,-3.4352,0.0,-3.3335,-3.2362,-3.2078,-3.1958,-3.1928,-3.2072,-3.2303,-3.2629,-3.2989,-3.2641,-3.1934,0.0,0.0,0.0,0.0,0.0,0.0,0.0,0.0,0.0,0.0,0.0,0.0,0.0,0.0,0.0,0.0,0.0,0.0,0.0,0.0,-2.9394,-3.0695,-3.0698,-3.1481,-3.3301,-3.3034,-3.3106,-3.3529,-3.3686,-3.2864,-3.1176,-3.0919,-3.0255,-2.9244,-2.8217,-2.8075,-2.8566,-2.7883,-2.749,-2.7243,-2.6417,-2.5402,-2.4377,0.0,-2.4122,-2.4253,-2.3746,0.0,0.0,0.0,-1.8314,-1.983,-1.9858,-2.1564,-2.2943,-2.0431,-1.9933,-1.9596,-1.6775,-1.6283,-1.6678,-1.6919,-1.6972,-1.76,-2.0338,-2.0141,-1.9803,-2.1343,0.0,-2.1338,-2.0254,-2.0212,-2.0626,-2.1571,0.0,-2.1204,-2.3986,-2.4176,-2.4495,-2.592,-2.7647,-2.8704,-2.8704,-3.029,-3.1587,-3.2064,-3.1976,-3.2372,-3.3482,-3.4142,-3.4785,-3.5504,-3.5504,-3.5504,-3.5504,-3.5504,-3.5504,-3.5504,-3.5504,-3.5504,-3.5504,-3.5504,-3.5459,-3.5325,0.0,0.0,-3.332,-3.2751,-3.2512,-3.2452,-3.1884,-3.2018,-3.2496,-3.2476,-3.2376,-3.2222,0.0,0.0,0.0,0.0,0.0,0.0,0.0,0.0,0.0,0.0,-2.9793,-2.9702,0.0,0.0,0.0,0.0,0.0,0.0,0.0,0.0,0.0,-2.888,-2.947,-3.03,-3.1272,-3.1359,-3.181,-3.2643,-3.2862,-3.2325,-3.104,-3.1319,-3.048,-2.8727,-2.857,-2.8368,-2.8076,-2.7289,-2.6967,-2.6895,-2.5816,-2.4977,-2.4395,-2.44,0.0,0.0,0.0,0.0,0.0,0.0,-1.7232,-1.7489,-1.6154,-1.7502,-1.9363,-1.8375,-1.7904,-1.751,-1.6405,-1.6049,-1.6171,-1.6919,-1.7137,-1.7815,-2.0268,-1.9947,0.0,0.0,-2.152,-2.0959,-2.0894,-2.0613,0.0,-2.1153,0.0,0.0,0.0,0.0,-2.3338,0.0,0.0,0.0,0.0,0.0,0.0,0.0,0.0,0.0,-3.4067,-3.5867,-3.6432,-3.5534,-3.5504,-3.5504,-3.5504,-3.5504,-3.5504,-3.5504,-3.5504,-3.5504,-3.5504,-3.5504,-3.519,-3.4622,0.0,0.0,-3.2677,-3.2557,-3.2512,-3.2497,-3.2392,-3.2422,-3.2422,-3.188,-3.1321,-3.0865,0.0,0.0,0.0,0.0,0.0,0.0,0.0,-2.7889,-2.8669,-2.8859,-2.9745,-3.0391,-3.0438,-3.08,-3.0807,0.0,0.0,0.0,0.0,0.0,0.0,0.0,0.0,0.0,0.0,-3.0594,0.0,0.0,0.0,0.0,0.0,0.0,0.0,0.0,-2.8895,-2.8779,-2.8599,-2.8282,-2.7926,-2.749,-2.6489,-2.5551,0.0,0.0,0.0,0.0,0.0,0.0,0.0,0.0,-1.7315,-1.5879,-1.4993,-1.6316,-1.7962,-1.6372,-1.6103,-1.6095,-1.4713,-1.4932,-1.5742,-1.6818,-1.6674,-1.7271,-2.1262,0.0,0.0,0.0,-2.2258,-2.115,-2.1166,0.0,0.0,0.0,0.0,0.0,0.0,0.0,0.0,0.0,0.0,0.0,0.0,0.0,0.0,0.0,0.0,0.0,-3.3751,-3.5499,-3.6133,-3.5534,-3.5504,-3.5504,-3.5504,-3.5504,-3.5504,-3.5504,-3.5504,-3.5504,-3.5504,-3.5504,-3.513,-3.4457,-3.4143,0.0,-3.2512,-3.2512,-3.2512,-3.2482,-3.2138,-3.2213,-3.2437,-3.1779,-3.133,-3.0986,0.0,0.0,0.0,0.0,0.0,0.0,0.0,-2.7754,-2.8031,-2.8306,-2.9883,-3.1223,-3.1865,-3.1638,-3.1321,0.0,0.0,0.0,0.0,0.0,0.0,0.0,0.0,0.0,0.0,0.0,0.0,0.0,0.0,0.0,0.0,0.0,0.0,0.0,0.0,0.0,0.0,-2.9326,-2.8946,0.0,0.0,0.0,0.0,0.0,0.0,0.0,0.0,0.0,0.0,0.0,-1.8122,-1.6116,-1.5491,-1.6691,-1.7831,-1.5519,-1.5646,-1.5959,-1.3841,-1.4397,-1.5885,-1.7004,-1.6534,-1.7021,-2.2176,-2.0907,0.0,0.0,-2.2795,-2.1339,-2.1103,0.0,0.0,0.0,0.0,0.0,0.0,0.0,0.0,0.0,0.0,0.0,0.0,0.0,0.0,0.0,0.0,0.0,0.0,-3.484,-3.5504,-3.5504,-3.5504,-3.5504,-3.5504,-3.5504,-3.5504,-3.5504,-3.5504,-3.5504,-3.5504,-3.5504,-3.513,-3.4472,-3.4322,0.0,0.0,-3.2512,-3.2512,-3.2467,-3.1943,-3.2063,-3.2437,-3.1779,-3.1482,-3.1392,0.0,0.0,0.0,0.0,0.0,0.0,0.0,-2.6595,-2.7744,-2.8696,-3.0556,-3.1603,-3.1155,-3.1607,-3.1707,0.0,0.0,0.0,0.0,0.0,0.0,0.0,0.0,0.0,0.0,0.0,0.0,0.0,0.0,0.0,0.0,0.0,0.0,0.0,0.0,0.0,0.0,0.0,0.0,0.0,0.0,0.0,0.0,0.0,0.0,0.0,0.0,0.0,0.0,0.0,0.0,-1.9768,-1.7931,-1.8309,-1.9071,-1.7264,0.0,0.0,-1.5479,-1.6134,-1.7529,-1.7985,-1.7662,-1.8299,-2.1989,0.0,0.0,-2.2492,-2.2079,-2.1023,-2.0628,-2.032,-2.0117,0.0,0.0,-1.985,0.0,0.0,0.0,0.0,0.0,0.0,0.0,0.0,0.0,0.0,0.0,0.0,0.0,-3.5259,-3.5504,-3.5504,-3.5504,-3.5504,-3.5504,-3.5504,-3.5504,-3.5504,-3.5504,-3.5504,-3.5504,-3.5504,-3.513,-3.4442,0.0,0.0,0.0,-3.2512,-3.2512,-3.2512,-3.2452,-3.2467,-3.2437,-3.1779,-3.1482,-3.1467,0.0,0.0,0.0,0.0,0.0,0.0,-2.618,-2.6537,-2.7147,-2.8592,-3.0176,-3.1114,-3.0956,-3.2198,-3.239,-3.0772,0.0,0.0,0.0,0.0,0.0,0.0,0.0,0.0,0.0,0.0,0.0,0.0,0.0,0.0,0.0,0.0,0.0,0.0,0.0,0.0,0.0,0.0,0.0,0.0,0.0,0.0,0.0,0.0,0.0,0.0,0.0,0.0,0.0,0.0,0.0,0.0,-2.0178,-2.0108,0.0,0.0,-1.6574,-1.7464,-1.5333,-1.6491,-1.8514,-1.9144,-1.8866,-1.9225,-2.212,0.0,-1.9899,-2.2378,-2.173,-2.0628,-2.0308,-1.996,-1.9738,-1.9804,-1.8936,0.0,0.0,0.0,0.0,0.0,0.0,0.0,0.0,0.0,0.0,0.0,0.0,0.0,0.0,-3.4771,-3.5504,-3.5504,-3.5504,-3.5504,-3.5504,-3.5504,-3.5504,-3.5504,-3.5504,-3.5295,-3.4891,-3.4891,-3.4307,-3.3275,0.0,0.0,0.0,-3.1928,-3.1928,-3.1928,-3.1928,-3.1928,-3.1898,-3.1571,-3.1482,-3.1482,0.0,0.0,0.0,0.0,0.0,-2.38,-2.5732,-2.5966,-2.6432,-2.7883,-2.9592,-3.0603,-3.0445,-3.1909,-3.2151,-3.0344,-3.0642,0.0,0.0,0.0,0.0,0.0,0.0,0.0,0.0,0.0,-3.0488,-3.0482,-3.0308,0.0,0.0,0.0,0.0,0.0,0.0,0.0,0.0,0.0,0.0,0.0,0.0,0.0,0.0,0.0,0.0,0.0,0.0,0.0,0.0,0.0,0.0,0.0,0.0,0.0,0.0,0.0,-1.693,-1.7693,-1.6111,-1.7283,-1.9058,-1.9534,-1.9529,-1.9982,0.0,0.0,-2.0339,-2.207,-2.1456,-2.046,-2.0085,-1.9696,-1.933,-1.9117,-1.8251,-1.8197,0.0,0.0,0.0,0.0,0.0,0.0,0.0,0.0,0.0,0.0,0.0,0.0,0.0,-3.4327,-3.5213,-3.5504,-3.5504,-3.54,-3.5205,-3.519,-3.51,-3.4921,-3.4921,-3.4651,-3.4188,-3.4188,-3.3574,-3.2512,0.0,0.0,0.0,-3.1482,-3.1482,-3.1482,-3.1482,-3.1482,-3.1482,-3.1482,-3.1482,-3.1482,0.0,0.0,0.0,0.0,0.0,0.0,-2.313,-2.4409,-2.5547,-2.6489,-2.8941,-3.027,-2.9419,-3.0275,-3.0658,-2.9971,-3.1184,0.0,0.0,0.0,0.0,0.0,0.0,0.0,0.0,0.0,-3.0704,-3.0706,-3.0554,-3.0895,-3.166,0.0,0.0,0.0,0.0,0.0,0.0,0.0,0.0,0.0,0.0,0.0,0.0,0.0,0.0,0.0,0.0,0.0,0.0,0.0,0.0,0.0,0.0,0.0,-2.1295,0.0,-2.0015,-1.9746,-1.8577,-1.8831,-1.929,-1.8807,-1.9636,-2.0505,0.0,-2.0422,-2.0385,-2.1406,-2.1103,-2.0527,-2.0004,-1.9522,-1.8907,-1.7962,-1.8051,0.0,0.0,0.0,0.0,0.0,0.0,0.0,0.0,0.0,0.0,0.0,0.0,0.0,0.0,0.0,-3.4461,-3.5439,-3.5504,-3.5175,-3.4502,-3.4487,-3.4158,-3.3514,-3.3514,-3.3514,-3.3499,-3.3499,-3.314,0.0,0.0,0.0,0.0,-3.1482,-3.1482,-3.1482,-3.1482,-3.1482,-3.1482,-3.1482,-3.1482,-3.1482,0.0,0.0,0.0,0.0,0.0,0.0,0.0,-2.3911,-2.4812,-2.6036,-2.8217,-2.9709,-2.9913,-3.0616,-3.1099,-3.1059,-3.0679,0.0,0.0,0.0,0.0,0.0,0.0,0.0,0.0,0.0,-3.0774,-3.0778,-3.1276,-3.1627,-3.182,-3.1468,-3.1364,0.0,0.0,0.0,0.0,0.0,0.0,0.0,0.0,0.0,0.0,0.0,0.0,0.0,0.0,0.0,0.0,0.0,0.0,0.0,0.0,0.0,0.0,-2.1823,-2.1395,0.0,-1.9981,-2.0526,-2.1416,-2.1457,-2.212,-2.2554,-2.1753,-2.1736,-2.1776,-2.1469,-2.0877,-2.0289,-1.9839,-1.9406,-1.9094,-1.8998,-1.9007,-1.9186,0.0,0.0,0.0,0.0,0.0,0.0,0.0,0.0,0.0,0.0,0.0,0.0,0.0,0.0,-3.4723,-3.5489,-3.5055,-3.4696,-3.4472,-3.4038,-3.3709,-3.3499,-3.3499,-3.326,-3.2826,-3.2826,0.0,0.0,0.0,0.0,0.0,-3.1031,-3.1106,-3.1422,-3.1016,-3.112,-3.1422,-3.1001,-3.1135,-3.1407,0.0,0.0,0.0,0.0,0.0,0.0,0.0,-2.3217,-2.4003,-2.5212,-2.6925,-2.8408,-2.9455,-3.0063,-3.06,-3.1019,-3.0398,0.0,0.0,0.0,0.0,0.0,0.0,0.0,0.0,-3.1255,-3.0813,-3.0769,-3.1628,-3.1997,-3.1936,-3.1882,-3.1792,-3.1651,-3.0857,0.0,0.0,0.0,0.0,0.0,0.0,0.0,-2.9427,0.0,0.0,0.0,0.0,0.0,0.0,0.0,0.0,0.0,0.0,0.0,0.0,0.0,-2.2164,-2.1864,0.0,-2.1479,-2.1878,-2.2045,-2.255,0.0,0.0,-2.1933,-2.2018,-2.1405,-2.0712,-2.0061,-1.9675,-1.9236,-1.8871,-1.8818,-1.9083,0.0,0.0,0.0,0.0,0.0,0.0,0.0,0.0,0.0,0.0,0.0,0.0,0.0,0.0,0.0,-3.4228,-3.4741,-3.4322,-3.3978,-3.3739,-3.308,-3.2632,-3.2362,-3.2138,-3.1809,-3.1405,-3.1405,0.0,0.0,0.0,0.0,0.0,-3.0328,-3.0417,-3.0746,-3.0313,-3.0552,-3.1061,-3.0402,-3.0567,-3.1046,0.0,0.0,0.0,0.0,0.0,0.0,0.0,-2.2568,-2.343,-2.4371,-2.556,-2.6893,-2.8433,-2.8887,-2.9406,-3.0166,0.0,0.0,0.0,0.0,0.0,0.0,0.0,0.0,-3.1884,-3.1231,-3.0832,-3.07,-3.1704,-3.2167,-3.2088,-3.2166,-3.2083,-3.1875,-3.1119,-3.0725,0.0,0.0,0.0,0.0,0.0,0.0,0.0,0.0,0.0,0.0,0.0,0.0,0.0,0.0,0.0,0.0,0.0,0.0,0.0,0.0,0.0,0.0,0.0,-2.1813,0.0,0.0,0.0,0.0,-2.1273,-2.1255,0.0,-2.1246,-2.0561,-1.9848,-1.9442,-1.8921,-1.8411,-1.7909,-1.8525,0.0,0.0,0.0,0.0,0.0,0.0,0.0,0.0,0.0,0.0,0.0,0.0,0.0,0.0,0.0,-3.3127,-3.338,-3.326,-3.2961,-3.2452,-3.1735,-3.112,-3.0432,-2.9864,-2.9579,-2.9579,-2.9579,0.0,0.0,0.0,0.0,0.0,-2.9535,-2.9549,-2.9579,-2.9535,-2.9894,-3.0357,-2.9744,-2.9909,-3.0357,0.0,0.0,0.0,0.0,0.0,0.0,0.0,0.0,0.0,0.0,-2.7632,-2.8727,-2.9349,-2.9232,-2.9457,0.0,0.0,0.0,0.0,0.0,0.0,0.0,0.0,0.0,-3.0989,-3.0891,-3.0782,-3.0693,-3.2307,-3.3066,-3.3014,-3.3728,-3.3682,-3.2985,-3.2154,-3.1028,0.0,0.0,0.0,0.0,0.0,0.0,0.0,0.0,0.0,0.0,-2.6209,-2.5614,0.0,0.0,0.0,0.0,0.0,0.0,0.0,0.0,-2.2668,-2.263,-2.2312,0.0,-2.2199,-2.2292,-2.2683,-2.2767,0.0,-2.1859,-2.1843,-2.0775,0.0,-1.966,-1.9124,-1.8745,-1.8571,-1.8819,-1.9146,0.0,0.0,0.0,0.0,0.0,0.0,0.0,0.0,0.0,0.0,0.0,0.0,0.0,0.0,0.0,-3.1901,-3.1945,-3.1016,-3.0911,-3.1764,-3.1091,-3.0417,-2.9804,-2.9654,-2.9579,-2.9579,-2.9579,0.0,0.0,0.0,0.0,-2.9549,-2.9041,-2.9131,-2.9535,-2.9026,-2.9235,-2.9714,-2.9071,-2.925,-2.9699,0.0,0.0,0.0,0.0,0.0,0.0,0.0,0.0,0.0,0.0,0.0,0.0,0.0,0.0,0.0,0.0,0.0,0.0,0.0,0.0,0.0,0.0,0.0,-3.0659,-3.0563,-3.0625,-3.0834,-3.1203,-3.261,-3.3309,-3.3315,-3.3847,-3.3623,-3.2697,-3.1456,-3.0149,0.0,0.0,0.0,0.0,-2.681,0.0,0.0,0.0,0.0,0.0,-2.529,-2.4887,0.0,-2.2763,-2.2967,-2.3715,0.0,0.0,0.0,0.0,-2.25,-2.2392,-2.2051,-2.2153,-2.2337,-2.2296,-2.2365,-2.2261,-2.1655,-2.1392,-2.1057,0.0,0.0,-1.9132,-1.8769,-1.8621,0.0,-1.8812,0.0,0.0,0.0,0.0,0.0,0.0,0.0,0.0,0.0,0.0,0.0,0.0,0.0,0.0,0.0,0.0,-3.1255,-3.0657,-2.9654,-2.9624,-3.0627,-2.9968,-2.946,-2.9131,-2.8816,-2.8652,-2.8652,-2.8652,0.0,0.0,0.0,0.0,-2.8637,-2.8278,-2.8338,-2.8622,-2.8263,-2.8532,-2.9041,-2.8382,-2.8562,-2.9041,0.0,0.0,0.0,0.0,0.0,0.0,0.0,0.0,0.0,0.0,0.0,0.0,0.0,0.0,0.0,0.0,0.0,0.0,0.0,0.0,0.0,0.0,-3.061,-3.0527,-3.034,-3.0423,-3.0888,-3.1777,-3.2739,-3.3308,-3.3491,-3.3568,-3.2966,-3.1753,-3.0175,-2.8891,0.0,0.0,0.0,0.0,-2.6586,0.0,0.0,0.0,0.0,0.0,0.0,0.0,0.0,-2.2428,-2.2736,-2.3249,-2.2048,0.0,0.0,0.0,0.0,0.0,-2.1625,-2.1698,-2.1845,-2.1728,-2.1446,-2.1214,-2.1151,0.0,0.0,0.0,0.0,0.0,0.0,0.0,0.0,0.0,0.0,0.0,0.0,0.0,0.0,0.0,0.0,0.0,0.0,0.0,0.0,0.0,0.0,0.0,0.0,0.0,0.0,-2.931,-2.8547,-2.8412,-2.8966,-2.8532,-2.8248,-2.8143,-2.756,-2.7275,-2.7275,-2.7275,-2.7275,0.0,0.0,0.0,-2.7275,-2.743,-2.7475,-2.749,-2.758,-2.7934,-2.8368,-2.7784,-2.7934,-2.8368,0.0,0.0,0.0,0.0,0.0,0.0,0.0,0.0,0.0,0.0,0.0,0.0,0.0,0.0,0.0,0.0,0.0,0.0,0.0,0.0,0.0,-3.0002,-3.0183,-3.0209,-3.0061,-3.019,-3.0739,-3.1717,-3.27,-3.362,-3.4406,-3.447,-3.3242,-3.0935,-2.9881,-2.8469,-2.689,0.0,0.0,0.0,0.0,0.0,0.0,0.0,0.0,0.0,0.0,0.0,0.0,-2.1662,-2.1849,-2.2144,-2.1051,0.0,0.0,0.0,0.0,0.0,-2.0862,-2.0567,-2.0487,-2.1038,-2.1039,-2.0794,-2.0447,-2.007,0.0,0.0,0.0,0.0,0.0,0.0,0.0,0.0,0.0,0.0,0.0,0.0,0.0,0.0,0.0,0.0,0.0,0.0,0.0,0.0,0.0,0.0,0.0,0.0,0.0,-2.7889,-2.6707,-2.6108,-2.6213,-2.6677,-2.6617,-2.6063,-2.5959,-2.5914,-2.5914,-2.5914,-2.5914,0.0,0.0,-2.5914,-2.5959,-2.6512,-2.6737,-2.6797,-2.74,-2.7634,-2.7724,-2.7655,-2.7685,-2.776,0.0,0.0,0.0,0.0,0.0,0.0,0.0,0.0,0.0,0.0,0.0,0.0,0.0,0.0,0.0,0.0,0.0,0.0,0.0,0.0,-2.8825,-2.9128,-2.9734,-2.9996,-2.995,-3.0457,-3.1268,-3.2355,-3.3365,-3.4111,-3.4576,-3.3193,-3.1387,-2.9305,-2.8325,-2.7098,-2.5759,-2.5614,-2.5158,0.0,0.0,0.0,0.0,0.0,0.0,0.0,0.0,0.0,0.0,0.0,-2.0862,-2.1097,-2.0235,0.0,0.0,0.0,0.0,0.0,-2.0429,-2.0174,-2.0054,-2.0058,-2.0039,-1.9864,-1.9405,-1.9214,0.0,0.0,0.0,0.0,0.0,0.0,0.0,0.0,0.0,0.0,0.0,0.0,0.0,0.0,0.0,0.0,0.0,0.0,0.0,0.0,0.0,0.0,0.0,0.0,0.0,0.0,-2.5585,-2.4896,-2.4522,-2.4822,-2.5181,-2.5615,-2.5615,-2.5615,-2.5615,-2.5615,-2.5615,-2.5615,0.0,-2.5615,-2.563,-2.5929,-2.6063,-2.6123,-2.6782,-2.7036,-2.7081,-2.749,-2.735,-2.7096,0.0,0.0,0.0,0.0,0.0,0.0,0.0,0.0,0.0,0.0,0.0,0.0,0.0,0.0,0.0,0.0,0.0,0.0,0.0,0.0,-2.8364,-2.847,-2.9351,-2.9872,-2.9902,-3.0776,-3.1795,-3.2912,-3.3925,-3.4273,-3.3918,-3.1676,-2.9683,-2.7955,-2.6934,-2.6015,-2.5222,-2.4894,-2.4559,-2.4321,0.0,0.0,0.0,0.0,0.0,0.0,0.0,0.0,0.0,0.0,0.0,0.0,0.0,0.0,0.0,-2.0211,-2.0227,-2.0258,-2.0065,-1.9889,-1.9696,-1.9207,0.0,-1.9281,-1.8691,-1.88,0.0,0.0,0.0,0.0,0.0,0.0,0.0,0.0,0.0,0.0,0.0,0.0,0.0,0.0,0.0,0.0,0.0,0.0,0.0,0.0,0.0,0.0,0.0,0.0,0.0,0.0,-2.4149,-2.3495,-2.2975,-2.2961,-2.3599,-2.4926,-2.5061,-2.5136,-2.5136,-2.5136,-2.5136,-2.5136,-2.5136,-2.5136,-2.5151,-2.5315,-2.5375,-2.545,-2.6093,-2.6363,-2.6422,-2.6916,-2.6886,-2.6662,0.0,0.0,0.0,0.0,0.0,0.0,0.0,0.0,0.0,0.0,0.0,0.0,0.0,0.0,0.0,0.0,0.0,0.0,0.0,0.0,-2.7565,-2.8367,-2.9242,-2.9758,-2.9896,-3.0882,-3.1918,-3.2992,-3.3999,-3.3672,-3.2063,-3.095,-2.946,-2.7683,-2.6611,-2.6051,-2.5865,-2.4995,-2.4462,-2.4192,-2.3992,0.0,0.0,0.0,0.0,0.0,0.0,0.0,0.0,0.0,0.0,0.0,0.0,0.0,-2.0001,-1.9864,-1.9747,-1.9669,-1.9726,-1.931,-1.8898,-1.886,-1.931,0.0,-1.8934,-1.9561,0.0,-1.9884,0.0,0.0,0.0,0.0,0.0,0.0,0.0,0.0,0.0,0.0,0.0,0.0,0.0,0.0,0.0,0.0,0.0,0.0,0.0,0.0,0.0,0.0,0.0,0.0,0.0,-2.1135,-2.1077,-2.1077,-2.1691,-2.2906,-2.3475,-2.3744,-2.3744,-2.3744,-2.3744,-2.3744,-2.3744,-2.3744,-2.3789,-2.4433,-2.4657,-2.4716,-2.542,-2.5674,-2.5689,-2.5734,-2.6108,-2.6602,0.0,0.0,0.0,0.0,0.0,0.0,0.0,0.0,0.0,0.0,0.0,0.0,0.0,0.0,0.0,0.0,0.0,0.0,0.0,-2.6176,-2.6695,-2.7021,-2.843,-2.9279,-2.9454,-3.0783,-3.1747,-3.2322,-3.2572,-3.2051,-3.0804,-2.9252,-2.7875,-2.6688,-2.6176,-2.5631,-2.5059,-2.5131,-2.469,-2.3919,-2.3526,-2.2961,0.0,0.0,0.0,0.0,0.0,0.0,0.0,0.0,-1.8945,-1.874,-1.8883,-1.8914,-1.8986,-1.9126,-1.9236,-1.9288,-1.9325,-1.9049,-1.8745,-1.8489,-1.8798,0.0,0.0,-1.908,-1.9625,-1.8585,-1.8874,0.0,0.0,0.0,0.0,0.0,0.0,0.0,0.0,0.0,0.0,0.0,0.0,0.0,0.0,0.0,0.0,0.0,0.0,0.0,0.0,0.0,0.0,0.0,0.0,-2.0538,-1.9794,-2.0538,-2.0915,-2.0988,-2.1936,-2.2413,-2.2413,-2.2413,-2.2413,-2.2413,-2.2413,-2.2413,-2.2443,-2.2697,-2.3041,-2.352,-2.4582,-2.5255,-2.5615,-2.5615,-2.551,-2.5495,0.0,0.0,0.0,0.0,0.0,0.0,0.0,0.0,0.0,0.0,0.0,0.0,0.0,0.0,0.0,0.0,0.0,0.0,-2.5203,-2.5811,-2.6162,-2.6167,-2.787,-2.89,-2.9074,-3.0423,-3.1349,-3.1838,-3.1319,-3.056,-2.9593,-2.7727,-2.6662,-2.6276,-2.5702,-2.5347,-2.5189,-2.5153,-2.4697,-2.3947,-2.3212,-2.2598,0.0,0.0,0.0,0.0,0.0,0.0,0.0,0.0,-1.861,-1.8463,-1.8609,-1.8548,-1.8506,-1.8707,-1.8798,-1.8836,-1.8898,-1.8745,-1.8567,0.0,0.0,0.0,-1.8704,-1.9631,-2.0177,-1.8989,-1.9154,0.0,0.0,0.0,0.0,0.0,0.0,0.0,0.0,0.0,0.0,0.0,0.0,0.0,0.0,0.0,0.0,0.0,0.0,0.0,0.0,0.0,0.0,0.0,0.0,0.0,-1.8563,-1.9528,-1.9786,-1.9373,-2.0504,-2.1276,-2.1695,-2.1695,-2.1695,-2.1695,-2.1695,-2.1695,-2.1695,-2.1695,-2.1964,-2.2473,-2.358,-2.4283,-2.4702,-2.4896,-2.4822,-2.4792,0.0,0.0,0.0,0.0,0.0,0.0,0.0,0.0,0.0,0.0,0.0,0.0,0.0,0.0,0.0,0.0,0.0,0.0,-2.5203,-2.5739,-2.6088,-2.6076,-2.7742,-2.8698,-2.8765,-2.9756,-3.0723,-3.1681,-3.0471,-2.9358,-2.8339,-2.6535,-2.6092,-2.6708,-2.5116,-2.5263,-2.6569,-2.4986,-2.4374,-2.4402,-2.3092,-2.2513,-2.2167,0.0,0.0,0.0,0.0,0.0,0.0,0.0,-1.9007,-1.8861,-1.9271,-1.9109,-1.8798,-1.8711,-1.8478,-1.8228,-1.8436,-1.8333,0.0,0.0,0.0,0.0,-2.0189,-2.1481,-2.2308,-2.1722,0.0,0.0,0.0,0.0,0.0,0.0,0.0,0.0,0.0,0.0,0.0,0.0,0.0,0.0,0.0,0.0,0.0,0.0,0.0,0.0,0.0,0.0,0.0,0.0,0.0,0.0,-1.7312,-1.7827,-1.8106,-1.8106,-1.9169,-2.0378,-2.168,-2.168,-2.168,-2.168,-2.168,-2.168,-2.168,-2.168,-2.168,-2.1754,-2.2413,-2.2667,-2.2783,-2.337,-2.4029,-2.4792,0.0,0.0,0.0,0.0,0.0,0.0,0.0,0.0,0.0,0.0,0.0,0.0,0.0,0.0,0.0,0.0,0.0,0.0,-2.4731,-2.4959,-2.5008,-2.4771,-2.5976,-2.665,-2.6613,-2.7271,-2.8124,-2.9174,-2.8707,-2.766,-2.6097,-2.6262,-2.5893,-2.5134,-2.5705,-2.5632,-2.5079,-2.5039,-2.4741,-2.4208,-2.2552,-2.1626,-2.0993,0.0,0.0,0.0,0.0,0.0,0.0,0.0,0.0,0.0,-1.8855,-1.8736,-1.8697,-1.8489,-1.8425,-1.8386,-1.8358,-1.8042,0.0,0.0,0.0,0.0,0.0,-2.0649,0.0,0.0,0.0,0.0,0.0,0.0,0.0,0.0,0.0,0.0,0.0,0.0,0.0,0.0,0.0,0.0,0.0,0.0,0.0,0.0,0.0,0.0,0.0,0.0,0.0,0.0,0.0,0.0,-1.6752,-1.7271,-1.7747,-1.8106,-1.8817,-1.9523,-2.0273,-2.0273,-2.0273,-2.0273,-2.0273,-2.0273,-2.0318,-2.0797,-2.1006,-2.1066,-2.1724,-2.2263,-2.2739,-2.2877,-2.3355,-2.4043,0.0,0.0,0.0,0.0,0.0,0.0,0.0,0.0,0.0,0.0,0.0,0.0,0.0,0.0,0.0,0.0,0.0,0.0,0.0,-2.4059,-2.3989,-2.395,-2.5189,-2.6061,-2.6451,-2.6303,-2.6413,-2.6749,-2.7075,-2.6486,-2.5087,-2.5779,-2.5645,-2.482,-2.5485,-2.5411,-2.4783,-2.4777,-2.4595,-2.4118,-2.2128,-2.1098,-2.0576,0.0,0.0,0.0,0.0,0.0,0.0,0.0,0.0,0.0,-1.8927,-1.8851,-1.8812,-1.8669,-1.8489,-1.84,-1.8397,0.0,0.0,0.0,0.0,0.0,0.0,0.0,0.0,0.0,0.0,0.0,0.0,0.0,0.0,0.0,0.0,0.0,0.0,0.0,0.0,0.0,0.0,0.0,0.0,0.0,0.0,0.0,0.0,0.0,0.0,0.0,0.0,0.0,0.0,0.0,-1.6837,-1.7353,-1.7787,-1.8106,-1.865,-1.9169,-1.969,-1.969,-1.969,-1.969,-1.969,-1.969,-1.972,-2.0139,-2.0303,-2.0378,-2.1036,-2.1545,-2.1964,-2.2488,-2.3058,-2.369,0.0,0.0,0.0,0.0,0.0,0.0,0.0,0.0,0.0,0.0,-2.5439,0.0,0.0,0.0,0.0,0.0,0.0,0.0,0.0,0.0,-2.298,-2.3432,-2.4895,-2.6212,-2.7309,-2.6165,-2.5243,-2.4567,-2.5579,-2.5647,-2.4886,-2.5226,-2.5368,-2.5299,-2.4801,-2.4783,-2.5087,-2.4237,-2.3945,-2.3887,-2.1642,-2.0791,-2.0585,-1.8153,0.0,0.0,0.0,0.0,0.0,0.0,0.0,0.0,-1.9302,-1.9153,-1.9064,-1.9064,-1.8697,-1.8307,-1.8553,0.0,0.0,0.0,0.0,0.0,0.0,0.0,0.0,0.0,0.0,0.0,0.0,0.0,0.0,0.0,0.0,0.0,0.0,0.0,0.0,0.0,0.0,0.0,0.0,0.0,0.0,0.0,0.0,0.0,0.0,0.0,0.0,0.0,0.0,0.0,-1.7394,-1.7827,-1.8066,0.0,-1.865,-1.9169,-1.969,-1.969,-1.969,-1.969,-1.969,-1.969,-1.969,-1.969,-1.969,-1.975,-2.0378,-2.0662,-2.0857,-2.2054,-2.2884,-2.367,0.0,0.0,0.0,0.0,0.0,0.0,0.0,0.0,0.0,0.0,0.0,0.0,0.0,0.0,0.0,0.0,0.0,0.0,0.0,0.0,-2.2051,-2.2255,-2.3102,-2.4078,-2.5237,-2.4155,-2.3605,-2.3596,-2.4569,-2.4649,-2.3923,-2.4887,-2.5112,-2.4705,-2.4946,-2.4348,-2.3192,-2.299,-2.2678,-2.2165,-2.026,-1.959,-1.9523,-1.7326,-1.6697,0.0,0.0,0.0,0.0,0.0,0.0,0.0,-1.8788,-1.8697,-1.8788,-1.8788,-1.8736,-1.8669,-1.8745,-1.8553,0.0,0.0,0.0,0.0,0.0,0.0,0.0,0.0,0.0,0.0,0.0,0.0,0.0,0.0,0.0,0.0,0.0,0.0,0.0,0.0,0.0,0.0,0.0,0.0,0.0,0.0,0.0,0.0,0.0,0.0,0.0,0.0,0.0,-1.8185,-1.7947,-1.7626,-1.7907,0.0,-1.8855,-1.9169,-1.969,-1.969,-1.969,-1.969,-1.969,-1.969,-1.969,-1.969,-1.969,-1.969,-1.9854,-2.0243,-2.0752,-2.1036,-2.2093,-2.3452,0.0,0.0,0.0,0.0,0.0,0.0,0.0,0.0,0.0,0.0,0.0,0.0,0.0,0.0,0.0,0.0,0.0,0.0,0.0,0.0,-2.1645,-2.2579,-2.2911,-2.3545,-2.4586,-2.3678,-2.3295,-2.3531,-2.4369,-2.4419,-2.3728,-2.5278,-2.5389,-2.4375,-2.4478,-2.3807,-2.258,-2.2322,-2.1815,-2.1005,-1.9667,-1.8838,-1.8341,-1.7353,-1.6837,-1.6766,-1.7491,0.0,0.0,0.0,0.0,0.0,0.0,0.0,-1.8827,-1.8889,-1.8836,-1.8784,-1.8707,0.0,0.0,0.0,0.0,0.0,0.0,0.0,0.0,0.0,0.0,0.0,0.0,0.0,0.0,0.0,0.0,0.0,0.0,0.0,0.0,0.0,0.0,0.0,0.0,0.0,0.0,0.0,0.0,0.0,0.0,0.0,0.0,0.0,-1.9006,-1.8727,-1.8496,-1.8224,-1.8341,-1.8893,-1.8893,-1.9169,-1.969,-1.969,-1.969,-1.969,-1.969,-1.969,-1.969,-1.969,-1.969,-1.9711,-1.9909,-2.0193,-2.0579,-2.1116,-2.231,-2.3695,0.0,0.0,0.0,0.0,0.0,0.0,0.0,0.0,0.0,0.0,0.0,0.0,0.0,0.0,0.0,0.0,0.0,0.0,0.0,0.0,0.0,-2.3485,-2.3319,-2.3642,-2.4599,-2.3845,-2.3553,-2.3795,-2.4693,-2.4675,-2.3852,-2.5612,-2.5605,-2.4173,-2.3883,-2.3164,-2.2148,-2.1712,-2.094,-1.9997,-1.9096,-1.8317,-1.7707,-1.7608,-1.7236,-1.6942,-1.7968,-1.85,-1.8707,-1.8988,0.0,0.0,0.0,0.0,-1.8955,-1.9026,-1.895,-1.8798,-1.8721,0.0,0.0,0.0,0.0,0.0,0.0,0.0,0.0,0.0,0.0,0.0,0.0,0.0,0.0,0.0,0.0,0.0,0.0,0.0,0.0,0.0,0.0,0.0,0.0,0.0,0.0,0.0,0.0,0.0,0.0,0.0,-1.969,-1.969,-1.9603,-1.9406,-1.9043,-1.8968,-1.8968,-1.9043,-1.9043,-1.9281,-1.969,-1.969,-1.969,-1.969,-1.969,-1.969,-1.969,-1.969,-1.9747,-1.9854,-2.0193,-2.0348,-2.0561,-2.148,-2.2621,-2.3753,0.0,0.0,0.0,0.0,0.0,0.0,0.0,0.0,0.0,0.0,0.0,0.0,0.0,0.0,0.0,0.0,0.0,0.0,-1.9232,0.0,0.0,-2.4167,-2.3251,-2.3358,-2.4741,-2.3975,-2.3649,-2.3795,-2.5298,-2.5302,-2.3915,-2.4863,-2.4874,-2.4097,-2.371,-2.2422,-2.0508,-2.0428,-1.9782,-1.8656,-1.7359,-1.7684,-1.8803,-1.7446,-1.739,-1.8115,-1.8444,-1.8745,-1.8941,-1.9078,-1.8988,0.0,0.0,0.0,-1.8581,-1.8798,-1.8889,-1.8993,0.0,0.0,0.0,0.0,0.0,0.0,0.0,0.0,0.0,0.0,0.0,0.0,0.0,0.0,0.0,0.0,0.0,0.0,0.0,0.0,0.0,0.0,0.0,0.0,0.0,0.0,0.0,0.0,0.0,0.0,0.0,-1.969,-1.969,-1.969,-1.9244,-1.9207,-1.9603,-1.9132,-1.9132,-1.9603,-1.9603,-1.9639,-1.969,-1.969,-1.969,-1.969,-1.969,-1.969,-1.969,-1.969,-1.9909,-2.0212,-2.028,-2.055,-2.091,-2.107,-2.1859,-2.2862,0.0,0.0,0.0,0.0,0.0,0.0,0.0,0.0,0.0,0.0,0.0,0.0,0.0,0.0,0.0,-1.8925,-1.8556,-1.8563,-1.9073,-2.0338,-2.1566,-2.2684,-2.2747,-2.3239,-2.4212,-2.3851,-2.3756,-2.3979,-2.5384,-2.5234,-2.3646,-2.4748,-2.4787,-2.3855,-2.3531,-2.2604,-2.1241,-2.0812,-1.9883,-1.8617,-1.7911,-1.7749,-1.79,-1.7876,-1.802,-1.8344,-1.9023,-1.9332,-1.945,-1.9347,-1.931,-1.9236,-1.8874,0.0,0.0,0.0,-1.8553,0.0,-1.8965,0.0,0.0,0.0,0.0,0.0,0.0,0.0,0.0,0.0,0.0,0.0,0.0,0.0,0.0,0.0,0.0,0.0,0.0,0.0,0.0,0.0,0.0,0.0,0.0,0.0,0.0,0.0,0.0,0.0,-1.969,-1.969,-1.969,-1.969,-1.9479,-1.9442,-1.969,-1.9479,-1.9479,-1.969,-1.969,-1.969,-1.969,-1.969,-1.969,-1.969,-1.969,-1.969,-1.9711,-1.9929,-2.0158,-2.0348,-2.083,-2.1165,-2.1368,-2.1615,-2.2305,-2.3154,0.0,0.0,0.0,0.0,0.0,0.0,0.0,0.0,0.0,0.0,0.0,0.0,0.0,0.0,0.0,0.0,-1.8467,-1.8645,-1.899,-2.0118,-2.1054,-2.1687,-2.2463,-2.317,-2.3774,-2.3795,-2.3899,-2.4078,-2.5384,-2.5207,-2.3708,-2.4872,-2.4845,-2.3789,-2.3366,-2.2642,-2.1692,-2.1114,-2.0183,-1.9076,-1.8648,-1.8307,-1.8068,-1.8755,-1.8967,-1.8976,-1.9802,-2.007,-1.9995,-1.9818,-1.9732,-1.9624,-1.8945,-1.8769,0.0,0.0,0.0,0.0,0.0,0.0,0.0,0.0,0.0,0.0,0.0,0.0,0.0,0.0,0.0,0.0,0.0,0.0,0.0,0.0,0.0,0.0,0.0,0.0,0.0,0.0,0.0,0.0,0.0,0.0,0.0,0.0,0.0,0.0,-1.969,-1.969,-1.969,-1.969,-1.969,-1.969,-1.969,-1.969,-1.969,-1.969,-1.969,-1.969,-1.969,-1.969,-1.969,-1.969,-1.969,-1.9747,-1.9874,-2.0193,-2.0449,-2.0699,-2.1352,-2.1658,-2.1823,-2.218,-2.2649,-2.319,0.0,0.0,0.0,0.0,0.0,0.0,0.0,0.0,0.0,0.0,0.0,0.0,-1.9398,-1.942,-1.9109,-1.8307,-1.7842,-1.7976,-1.9017,-2.0055,-2.1182,-2.247,-2.2702,0.0,-2.3692,-2.3937,-2.4036,-2.4016,-2.5326,-2.5482,-2.4462,-2.5146,-2.4998,-2.4034,-2.3206,-2.2063,-2.0766,-2.0545,-2.0251,-1.9869,-1.8885,-1.9482,-2.0894,-2.0222,-2.0257,-2.0685,-2.0878,0.0,0.0,-2.0512,-2.0208,-1.9793,-1.9303,-1.8997,-1.8745,0.0,0.0,0.0,0.0,0.0,0.0,0.0,0.0,0.0,0.0,0.0,0.0,0.0,0.0,0.0,0.0,0.0,0.0,0.0,0.0,0.0,0.0,0.0,0.0,0.0,0.0,0.0,0.0,0.0,0.0,0.0,0.0,0.0,-1.969,-1.969,-1.969,-1.969,-1.969,-1.969,-1.969,-1.969,-1.969,-1.969,-1.969,-1.969,-1.969,-1.969,-1.969,-1.969,-1.969,-1.9909,-2.028,-2.028,-2.0797,-2.1521,-2.1582,-2.1869,-2.2282,-2.2282,-2.2327,-2.2361,0.0,0.0,0.0,0.0,0.0,0.0,0.0,0.0,0.0,0.0,0.0,0.0,0.0,-1.9574,-1.9049,-1.8161,-1.8602,-1.9119,-1.964,-2.1241,-2.2174,-2.2149,-2.3384,-2.385,-2.3387,-2.3927,-2.3991,-2.35,-2.4706,-2.4566,-2.318,-2.4293,-2.4006,-2.2615,-2.2603,-2.2461,-2.2125,-2.1449,0.0,0.0,0.0,-2.0097,-2.0727,-2.0351,0.0,0.0,0.0,0.0,0.0,-2.1038,-2.0699,-2.0258,-1.9464,-1.9207,-1.9147,-1.8606,-1.8567,0.0,0.0,0.0,0.0,0.0,0.0,0.0,0.0,0.0,0.0,0.0,0.0,0.0,0.0,0.0,0.0,0.0,0.0,0.0,0.0,0.0,0.0,0.0,0.0,0.0,0.0,0.0,0.0,0.0,0.0,0.0,-1.969,-1.969,-1.969,-1.969,-1.969,-1.969,-1.969,-1.969,-1.969,-1.969,-1.969,-1.969,-1.969,-1.969,-1.969,-1.9711,-1.9965,-2.0158,-2.0314,-2.0616,-2.1086,-2.1628,-2.1928,-2.2135,-2.231,-2.231,-2.231,-2.2378,0.0,0.0,0.0,0.0,0.0,0.0,0.0,0.0,0.0,-1.982,0.0,0.0,0.0,0.0,-1.9856,-1.9039,-1.9586,-2.01,-2.0302,-2.2118,-2.2976,-2.2346,-2.4061,-2.4637,-2.3788,-2.4252,-2.4182,-2.3563,-2.4384,-2.4291,-2.3313,-2.4137,-2.3938,-2.2841,-2.2796,-2.2723,-2.2517,0.0,0.0,-2.1685,0.0,0.0,-2.1133,0.0,0.0,0.0,0.0,0.0,0.0,0.0,0.0,0.0,-2.0288,-1.9893,-1.9551,-1.8908,-1.8736,0.0,-1.8556,0.0,0.0,0.0,0.0,0.0,0.0,0.0,0.0,0.0,0.0,0.0,0.0,0.0,0.0,0.0,0.0,0.0,0.0,0.0,0.0,0.0,0.0,0.0,0.0,0.0,0.0,0.0,0.0,0.0,-1.9909,-1.9782,-1.969,-1.969,-1.953,-1.953,-1.969,-1.969,-1.969,-1.969,-1.969,-1.969,-1.969,-1.969,-1.969,-1.9711,-1.9965,-2.0246,-2.0583,-2.1023,-2.1446,-2.1869,-2.218,-2.231,-2.231,-2.231,-2.231,-2.2378,0.0,0.0,0.0,0.0,0.0,0.0,0.0,0.0,-2.0182,-2.05,0.0,0.0,0.0,0.0,0.0,-2.1005,-2.0782,-2.0796,-2.1021,-2.2641,-2.3478,-2.3231,-2.4763,-2.5385,-2.4935,-2.4942,-2.4739,-2.4259,-2.4499,-2.4749,-2.503,-2.4845,-2.4799,-2.4824,-2.3845,-2.2778,-2.1741,0.0,-2.1969,-2.2248,0.0,-2.251,-2.2436,0.0,0.0,0.0,-2.2432,-2.2538,0.0,0.0,0.0,0.0,0.0,-2.0956,-1.9968,-1.9328,-1.8865,0.0,0.0,0.0,0.0,0.0,0.0,0.0,0.0,0.0,0.0,0.0,0.0,0.0,0.0,0.0,0.0,0.0,0.0,0.0,0.0,0.0,0.0,0.0,0.0,0.0,0.0,0.0,0.0,0.0,0.0,-2.0314,-2.0314,-1.9894,-1.969,-1.969,-1.9169,-1.9169,-1.969,-1.969,-1.969,-1.969,-1.969,-1.969,-1.969,-1.969,-1.969,-1.969,-1.9726,-2.0208,-2.1023,-2.143,-2.1869,-2.231,-2.231,-2.231,-2.231,-2.231,-2.231,-2.2349,0.0,0.0,0.0,0.0,0.0,-2.1215,-2.0615,-2.0681,-2.1067,0.0,0.0,0.0,-2.2241,-2.1595,-2.1574,-2.2768,-2.2628,-2.304,-2.4343,-2.5447,-2.5909,-2.5713,-2.7234,-2.7233,-2.5368,-2.5875,-2.5311,-2.3654,-2.4195,-2.407,-2.3378,-2.3785,-2.4,-2.4031,-2.3596,-2.3243,-2.2975,-2.2417,0.0,0.0,-2.3671,-2.3626,0.0,0.0,0.0,0.0,0.0,-2.328,0.0,0.0,-2.2733,-2.2182,0.0,0.0,-2.033,-1.9612,-1.9534,0.0,-1.9258,0.0,0.0,0.0,0.0,0.0,0.0,0.0,0.0,0.0,0.0,0.0,0.0,0.0,0.0,0.0,0.0,0.0,0.0,0.0,0.0,0.0,0.0,0.0,0.0,0.0,0.0,0.0,-2.055,-2.0314,-2.0314,-1.9543,-1.9132,-1.9132,-1.8968,-1.9169,-1.969,-1.969,-1.969,-1.969,-1.969,-1.969,-1.969,-1.969,-1.969,-1.9762,-2.0379,-2.0764,-2.1007,-2.1118,-2.1615,-2.231,-2.231,-2.231,-2.231,-2.231,-2.2426,-2.2599,0.0,0.0,0.0,0.0,0.0,-2.1615,-2.1249,-2.1654,-2.2222,0.0,0.0,0.0,-2.3501,-2.3001,-2.3137,-2.449,-2.4741,-2.5236,-2.6211,-2.7257,-2.7533,-2.6891,-2.8452,-2.8429,-2.6589,-2.6791,-2.6191,-2.4661,-2.4912,-2.464,-2.3803,-2.4589,-2.4896,-2.4787,-2.4709,0.0,0.0,0.0,0.0,0.0,-2.4194,0.0,0.0,-2.4381,-2.4202,0.0,0.0,0.0,-2.382,-2.3571,-2.3265,0.0,0.0,0.0,0.0,0.0,0.0,0.0,0.0,0.0,0.0,0.0,0.0,0.0,0.0,-2.1078,0.0,0.0,0.0,0.0,0.0,0.0,0.0,0.0,0.0,0.0,0.0,0.0,0.0,0.0,0.0,0.0,0.0,0.0,0.0,0.0,-2.0959,-2.0348,-1.9743,-1.8977,-1.8574,-1.8574,-1.8341,-1.8612,-1.9369,-1.9369,-1.9479,-1.969,-1.969,-1.969,-1.969,-1.969,-1.9782,-1.9965,-2.0499,-2.091,-2.1244,-2.1244,-2.1675,-2.231,-2.231,-2.231,-2.2293,-2.2426,-2.2563,-2.2746,0.0,0.0,-2.2649,-2.2178,-2.2324,-2.2549,-2.2574,-2.3095,-2.36,0.0,-2.3848,-2.4088,-2.4747,-2.4971,-2.5363,-2.6062,-2.6738,-2.7103,-2.7166,-2.8303,-2.8568,-2.7569,-2.8971,-2.929,-2.8269,-2.7866,-2.7325,-2.662,-2.6393,-2.6061,-2.5605,-2.6484,-2.6747,-2.6568,0.0,0.0,0.0,0.0,0.0,-2.4675,-2.4644,-2.4762,0.0,0.0,-2.3943,0.0,-2.3642,-2.4104,-2.4523,-2.3862,-2.3728,0.0,0.0,0.0,0.0,0.0,-2.1627,0.0,0.0,0.0,0.0,0.0,0.0,0.0,-2.092,-2.1046,0.0,0.0,0.0,0.0,0.0,0.0,0.0,0.0,0.0,0.0,0.0,0.0,0.0,0.0,0.0,0.0,0.0,0.0,-2.2209,-2.2209,-2.1415,-2.0333,-1.8954,-1.838,-1.8106,-1.8106,-1.7585,-1.7827,-1.8893,-1.8893,-1.9169,-1.969,-1.969,-1.969,-1.969,-1.969,-1.9909,-2.0314,-2.0348,-2.083,-2.1612,-2.1658,-2.1928,-2.231,-2.231,-2.2338,-2.236,-2.2625,-2.2746,-2.2898,0.0,-2.3807,-2.3316,-2.3291,-2.3275,-2.3536,-2.4356,-2.4579,-2.4995,-2.5892,-2.5575,-2.55,-2.6057,-2.5743,-2.5893,-2.6887,-2.7025,-2.7473,-2.8586,-2.8805,-2.9295,-3.0099,-3.0532,-3.0398,-2.9726,-2.96,-2.9001,-2.7855,-2.7952,-2.7831,-2.7482,-2.7947,-2.8112,-2.8062,-2.821,0.0,0.0,0.0,0.0,-2.6413,-2.7135,0.0,-2.5815,-2.6289,-2.5672,-2.4482,-2.4371,-2.3996,-2.3537,0.0,-2.3304,-2.3382,0.0,0.0,0.0,0.0,0.0,0.0,0.0,0.0,0.0,0.0,0.0,0.0,-2.2367,-2.266,0.0,0.0,0.0,0.0,0.0,0.0,0.0,0.0,0.0,0.0,0.0,0.0,0.0,0.0,0.0,0.0,0.0,0.0,-2.1718,-2.1718,-2.0943,-1.9989,-1.8968,-1.838,-1.8106,-1.8106,-1.7585,-1.7827,-1.8893,-1.8893,-1.9169,-1.969,-1.969,-1.969,-1.969,-1.969,-1.9909,-2.0314,-2.0698,-2.115,-2.1628,-2.2003,-2.2209,-2.231,-2.231,-2.247,-2.2703,-2.2686,-2.3045,-2.3522,-2.5288,-2.462,-2.4032,-2.4014,-2.4265,-2.4742,-2.541,-2.5864,-2.6364,-2.6915,-2.6701,-2.6621,-2.6976,-2.7053,-2.7472,-2.8545,-2.8811,-2.934,-3.0267,-3.0135,-3.0223,-3.0747,-3.0937,-3.0938,-3.0644,-3.0557,-3.0118,-2.9343,-2.9619,-2.9452,-2.8904,-2.9694,-2.9609,-2.8823,-2.9572,0.0,0.0,0.0,-3.0126,-2.9211,-2.8239,0.0,-2.6543,-2.6118,-2.5656,-2.5153,-2.4395,-2.3887,-2.3727,-2.4396,-2.4411,0.0,0.0,-2.3466,-2.3264,0.0,-2.3138,-2.3465,0.0,0.0,0.0,-2.3157,0.0,0.0,0.0,-2.3366,0.0,0.0,0.0,0.0,0.0,0.0,0.0,0.0,0.0,0.0,0.0,0.0,0.0,0.0,0.0,0.0,0.0,0.0,-2.143,-2.0991,-2.0863,-2.0233,-1.8983,-1.865,-1.8263,-1.7706,-1.7422,-1.7706,-1.8496,-1.8496,-1.8893,-1.969,-1.969,-1.9818,-2.0,-2.0,-2.0364,-2.0959,-2.1213,-2.1538,-2.1974,-2.2209,-2.2388,-2.25,-2.25,-2.259,-2.2781,-2.3087,-2.3414,-2.3714,-2.6311,-2.5557,-2.4914,-2.4975,-2.5435,-2.5982,-2.6599,-2.7247,-2.7722,-2.7782,-2.7716,-2.7743,-2.7953,-2.845,-2.9287,-3.067,-3.07,-3.1068,-3.2038,0.0,-3.08,-3.0815,-3.1206,-3.1376,-3.1245,-3.1407,-3.1306,-3.0924,-3.13,-3.1154,-3.0546,-3.1601,-3.1283,-2.9874,-3.0728,-3.0681,0.0,0.0,0.0,-3.1243,0.0,-2.811,-2.7633,-2.6153,-2.5741,-2.5779,-2.4436,-2.4017,-2.4313,-2.5592,0.0,-2.4909,-2.4413,-2.4377,0.0,0.0,0.0,0.0,0.0,0.0,0.0,0.0,0.0,-2.3673,0.0,0.0,0.0,0.0,0.0,0.0,0.0,0.0,0.0,0.0,0.0,0.0,0.0,0.0,0.0,0.0,0.0,0.0,0.0,0.0,-2.1405,-2.0398,-2.1019,-2.0834,-1.9391,-1.914,-1.8636,-1.776,-1.7544,-1.7706,-1.8263,-1.8263,-1.8727,-1.969,-1.9782,-2.0,-2.0314,-2.0382,-2.0862,-2.1582,-2.1582,-2.1869,-2.231,-2.231,-2.2463,-2.2695,-2.2695,-2.2772,-2.2972,-2.35,-2.3735,-2.3837,-2.6507,-2.6225,-2.6234,-2.6922,-2.6926,-2.7379,-2.8937,-2.9108,-2.9097,-2.9182,-2.8984,-2.9118,0.0,0.0,0.0,0.0,0.0,0.0,-3.3803,0.0,-3.0302,-3.1524,-3.2221,-3.2204,-3.1394,-3.2816,-3.3186,-3.2462,-3.2901,-3.3096,-3.3084,-3.3655,-3.3383,-3.244,-3.1496,0.0,0.0,0.0,-3.1251,0.0,-3.1048,-3.0788,0.0,-2.8805,-2.7793,-2.6675,-2.5341,-2.4854,-2.4919,0.0,-2.533,-2.5296,0.0,-2.499,0.0,0.0,0.0,0.0,0.0,0.0,0.0,0.0,-2.3982,0.0,0.0,0.0,0.0,0.0,0.0,0.0,0.0,0.0,0.0,0.0,0.0,0.0,0.0,0.0,0.0,0.0,0.0,0.0,0.0,0.0,0.0,-2.0413,-2.1347,-2.1644,-2.0828,-1.9974,-1.9462,-1.9353,-1.8454,-1.8263,-1.8817,-1.8817,-1.9132,-1.9711,-2.0054,-2.0246,-2.0314,-2.0731,-2.1181,-2.1582,-2.1582,-2.1869,-2.231,-2.231,-2.2463,-2.2695,-2.2695,-2.3069,-2.3606,-2.3671,-2.3896,-2.4151,-2.7068,-2.6978,0.0,-2.7452,-2.7874,-2.8504,-2.9499,-3.0265,-3.0707,-3.0836,-3.0884,0.0,0.0,0.0,0.0,0.0,0.0,-3.2354,0.0,0.0,-3.1803,-3.3328,0.0,0.0,-3.308,-3.377,-3.3781,-3.3117,-3.3634,-3.3917,-3.4012,-3.4353,-3.4102,-3.3399,-3.2779,0.0,-3.2198,0.0,0.0,0.0,0.0,0.0,0.0,-2.8576,-2.6736,-2.5825,-2.5698,-2.5502,-2.5425,0.0,-2.6251,0.0,0.0,0.0,0.0,0.0,0.0,0.0,0.0,0.0,0.0,0.0,0.0,0.0,0.0,0.0,-2.4686,0.0,0.0,0.0,0.0,0.0,0.0,0.0,0.0,0.0,0.0,0.0,0.0,0.0,0.0,0.0,0.0,0.0,0.0,0.0,0.0,-2.1727,-2.1039,-2.0366,-1.9869,-1.9621,-1.8939,-1.865,-1.8893,-1.9163,-1.9579,-2.0054,-2.0499,-2.0846,-2.107,-2.1275,-2.1598,-2.2003,-2.2003,-2.2106,-2.231,-2.2463,-2.273,-2.3021,-2.3189,-2.3437,-2.3714,-2.3917,-2.4074,-2.419,-2.7975,0.0,0.0,0.0,-2.8863,-2.9615,-3.0366,-3.1219,-3.1864,0.0,0.0,0.0,-3.4047,-3.4203,0.0,0.0,0.0,-3.4373,0.0,0.0,-3.3085,0.0,0.0,0.0,0.0,0.0,-3.4406,-3.3807,-3.4252,-3.4561,-3.4753,-3.509,-3.5015,-3.4551,0.0,-3.3412,-3.2932,0.0,0.0,-3.3347,-3.2888,-3.2348,-3.1466,-2.8185,-2.6384,-2.5697,-2.6117,-2.6104,-2.6015,-2.6691,-2.7088,0.0,-2.6421,0.0,0.0,0.0,0.0,0.0,-2.5707,0.0,0.0,0.0,0.0,0.0,0.0,0.0,0.0,0.0,0.0,0.0,0.0,0.0,0.0,0.0,0.0,0.0,0.0,0.0,0.0,0.0,0.0,0.0,0.0,0.0,0.0,0.0,-2.194,0.0,-2.1386,-2.091,-2.0452,-2.0008,-1.9528,-1.9214,-1.9132,-1.9564,-1.9939,-2.0314,-2.0878,-2.1306,-2.1612,-2.1718,-2.1974,-2.231,-2.2388,-2.2398,-2.2426,-2.2712,-2.3045,-2.3369,-2.3588,-2.3774,-2.3876,-2.4113,-2.419,-2.419,-2.9301,-2.8673,0.0,0.0,0.0,0.0,0.0,0.0,0.0,0.0,0.0,0.0,0.0,0.0,0.0,0.0,0.0,-3.6753,-3.8081,0.0,-3.3286,0.0,0.0,-3.4963,0.0,0.0,0.0,-3.484,-3.5054,-3.5298,-3.5581,-3.6311,-3.6589,-3.6437,-3.4877,-3.419,-3.42,-3.343,-3.234,-3.1128,-3.1502,-3.0202,-2.811,0.0,-2.7987,-2.7172,-2.679,0.0,0.0,-2.7274,-2.747,0.0,0.0,0.0,0.0,0.0,0.0,0.0,0.0,0.0,0.0,-2.5028,0.0,0.0,0.0,0.0,-2.491,0.0,0.0,0.0,0.0,0.0,-2.7282,-2.731,0.0,0.0,0.0,0.0,0.0,0.0,0.0,0.0,0.0,0.0,0.0,-2.1781,-2.2714,-2.3042,-2.2288,-2.1794,-2.1368,-2.0959,-2.0516,-2.0054,-1.969,-2.0089,-2.028,-2.0314,-2.1165,-2.1582,-2.1628,-2.2077,-2.2282,-2.2293,-2.2573,-2.2695,-2.2721,-2.3045,-2.3392,-2.3692,-2.3692,-2.3896,-2.419,-2.4208,-2.419,-2.419,0.0,0.0,0.0,0.0,0.0,0.0,0.0,-3.3652,0.0,0.0,0.0,0.0,0.0,0.0,-3.9437,0.0,0.0,-3.7444,-3.7516,-3.5901,0.0,0.0,0.0,-3.6386,0.0,0.0,0.0,0.0,0.0,-3.6329,-3.6323,-3.6798,-3.7229,-3.7485,0.0,-3.5127,0.0,0.0,0.0,0.0,0.0,-3.0577,-2.9132,0.0,0.0,-2.6873,-2.6758,-2.6691,0.0,-2.691,-2.7385,-2.7845,-2.7566,-2.7693,-2.7921,-2.7539,-2.725,0.0,0.0,0.0,-2.6922,-2.6637,0.0,0.0,0.0,0.0,0.0,0.0,0.0,0.0,0.0,0.0,-2.7047,-2.6085,-2.6429,0.0,0.0,0.0,0.0,0.0,0.0,0.0,0.0,0.0,0.0,-2.2378,-2.2716,-2.2747,0.0,-2.2068,-2.1757,-2.1399,-2.0667,-2.0382,-2.0565,-2.0698,-2.091,-2.1165,-2.1764,-2.2061,-2.2061,-2.2419,-2.2546,-2.2573,-2.2915,-2.3021,-2.3069,-2.3392,-2.3588,-2.3714,-2.3937,-2.4094,-2.419,-2.419,-2.419,-2.4247,-2.9632,0.0,0.0,0.0,0.0,0.0,0.0,0.0,0.0,0.0,-3.7672,0.0,-4.0565,0.0,-4.0996,0.0,-3.9928,-3.8755,-3.7979,-3.6989,0.0,-3.5485,-3.6674,0.0,0.0,0.0,0.0,0.0,0.0,-3.7154,-3.7173,-3.7654,-3.8041,-3.8282,0.0,-3.61,-3.4553,0.0,-3.2747,0.0,0.0,-2.9771,0.0,0.0,-2.7247,-2.7401,0.0,-2.6691,-2.6725,-2.6873,-2.7312,-2.7799,-2.7729,-2.8065,-2.8417,-2.8154,-2.8021,-2.7903,-2.7624,-2.7659,0.0,-2.7416,-2.7078,0.0,-2.669,0.0,0.0,0.0,0.0,0.0,0.0,0.0,0.0,-2.6023,-2.6355,-2.6233,0.0,-2.4849,0.0,0.0,0.0,0.0,0.0,0.0,-2.2972,-2.2923,-2.2923,-2.284,0.0,0.0,-2.2262,-2.1786,-2.1241,-2.0975,-2.0991,-2.115,-2.1337,-2.1628,-2.2077,-2.2349,-2.2436,-2.2625,-2.2772,-2.2898,-2.3212,-2.3392,-2.3392,-2.3735,-2.3876,-2.3896,-2.4132,-2.419,-2.419,-2.419,-2.4247,-2.4357,0.0,0.0,0.0,0.0,-3.3268,0.0,0.0,0.0,-3.6738,0.0,-3.8235,-3.9014,-4.0838,-4.1238,-4.1735,-4.2718,-4.1789,0.0,-3.9552,-3.8751,0.0,0.0,-3.6184,-3.6166,-3.3712,0.0,0.0,0.0,0.0,0.0,-3.8048,-3.8757,-3.9045,-3.891,-3.8762,0.0,-3.4405,-3.4093,-3.2311,-2.957,-2.8399,-2.7933,-2.7917,-2.7053,0.0,-2.8645,-2.7232,-2.6725,-2.6791,-2.721,-2.7348,-2.75,-2.8192,-2.8402,-2.8496,-2.8905,-2.8994,-2.8929,-2.854,-2.8236,-2.7931,-2.7519,0.0,0.0,0.0,0.0,-2.667,0.0,0.0,0.0,0.0,0.0,0.0,-2.705,-2.697,-2.657,-2.543,0.0,0.0,0.0,0.0,0.0,0.0,-2.406,-2.3459,-2.3328,-2.3346,-2.3282,0.0,0.0,-2.294,-2.2152,-2.2158,-2.1803,-2.1055,-2.143,-2.1628,-2.1658,-2.2089,-2.2436,-2.2695,-2.2746,-2.2923,-2.3236,-2.3566,-2.3714,-2.3753,-2.4074,-2.419,-2.419,-2.419,-2.419,-2.419,-2.419,-2.4321,-2.4526,-3.0516,-3.2098,-3.3566,0.0,-3.4428,-3.5121,0.0,0.0,0.0,0.0,-4.0706,-4.1683,-4.3059,-4.3268,-4.3521,-4.4061,-4.2478,0.0,0.0,0.0,0.0,-3.5512,-3.6592,-3.6352,-3.4452,-3.636,0.0,-3.6244,0.0,0.0,-3.8608,-3.899,-3.9156,-3.9166,0.0,0.0,-3.4628,-3.4902,-3.276,-2.9141,-2.8522,-2.8724,0.0,0.0,-2.7978,-2.899,-2.7616,-2.7147,-2.721,-2.7589,-2.789,-2.8166,-2.8324,-2.8608,-2.8863,-2.8952,-2.8994,-2.8994,-2.8863,-2.8797,-2.8803,-2.8954,-2.855,-2.8164,0.0,0.0,0.0,0.0,0.0,0.0,0.0,0.0,0.0,0.0,-2.6673,0.0,0.0,0.0,0.0,0.0,0.0,0.0,0.0,-2.403,-2.3702,-2.3681,-2.3702,-2.3595,0.0,0.0,0.0,-2.2591,-2.2846,-2.2671,-2.1991,-2.1718,-2.1794,-2.2135,-2.2429,-2.2634,-2.2721,-2.323,-2.35,-2.3588,-2.3917,-2.4074,-2.4074,-2.417,-2.419,-2.419,-2.419,-2.419,-2.419,-2.419,-2.4409,-2.4731,-3.1095,0.0,0.0,-3.612,0.0,0.0,-3.758,0.0,0.0,-4.0943,-4.2061,0.0,-4.3675,-4.4039,-4.4214,-4.4044,-4.2556,0.0,0.0,0.0,0.0,-3.6447,-3.6426,-3.5558,-3.3638,-3.5431,0.0,-3.5535,0.0,0.0,-3.8923,-3.9129,-3.9183,-3.9175,0.0,-3.8327,0.0,-3.4197,-3.2478,-3.0473,-2.9362,0.0,0.0,-2.832,-2.8227,-2.8364,-2.7929,-2.7707,-2.7619,-2.7992,-2.8219,-2.842,-2.8608,-2.8815,-2.8994,-2.8994,-2.8994,-2.8994,-2.8994,-2.8994,-2.9038,-2.9264,-2.9046,-2.8778,-2.8811,-2.8523,-2.8273,0.0,0.0,0.0,0.0,0.0,0.0,0.0,0.0,0.0,0.0,0.0,0.0,0.0,0.0,0.0,0.0,0.0,-2.4576,-2.5335,-2.5074,-2.4781,0.0,0.0,0.0,-2.31,-2.3833,-2.3801,-2.2784,-2.3167,-2.3409,-2.3528,-2.368,-2.3711,-2.3678,-2.4064,-2.41,-2.3937,-2.421,-2.4339,-2.4339,-2.4428,-2.441,-2.4339,-2.4339,-2.4339,-2.4339,-2.4426,-2.4607,-2.4818,0.0,0.0,0.0,0.0,0.0,0.0,0.0,-3.9881,0.0,-4.1615,0.0,-4.356,-4.3624,-4.4233,-4.4317,-4.3491,0.0,-4.1351,-4.0633,-3.8628,-3.7264,-3.6753,-3.589,-3.4423,-3.2241,-3.3786,0.0,0.0,0.0,0.0,-3.9129,-3.9183,-3.9183,-3.9129,0.0,0.0,0.0,-3.2908,-3.1771,0.0,-3.0277,-2.8945,-2.8053,-2.8805,-2.8405,-2.7512,-2.8166,-2.821,-2.8037,-2.8368,-2.8471,-2.854,-2.8905,-2.9021,-2.9062,-2.9017,-2.9021,-2.9044,-2.9017,-2.8994,-2.8994,-2.8994,-2.8994,-2.8929,-2.8718,-2.8651,-2.8651,-2.8651,-2.843,-2.8386,0.0,0.0,0.0,0.0,0.0,0.0,0.0,0.0,0.0,0.0,0.0,0.0,0.0,0.0,0.0,0.0,-2.6763,0.0,0.0,0.0,0.0,-2.3687,-2.486,0.0,-2.3697,0.0,-2.5371,-2.5229,-2.5181,-2.5059,-2.4901,-2.4946,-2.4681,-2.4209,-2.4393,-2.4478,-2.4512,-2.4685,-2.467,-2.4545,-2.4545,-2.4545,-2.4559,-2.476,-2.4832,-2.4842,0.0,0.0,0.0,0.0,0.0,-4.064,-4.1183,-4.2089,-4.2754,-4.2885,-4.3755,0.0,-4.4768,-4.4924,-4.4775,-4.4173,-4.2826,0.0,0.0,0.0,0.0,-3.5412,-3.5174,-3.4161,-3.2147,-3.3436,-3.4269,0.0,0.0,0.0,-3.9183,-3.9245,-3.9272,-3.9309,0.0,0.0,-3.551,-3.2864,0.0,-2.963,-2.9624,-2.9079,-2.8362,-2.892,-2.8724,-2.8219,-2.835,-2.835,-2.8368,-2.8749,-2.8887,-2.8905,-2.8994,-2.9156,-2.9289,-2.9067,-2.9156,-2.9289,-2.9044,-2.8994,-2.8994,-2.8994,-2.8994,-2.8994,-2.8929,-2.8929,-2.8929,-2.8929,-2.8881,-2.8839,-2.8834,0.0,0.0,0.0,0.0,0.0,0.0,0.0,0.0,0.0,0.0,0.0,0.0,0.0,0.0,0.0,0.0,0.0,0.0,0.0,0.0,0.0,0.0,0.0,0.0,0.0,-2.5162,-2.5999,-2.563,-2.5244,-2.4924,-2.5181,-2.4902,-2.419,-2.4247,-2.4358,-2.4512,-2.4545,-2.4623,-2.4746,-2.4746,-2.4746,-2.4775,-2.4898,-2.4962,-2.4974,0.0,0.0,0.0,0.0,0.0,0.0,0.0,-4.3849,0.0,-4.3641,-4.4176,-4.4619,-4.4721,-4.4722,-4.4422,-4.3722,-4.2326,-4.0778,-3.9135,-3.7671,-3.6321,-3.5045,-3.4739,0.0,-3.1771,-3.262,-3.3422,-3.4195,0.0,0.0,-3.9064,-3.9183,-3.9272,-3.9279,0.0,-3.7972,0.0,0.0,0.0,-3.0809,-3.0166,-2.9297,-2.8492,-2.9349,-2.915,-2.842,-2.8633,-2.8707,-2.8749,-2.8929,-2.8994,-2.9021,-2.9178,-2.9289,-2.9412,-2.9375,-2.9456,-2.9514,-2.9397,-2.9357,-2.9357,-2.9357,-2.9357,-2.9357,-2.9357,-2.9357,-2.9487,-2.9936,-3.0049,-3.0029,-2.9948,-2.9992,0.0,0.0,0.0,0.0,0.0,0.0,0.0,0.0,0.0,0.0,0.0,0.0,0.0,0.0,0.0,0.0,0.0,0.0,0.0,0.0,0.0,0.0,0.0,0.0,0.0,-2.7075,-2.7032,-2.6777,-2.6399,-2.6127,-2.5566,-2.4815,-2.4595,-2.4578,-2.467,-2.4723,-2.4877,-2.5056,-2.4943,-2.4904,-2.493,-2.5088,-2.5088,-2.5022,0.0,-4.0333,0.0,0.0,-4.2888,0.0,0.0,-4.4994,-4.5285,-4.4372,-4.4567,-4.4772,-4.4668,-4.4614,-4.4182,-4.3181,-4.1968,-4.0397,-3.835,-3.7068,-3.5929,-3.4995,-3.442,-3.3332,-3.1602,-3.1864,-3.2499,0.0,0.0,0.0,0.0,-3.9193,0.0,0.0,0.0,0.0,0.0,0.0,-3.163,-3.1751,-3.065,-2.9533,-2.8656,-2.9765,-2.9491,-2.8565,-2.8905,-2.8994,-2.9017,-2.9085,-2.9089,-2.9134,-2.933,-2.9454,-2.9533,-2.9661,-2.9731,-2.9746,-2.9713,-2.9696,-2.9696,-2.9696,-2.9696,-2.9696,-2.9696,-2.9696,-2.9902,-3.058,-3.0863,-3.1051,-3.1221,-3.1258,0.0,0.0,0.0,0.0,0.0,0.0,0.0,0.0,0.0,0.0,0.0,0.0,0.0,0.0,0.0,0.0,0.0,0.0,0.0,0.0,0.0,-2.7388,-2.6692,0.0,-2.8167,0.0,-2.8228,-2.8123,-2.7769,-2.7145,-2.641,-2.5643,-2.5379,-2.5205,-2.5139,-2.5475,-2.5488,-2.5293,-2.5332,-2.5229,-2.5088,-2.5234,-2.5203,-2.5088,0.0,0.0,0.0,0.0,0.0,0.0,0.0,-4.4994,-4.5549,-4.5456,-4.5475,-4.5494,-4.5494,-4.5472,-4.4836,-4.3239,-4.2699,-4.1092,-3.7889,-3.7032,-3.6085,-3.4779,-3.4148,-3.3302,-3.2146,-3.1704,-3.1782,0.0,0.0,0.0,0.0,0.0,0.0,0.0,0.0,0.0,0.0,-3.1755,-3.0619,-2.9379,-2.9971,-2.969,-2.9044,-2.9874,-2.969,-2.8952,-2.8994,-2.8994,-2.904,-2.9289,-2.9372,-2.9372,-2.9392,-2.9643,-2.9908,-2.9765,-2.9829,-2.9939,-2.9746,-2.9696,-2.9696,-2.9696,-2.9696,-2.9696,-2.9696,-2.9696,-2.9715,-2.9808,-3.0448,-3.1221,-3.1957,-3.2286,-3.2187,0.0,0.0,0.0,0.0,0.0,0.0,0.0,0.0,0.0,0.0,0.0,0.0,0.0,0.0,0.0,0.0,0.0,0.0,-2.6618,0.0,-2.7769,-2.8282,-2.7698,0.0,-2.8894,-2.8244,-2.7895,-2.7787,-2.7714,-2.7255,-2.6505,-2.6637,-2.65,-2.6238,-2.7217,-2.6706,-2.538,-2.6139,-2.5966,-2.5274,-2.5284,-2.5303,-2.5274,0.0,0.0,0.0,0.0,0.0,0.0,0.0,-4.5357,-4.5586,-4.5586,-4.5586,-4.5586,-4.5586,-4.4517,-4.3598,-4.3126,-4.1684,-3.9882,-3.7735,-3.7173,-3.6283,-3.4769,-3.3958,-3.3066,-3.1987,-3.1291,-3.1272,0.0,0.0,0.0,0.0,0.0,0.0,0.0,0.0,-3.3371,-3.2184,-3.0793,-2.9817,-2.9283,-2.9598,-2.9542,-2.9283,-2.9729,-2.9696,-2.9416,-2.9416,-2.9416,-2.9436,-2.9551,-2.9494,-2.9434,-2.9678,-2.9877,-3.0013,-3.0114,-3.0169,-3.0209,-3.0142,-3.0114,-3.0114,-3.0114,-3.0114,-3.0261,-3.0777,-3.0892,-3.1178,-3.2187,-3.3085,-3.3639,-3.3444,-3.3455,-3.3403,0.0,0.0,0.0,0.0,0.0,0.0,0.0,0.0,0.0,0.0,0.0,0.0,0.0,0.0,0.0,0.0,0.0,0.0,-2.7811,0.0,-2.8225,-2.8135,-2.8021,-2.8078,-2.834,-2.8496,-2.8537,-2.8503,-2.8026,-2.75,-2.697,-2.7207,-2.7309,-2.7294,-2.7715,-2.7198,-2.6168,-2.6514,-2.6149,-2.5428,-2.5428,-2.5746,-2.614,-4.4718,0.0,-4.4153,0.0,-4.5015,-4.4842,-4.5509,-4.5586,-4.5586,-4.5586,-4.5586,-4.5586,-4.5586,-4.4115,-4.31,-4.3088,-4.1113,-3.9241,-3.7804,-3.7186,-3.6251,-3.4888,-3.3825,0.0,-3.2154,-3.1306,-3.1086,-3.1549,-3.4057,0.0,0.0,0.0,0.0,0.0,-3.2807,-3.2012,-3.1498,-3.0096,-2.9474,-2.9474,-2.9474,-2.9474,-2.9494,-2.9662,-2.9696,-2.9696,-2.9696,-2.9696,-2.9713,-2.9763,-2.9696,-2.9644,-2.9908,-3.0042,-3.015,-3.0336,-3.0398,-3.0398,-3.0398,-3.0398,-3.0398,-3.0398,-3.0398,-3.0641,-3.1506,-3.1698,-3.2179,-3.3853,-3.468,-3.5007,-3.4641,-3.4551,-3.4441,-3.4237,0.0,0.0,0.0,0.0,0.0,0.0,0.0,-2.9675,-3.0263,0.0,0.0,0.0,0.0,0.0,0.0,0.0,0.0,0.0,0.0,0.0,0.0,-2.8398,-2.829,-2.8047,-2.8583,-2.8934,-2.9093,-2.8593,-2.8241,-2.8017,-2.8218,-2.8288,-2.8275,-2.8544,-2.8044,-2.7082,-2.7094,-2.661,-2.5873,-2.5873,-2.6268,-2.676,-4.6064,-4.5873,-4.5687,-4.5778,-4.5663,-4.5586,-4.5586,-4.5586,-4.5586,-4.5586,-4.5586,-4.5586,-4.5586,-4.4816,-4.397,-4.3162,-4.1508,-3.9777,-3.8104,-3.6938,-3.5944,0.0,0.0,-3.2989,-3.2989,-3.1924,-3.1232,-3.0903,0.0,0.0,-3.2686,0.0,-3.3552,-3.1939,-3.192,-3.1088,-2.9732,-2.9696,-2.9696,-2.9696,-2.9696,-2.9696,-2.9696,-2.9696,-2.9696,-2.9696,-2.9696,-2.9696,-2.9731,-2.9939,-2.9999,-2.9999,-2.9999,-3.0182,-3.0398,-3.0398,-3.0398,-3.0398,-3.0398,-3.0398,-3.0398,-3.0398,-3.0398,-3.0641,-3.1506,-3.1698,-3.2179,-3.3853,-3.4199,-3.4468,-3.5334,-3.5474,-3.5199,-3.4334,0.0,0.0,0.0,0.0,0.0,0.0,-3.0852,-3.0386,-3.0132,0.0,0.0,0.0,0.0,0.0,0.0,0.0,0.0,-2.9655,-2.9437,0.0,-2.9681,-2.8825,-2.8394,-2.8376,-2.8402,-2.8766,-2.9412,-2.9588,-2.9777,-2.9961,-2.9961,-2.9633,-2.9159,-3.0083,-2.9498,-2.799,-2.8054,-2.754,-2.6783,-2.6783,-2.6783,-2.6919,-4.6106,-4.6039,-4.5935,-4.5819,-4.5757,-4.5719,-4.5605,-4.5586,-4.5586,-4.5586,-4.5586,-4.5355,-4.4778,-4.377,-4.2889,0.0,-4.0436,-3.8963,0.0,-3.7102,-3.586,-3.4279,-3.3072,-3.2103,-3.1392,-3.0835,-3.0435,-3.0073,0.0,0.0,0.0,-3.346,-3.248,-3.0608,-3.047,-3.0326,-3.0174,-2.9832,-2.978,-2.9908,-2.9908,-2.9908,-2.9924,-3.0114,-3.0188,-3.0188,-3.0188,-3.0188,-3.0188,-3.0254,-3.0267,-3.0267,-3.0267,-3.0323,-3.0398,-3.0398,-3.0398,-3.0398,-3.0398,-3.0398,-3.0398,-3.0398,-3.0852,-3.1506,-3.2333,-3.3449,-3.4449,-3.4988,-3.5084,-3.518,-3.5449,-3.5493,-3.5218,-3.4334,-3.4199,0.0,0.0,0.0,0.0,0.0,0.0,-3.0402,0.0,-3.039,0.0,0.0,0.0,0.0,0.0,0.0,0.0,0.0,-3.1035,0.0,-3.0514,-3.0472,-3.0035,-2.924,-3.0054,-3.0654,-3.1038,-3.0879,-3.083,-3.0905,-3.1134,-3.0772,-3.0083,-3.0429,-2.9956,-2.9014,-2.9051,-2.856,-2.7822,-2.7822,-2.8195,-2.866,-4.6191,-4.6133,-4.6061,-4.592,-4.5868,-4.5815,-4.5738,-4.5699,-4.568,-4.568,-4.5336,-4.4778,-4.3932,-4.2926,0.0,-4.1838,-3.9783,-3.835,-3.8012,-3.6799,-3.5372,-3.3705,-3.2619,-3.1817,-3.1343,0.0,0.0,-3.094,-3.2425,-3.2767,-3.2072,-3.1836,-3.1183,-3.0215,-2.9863,-3.0102,-3.072,-3.0528,-3.0338,-3.0188,-3.0513,-3.0437,-3.0163,-3.0343,-3.0398,-3.0398,-3.0398,-3.0398,-3.0398,-3.0398,-3.0398,-3.0398,-3.0398,-3.0398,-3.0398,-3.0398,-3.0398,-3.0398,-3.0398,-3.0398,-3.0398,-3.0398,-3.1064,-3.2006,-3.3122,-3.4507,-3.5545,-3.5526,-3.5526,-3.5545,-3.5493,-3.5238,-3.4834,-3.4276,-3.393,-3.3526,-3.2987,0.0,0.0,0.0,0.0,0.0,0.0,-3.0887,0.0,0.0,0.0,0.0,0.0,0.0,0.0,-3.1424,-3.1826,0.0,-3.1556,-3.1448,-3.1009,-3.0301,-3.1241,-3.1843,-3.209,-3.1946,-3.1733,-3.1465,-3.1706,-3.1302,-3.0506,-3.0602,-3.0359,-2.991,-2.9646,-2.923,-2.8789,-2.8789,-2.9121,-2.957,-4.6308,-4.6191,0.0,0.0,-4.6007,0.0,-4.5905,-4.5866,-4.5811,-4.5796,-4.4932,-4.3989,-4.3181,-4.2316,-4.1758,-4.1643,0.0,0.0,0.0,-3.6096,-3.4504,-3.3375,-3.2343,-3.202,-3.243,-3.1806,-3.1974,-3.3018,-3.1633,-3.0471,-2.958,-2.956,-2.9913,-3.0572,-3.0039,-3.0305,-3.123,-3.1546,-3.1198,-3.0475,-3.1352,-3.1179,-3.0398,-3.0398,-3.0398,-3.0398,-3.0398,-3.0398,-3.0398,-3.0398,-3.0398,-3.0398,-3.0398,-3.0398,-3.0398,-3.0398,-3.0398,-3.0398,-3.0398,-3.0436,-3.0494,-3.0494,-3.1198,-3.2295,-3.393,-3.4988,-3.5584,-3.552,-3.5545,-3.5584,-3.5526,-3.4795,-3.418,-3.4122,-3.3372,-3.2795,-3.2737,0.0,0.0,0.0,0.0,0.0,0.0,-3.1695,-3.1383,0.0,0.0,0.0,0.0,0.0,-3.1699,-3.2109,-3.2044,-3.2251,-3.2713,-3.1992,-3.1624,-3.163,-3.2025,-3.2424,-3.2772,-3.2908,-3.2583,-3.1872,-3.1898,-3.1391,-3.0598,-3.0678,-3.0709,-3.0655,-2.9952,-2.9687,-2.9687,-2.9687,-2.9687,-2.9805,0.0,0.0,-4.6211,-4.6113,-4.6063,-4.602,-4.592,-4.5889,-4.5854,-4.5811,-4.5007,-4.4122,-4.3201,-4.2316,-4.1277,-3.9988,-3.8738,-3.7719,-3.7046,-3.5193,-3.3608,-3.2524,-3.2044,-3.1481,-3.0779,-3.1788,-3.2545,-3.3018,-3.2042,-3.1467,-3.1235,-3.1011,-3.0812,-3.0586,-3.0603,-3.0497,-3.0371,-3.1296,-3.1198,-3.0475,-3.1352,-3.1179,-3.0398,-3.0398,-3.0398,-3.0398,-3.0398,-3.0398,-3.0398,-3.0398,-3.0398,-3.0398,-3.0398,-3.0398,-3.0398,-3.0398,-3.0398,-3.0398,-3.0398,-3.0891,-3.1391,-3.1391,-3.2545,-3.3949,-3.5026,-3.5488,-3.5656,-3.5599,-3.5584,-3.5584,-3.5526,-3.4795,-3.3968,-3.3314,-3.2526,-3.1756,-3.1102,-3.0833,0.0,0.0,-3.1838,-3.1703,-3.1703,-3.1703,-3.1915,0.0,0.0,0.0,0.0,-3.2905,-3.2564,-3.2395,-3.3653,-3.4166,-3.382,-3.3889,-3.3923,-3.3904,-3.2956,-3.3203,-3.4492,-3.4079,-3.3795,-3.3583,-3.3083,-3.2375,-3.1533,-3.1059,-3.0852,-3.0836,-3.0662,-3.0586,-3.0586,-3.0586,-3.0586,-3.0625,-4.6308,-4.6308,-4.6289,-4.6191,-4.6191,-4.6169,-4.6093,-4.6021,-4.5838,-4.5395,-4.4568,-4.3645,-4.2742,-4.1835,-4.0777,-3.9454,-3.8527,-3.7623,-3.6757,-3.5254,-3.3913,-3.2808,-3.2493,-3.2015,-3.1311,-3.2155,-3.2488,-3.2273,-3.2199,-3.1792,-3.1053,-3.1317,-3.15,-3.1685,-3.142,-3.1486,-3.1787,-3.2388,-3.2026,-3.1083,-3.191,-3.1506,-3.0398,-3.0398,-3.0398,-3.0398,-3.0398,-3.0398,-3.0398,-3.0398,-3.0398,-3.0398,-3.0398,-3.0398,-3.0398,-3.0398,-3.0398,-3.0475,-3.0891,-3.1352,-3.1891,-3.2641,-3.3583,-3.4526,-3.5411,-3.5699,-3.5766,-3.5641,-3.562,-3.5622,-3.5526,-3.4468,-3.3449,-3.2987,-3.2259,-3.1422,-3.0525,-3.0775,0.0,-3.2153,-3.2256,-3.241,-3.2795,-3.2833,-3.2748,-3.2492,0.0,0.0,-3.3062,-3.3384,-3.3403,-3.3102,-3.4399,-3.4889,-3.4423,-3.4612,-3.4754,-3.487,-3.412,-3.4292,-3.527,-3.4946,-3.4584,-3.4218,-3.393,-3.3084,-3.1914,-3.1621,-3.1269,-3.0898,-3.0898,-3.0898,-3.0898,-3.0898,-3.0898,-3.0898,-4.6308,-4.6308,-4.6308,-4.6308,-4.6308,-4.6308,-4.6308,-4.6191,-4.5801,-4.4922,-4.4003,-4.3096,-4.2187,-4.1273,-4.0357,-3.9512,-3.8704,-3.7796,-3.6776,-3.558,-3.4483,-3.3488,-3.3168,-3.2892,-3.2672,-3.275,-3.2449,-3.1751,-3.2449,-3.2082,-3.076,-3.1439,-3.2176,-3.2901,-3.2273,-3.2555,-3.3498,-3.3699,-3.2966,-3.1719,-3.2551,-3.191,-3.0398,-3.0398,-3.0398,-3.0398,-3.0398,-3.0398,-3.0398,-3.0398,-3.0398,-3.0417,-3.0552,-3.0513,-3.0417,-3.0552,-3.0602,-3.0756,-3.1506,-3.1891,-3.2468,-3.4026,-3.4468,-3.4737,-3.5488,-3.5779,-3.5867,-3.5669,-3.5651,-3.5661,-3.5526,-3.4083,-3.2961,-3.3089,-3.2257,-3.1361,-3.0706,0.0,-3.2066,-3.2807,-3.3026,-3.3391,-3.4122,-3.4199,-3.3603,-3.2179,-3.2583,-3.2718,0.0,-3.3506,-3.415,-3.4047,-3.4773,-3.5053,-3.4813,-3.4774,-3.4889,-3.5155,-3.5155,-3.5289,-3.5493,-3.5493,-3.5141,-3.4481,-3.4488,-3.3607,-3.2182,-3.2196,-3.1758,-3.1094,-3.1094,-3.1172,-3.1269,-3.1133,-3.1094,-3.1074,-4.6308,-4.6308,-4.6308,-4.6308,-4.6308,-4.6308,-4.6308,-4.6289,-4.5918,-4.4922,-4.4075,-4.3192,-4.2199,-4.1315,-4.0458,-3.9638,-3.9435,-3.8608,-3.6834,-3.5021,-3.392,-3.3734,-3.3254,-3.2985,-3.2939,-3.3393,-3.355,-3.3421,-3.355,-3.3495,-3.3238,-3.3366,-3.3154,-3.2672,-3.2771,-3.2564,-3.2171,-3.3314,-3.2855,-3.1455,-3.248,-3.191,-3.0398,-3.0398,-3.0398,-3.0398,-3.0398,-3.0398,-3.0398,-3.0398,-3.0398,-3.0533,-3.1275,-3.0987,-3.0533,-3.1275,-3.1506,-3.1525,-3.166,-3.2776,-3.4141,-3.5122,-3.5526,-3.568,-3.5815,-3.592,-3.5929,-3.5736,-3.5687,-3.5661,-3.5526,-3.4083,-3.3159,-3.3939,-3.2138,-3.0844,-3.1487,0.0,-3.2011,-3.2814,-3.3545,-3.4045,-3.418,-3.4199,-3.4083,-3.3833,-3.3256,-3.3487,-3.4853,-3.4468,-3.4513,-3.5215,-3.5355,-3.5417,-3.5369,-3.5138,-3.5155,-3.5432,-3.5432,-3.546,-3.5493,-3.5493,-3.543,-3.529,-3.4749,-3.3934,-3.2965,-3.2426,-3.2129,-3.1992,-3.1992,-3.2402,-3.293,-3.2246,-3.1992,-3.1894,-4.6308,-4.6308,-4.6308,-4.6308,-4.6308,-4.6308,-4.6308,-4.6308,-4.5801,-4.4394,-4.3887,-4.3122,-4.1761,-4.0779,-4.0053,-3.9696,-3.8762,-3.7815,-3.6917,-3.599,-3.5189,-3.453,-3.4263,-3.3989,-3.3641,-3.3751,-3.3587,-3.3146,-3.3587,-3.3587,-3.3146,-3.3146,-3.3201,-3.322,-3.2907,-3.2895,-3.3161,-3.3959,-3.3652,-3.2664,-3.2831,-3.2179,-3.1064,-3.0571,-3.0398,-3.0398,-3.0398,-3.0398,-3.0398,-3.0398,-3.0398,-3.0552,-3.1429,-3.1102,-3.0571,-3.1448,-3.2064,-3.2557,-3.2968,-3.4064,-3.5156,-3.5551,-3.5782,-3.5892,-3.5892,-3.5944,-3.5932,-3.5741,-3.5697,-3.5661,-3.5526,-3.4468,-3.3744,-3.4191,-3.2891,0.0,0.0,-3.2439,-3.2744,-3.3519,-3.3949,-3.4372,-3.4853,-3.493,-3.4757,-3.4276,-3.4353,-3.4564,-3.4937,-3.5001,-3.5199,-3.5603,-3.5545,-3.5493,-3.5493,-3.5369,-3.5369,-3.5493,-3.5493,-3.5493,-3.5493,-3.5493,-3.5545,-3.5584,-3.5272,-3.4707,-3.3958,-3.3162,-3.2851,-3.2793,-3.2363,-3.2422,-3.2715,-3.2344,-3.2154,-3.1972,-4.6308,-4.6308,-4.6308,-4.6308,-4.6308,-4.6308,-4.6308,-4.6133,-4.5449,-4.3906,-4.3516,-4.2832,-4.1367,-4.0336,-3.975,-3.9743,-3.8297,-3.7288,-3.7055,-3.7007,-3.6445,-3.5264,-3.5141,-3.4813,-3.42,-3.4012,-3.3556,-3.2889,-3.3495,-3.3476,-3.2889,-3.2889,-3.322,-3.377,-3.3224,-3.342,-3.4242,-3.4634,-3.4395,-3.3748,-3.3138,-3.2429,-3.1602,-3.0737,-3.0398,-3.0398,-3.0398,-3.0398,-3.0398,-3.0398,-3.0398,-3.0583,-3.1448,-3.1148,-3.0617,-3.1494,-3.2403,-3.3333,-3.4097,-3.5007,-3.5746,-3.5747,-3.5834,-3.5929,-3.5929,-3.5958,-3.5932,-3.5741,-3.5861,-3.5955,-3.5815,-3.5084,-3.4578,-3.479,0.0,0.0,0.0,-3.3307,-3.3589,-3.4154,-3.441,-3.4814,-3.5488,-3.5603,-3.5355,-3.4689,-3.5288,-3.5423,-3.4809,-3.5365,-3.57,-3.57,-3.5605,-3.5449,-3.5218,-3.5218,-3.5218,-3.5199,-3.5199,-3.5315,-3.5493,-3.5526,-3.5584,-3.568,-3.5738,-3.534,-3.4622,-3.3963,-3.3691,-3.3633,-3.3027,-3.291,-3.3066,-3.2851,-3.2727,-3.2499,-4.6308,-4.6308,-4.6308,-4.6308,-4.6308,-4.6308,-4.6308,-4.5605,-4.4766,-4.3828,-4.3008,-4.2168,-4.1289,-4.041,-3.9881,-3.9899,-3.9029,-3.8113,-3.725,-3.7181,-3.6689,-3.5614,-3.5261,-3.4813,-3.42,-3.4176,-3.4006,-3.3715,-3.377,-3.377,-3.3715,-3.3715,-3.3733,-3.3815,-3.4012,-3.4139,-3.4246,-3.4813,-3.4573,-3.3748,-3.3138,-3.2429,-3.1602,-3.0737,-3.0398,-3.0398,-3.0398,-3.0398,-3.0398,-3.0398,-3.0448,-3.0641,-3.1513,-3.1239,-3.0753,-3.1623,-3.255,-3.3434,-3.4129,-3.5064,-3.5886,-3.5894,-3.5949,-3.5993,-3.5993,-3.5995,-3.5932,-3.5741,-3.6334,-3.6844,-3.6647,-3.5949,-3.5682,-3.6559,0.0,0.0,-3.4077,-3.421,-3.4231,-3.4289,-3.5064,-3.5603,-3.568,-3.5699,-3.5674,-3.5597,-3.5663,-3.5663,-3.5612,-3.5663,-3.5702,-3.5702,-3.5689,-3.5276,-3.4404,-3.4404,-3.4353,-3.4295,-3.4295,-3.4718,-3.5493,-3.5565,-3.5603,-3.5622,-3.5795,-3.5386,-3.4615,-3.4612,-3.4609,-3.4609,-3.4531,-3.5019,-3.5625,-3.4805,-3.4511,-3.4378,-4.6191,-4.6308,-4.6308,-4.6308,-4.6308,-4.6308,-4.6308,-4.5566,-4.4687,-4.3808,-4.2949,-4.1894,-4.0547,-3.9629,-3.8887,-3.832,-3.7491,-3.685,-3.6479,-3.6462,-3.619,-3.5636,-3.5277,-3.4999,-3.4756,-3.3918,-3.3645,-3.4043,-3.3379,-3.3311,-3.3788,-3.3293,-3.3397,-3.4025,-3.3631,-3.3867,-3.4551,-3.4925,-3.4914,-3.4511,-3.335,-3.2718,-3.2295,-3.0929,-3.0417,-3.0467,-3.0467,-3.0487,-3.0525,-3.0525,-3.0544,-3.0714,-3.1583,-3.1637,-3.1676,-3.3098,-3.379,-3.4287,-3.5091,-3.5621,-3.5958,-3.5958,-3.5977,-3.5996,-3.5996,-3.5996,-3.6112,-3.6548,-3.6822,-3.7132,-3.755,-3.7315,-3.7175,-3.7519,0.0,-3.5405,-3.5862,-3.5438,-3.5123,-3.5156,-3.5485,-3.5698,-3.5698,-3.5789,-3.5811,-3.5828,-3.5858,-3.5899,-3.5899,-3.5894,-3.5885,-3.5885,-3.5879,-3.5427,-3.4429,-3.4419,-3.4148,-3.3596,-3.4128,-3.4557,-3.4903,-3.5416,-3.5718,-3.5795,-3.5872,-3.5736,-3.5437,-3.4915,-3.5019,-3.5449,-3.4902,-3.4902,-3.5156,-3.4824,-3.4658,-3.4369,-4.6133,-4.6269,-4.6308,-4.6308,-4.6308,-4.6211,-4.5937,-4.5371,-4.459,-4.3437,-4.2558,-4.1484,-4.0059,-3.8887,-3.7949,-3.7344,-3.6504,-3.5996,-3.5996,-3.5728,-3.559,-3.5636,-3.5377,-3.5057,-3.4704,-3.3752,-3.3446,-3.3822,-3.3087,-3.3077,-3.3788,-3.3324,-3.35,-3.4181,-3.3824,-3.4088,-3.4832,-3.5105,-3.5223,-3.5085,-3.353,-3.291,-3.2744,-3.1071,-3.0467,-3.0537,-3.0528,-3.0559,-3.0598,-3.0598,-3.0604,-3.0733,-3.1338,-3.1734,-3.2283,-3.3735,-3.4378,-3.482,-3.5688,-3.5969,-3.5996,-3.5996,-3.5996,-3.5996,-3.5996,-3.6211,-3.6562,-3.709,-3.7556,-3.8001,-3.8493,-3.8507,-3.843,-3.8411,-3.768,-3.7065,-3.6916,-3.664,-3.6276,-3.5824,-3.6015,-3.609,-3.5817,-3.5889,-3.5931,-3.5931,-3.5978,-3.5996,-3.5996,-3.5991,-3.5992,-3.5992,-3.5992,-3.5544,-3.4564,-3.4547,-3.3954,-3.281,-3.3939,-3.4488,-3.4535,-3.5374,-3.5815,-3.5905,-3.5919,-3.5955,-3.5957,-3.5351,-3.5469,-3.5937,-3.5332,-3.5107,-3.508,-3.508,-3.4993,-3.4659,-4.6113,-4.6211,-4.6308,-4.6289,-4.6289,-4.5996,-4.5117,-4.498,-4.4355,-4.2637,-4.1699,-4.0879,-3.998,-3.8359,-3.7305,-3.7285,-3.6504,-3.5996,-3.5996,-3.5123,-3.4921,-3.5655,-3.5565,-3.4961,-3.3808,-3.3789,-3.3525,-3.2999,-3.2999,-3.3284,-3.3815,-3.4093,-3.42,-3.4223,-3.4832,-3.5105,-3.5122,-3.5383,-3.5493,-3.5353,-3.3603,-3.2936,-3.2827,-3.1129,-3.0544,-3.0598,-3.0598,-3.0606,-3.0606,-3.0606,-3.0651,-3.071,-3.071,-3.1391,-3.2361,-3.3171,-3.4029,-3.4909,-3.5778,-3.5988,-3.6016,-3.5996,-3.5996,-3.5996,-3.6016,-3.668,-3.7285,-3.7226,-3.8535,-3.9644,-3.9445,-3.9411,-3.9396,-3.9315,-3.8584,-3.7757,-3.7012,-3.7705,-3.7711,-3.608,-3.6727,-3.6953,-3.6074,-3.6016,-3.6016,-3.6016,-3.6016,-3.6016,-3.5996,-3.5996,-3.5996,-3.5996,-3.5996,-3.5586,-3.4707,-3.4629,-3.3699,-3.1941,-3.3665,-3.4497,-3.4522,-3.5465,-3.5905,-3.5907,-3.597,-3.5996,-3.5996,-3.5996,-3.5996,-3.5996,-3.5996,-3.5961,-3.5892,-3.5892,-3.5811,-3.5558,-4.5971,-4.6133,-4.5996,-4.5488,-4.5391,-4.5098,-4.4219,-4.3574,-4.2988,-4.2461,-4.1699,-4.0644,-3.9141,-3.8516,-3.7715,-3.6484,-3.6152,-3.5996,-3.5996,-3.5112,-3.4683,-3.4847,-3.4149,-3.3563,-3.3177,-3.2435,-3.2238,-3.2655,-3.2524,-3.2816,-3.3537,-3.4245,-3.4655,-3.4832,-3.5016,-3.5207,-3.5383,-3.5479,-3.5493,-3.5339,-3.3647,-3.3359,-3.3667,-3.1428,-3.0994,-3.1503,-3.0886,-3.0737,-3.081,-3.081,-3.0819,-3.0954,-3.1562,-3.2352,-3.3203,-3.4056,-3.492,-3.5666,-3.5931,-3.6452,-3.6777,-3.6152,-3.5996,-3.6152,-3.6777,-3.7109,-3.7637,-3.8848,-3.9414,-3.9861,-4.043,-4.046,-4.0373,-4.0369,-4.0138,-3.9488,-3.8136,-3.8194,-3.7771,-3.6163,-3.6222,-3.6289,-3.6035,-3.6543,-3.6914,-3.6914,-3.6914,-3.6641,-3.6035,-3.5996,-3.5996,-3.5996,-3.5996,-3.5586,-3.4707,-3.4687,-3.4081,-3.2979,-3.4092,-3.4638,-3.4673,-3.5552,-3.5966,-3.597,-3.5992,-3.5996,-3.5996,-3.5996,-3.5996,-3.5995,-3.5949,-3.5913,-3.5892,-3.5795,-3.5708,-3.5512,-4.5916,-4.5796,-4.5469,-4.5078,-4.4707,-4.4199,-4.332,-4.3027,-4.2676,-4.2012,-4.1504,-4.0664,-3.9277,-3.8496,-3.7656,-3.6601,-3.6191,-3.5996,-3.5996,-3.5156,-3.4443,-3.4002,-3.3073,-3.2526,-3.2429,-3.1788,-3.1632,-3.2022,-3.1908,-3.2391,-3.3409,-3.4055,-3.4603,-3.5105,-3.5207,-3.5354,-3.5493,-3.5493,-3.5493,-3.5339,-3.3673,-3.355,-3.4137,-3.1969,-3.1736,-3.2474,-3.1962,-3.1791,-3.1802,-3.1447,-3.132,-3.1382,-3.1928,-3.2904,-3.3984,-3.4512,-3.5293,-3.5996,-3.5996,-3.6641,-3.7168,-3.6641,-3.6777,-3.7168,-3.7695,-3.8086,-3.8633,-3.9687,-4.0117,-4.0547,-4.1367,-4.1164,-4.0975,-4.1272,-4.1035,-4.0353,-3.9089,-3.9208,-3.8829,-3.7222,-3.7324,-3.7402,-3.7051,-3.75,-3.7812,-3.7812,-3.7812,-3.7578,-3.7051,-3.6699,-3.6504,-3.6504,-3.6172,-3.5742,-3.5215,-3.5215,-3.4609,-3.3418,-3.4629,-3.5039,-3.4726,-3.5605,-3.5996,-3.5996,-3.5996,-3.5996,-3.5996,-3.5996,-3.5982,-3.5969,-3.5921,-3.5853,-3.5776,-3.5699,-3.5622,-3.5449,-4.5796,-4.5209,-4.4703,-4.4765,-4.4101,-4.3281,-4.2422,-4.2969,-4.2891,-4.1289,-4.1074,-4.0723,-3.9766,-3.8242,-3.7266,-3.7187,-3.6465,-3.5996,-3.5996,-3.5176,-3.4248,-3.3237,-3.2377,-3.18,-3.1583,-3.1583,-3.1456,-3.1234,-3.131,-3.2017,-3.3355,-3.3667,-3.4298,-3.5157,-3.5383,-3.5493,-3.5493,-3.5493,-3.5493,-3.5339,-3.3692,-3.3652,-3.4418,-3.2687,-3.2649,-3.351,-3.343,-3.335,-3.3171,-3.2384,-3.2068,-3.2011,-3.2031,-3.3215,-3.4606,-3.4609,-3.5254,-3.5996,-3.5996,-3.6699,-3.7422,-3.7422,-3.8125,-3.8809,-3.873,-3.9336,-3.9941,-4.0098,-4.0742,-4.1543,-4.2285,-4.1719,-4.1341,-4.2026,-4.1395,-4.0565,-3.9824,-4.04,-4.0333,-3.8786,-3.9297,-3.9473,-3.8672,-3.8672,-3.8711,-3.8711,-3.8711,-3.8672,-3.8594,-3.7851,-3.7422,-3.7422,-3.6562,-3.6113,-3.6113,-3.6035,-3.5195,-3.3652,-3.5234,-3.5586,-3.4844,-3.5644,-3.5996,-3.5996,-3.5996,-3.5995,-3.5992,-3.5992,-3.595,-3.5888,-3.5867,-3.5757,-3.5603,-3.5603,-3.5565,-3.5391,-4.4934,-4.4369,-4.3663,-4.3079,-4.2812,-4.2402,-4.1582,-4.1621,-4.1367,-4.0312,-4.0176,-3.959,-3.8027,-3.7539,-3.7031,-3.6348,-3.6113,-3.5996,-3.5996,-3.5176,-3.4248,-3.3237,-3.2377,-3.1511,-3.0698,-3.0679,-3.0655,-3.0599,-3.129,-3.2102,-3.302,-3.3772,-3.4587,-3.5417,-3.546,-3.5493,-3.5493,-3.5493,-3.5493,-3.5359,-3.378,-3.4077,-3.5211,-3.2986,-3.3099,-3.4332,-3.3643,-3.335,-3.3267,-3.3026,-3.2921,-3.2918,-3.2921,-3.3693,-3.4603,-3.4595,-3.5254,-3.5996,-3.5996,-3.7129,-3.832,-3.832,-3.9492,-4.0469,-3.9766,-3.9766,-4.0273,-4.1582,-4.2012,-4.2402,-4.3242,-4.2676,-4.2148,-4.2318,-4.1652,-4.0828,-3.9972,-4.0028,-3.9769,-3.8711,-3.8769,-3.8809,-3.8613,-3.9219,-3.9629,-3.9629,-3.9629,-3.9316,-3.8633,-3.8418,-3.832,-3.832,-3.7461,-3.7012,-3.7012,-3.6348,-3.5801,-3.5449,-3.582,-3.5898,-3.5723,-3.5918,-3.5996,-3.5996,-3.5996,-3.5966,-3.5908,-3.5908,-3.5854,-3.5735,-3.5688,-3.5641,-3.5603,-3.5545,-3.5526,-3.5468,-4.4147,-4.3534,-4.2858,-4.247,-4.207,-4.1699,-4.1269,-4.1191,-4.1035,-4.0586,-4.0156,-3.9551,-3.8633,-3.7793,-3.6953,-3.6074,-3.5996,-3.5996,-3.5996,-3.5537,-3.4834,-3.3861,-3.2948,-3.1955,-3.0841,-3.0554,-3.0398,-3.0398,-3.0871,-3.1698,-3.291,-3.3372,-3.4276,-3.5493,-3.5493,-3.5493,-3.5468,-3.5064,-3.4872,-3.4737,-3.3166,-3.3564,-3.4938,-3.333,-3.3809,-3.5252,-3.4789,-3.4318,-3.3838,-3.3705,-3.3692,-3.368,-3.3673,-3.4326,-3.5078,-3.5109,-3.5519,-3.6055,-3.6504,-3.7598,-3.8691,-3.9121,-4.0215,-4.1074,-4.0625,-4.0527,-4.0879,-4.2148,-4.2402,-4.2676,-4.3535,-4.2988,-4.2402,-4.2402,-4.1719,-4.1035,-4.0586,-4.0527,-4.0351,-3.9883,-3.9844,-3.9844,-3.9844,-4.0254,-4.0527,-4.0527,-4.0527,-4.0312,-3.9863,-3.9453,-3.9219,-3.9219,-3.8317,-3.763,-3.7261,-3.6742,-3.6469,-3.6462,-3.6117,-3.6151,-3.6526,-3.6494,-3.6489,-3.6472,-3.6472,-3.6222,-3.5803,-3.5804,-3.5746,-3.5639,-3.5612,-3.5584,-3.5565,-3.5526,-3.5238,-3.4872,-4.3302,-4.2672,-4.2075,-4.1966,-4.1523,-4.1094,-4.0801,-4.1016,-4.1094,-4.0781,-4.0137,-3.9629,-3.9473,-3.8027,-3.6797,-3.6055,-3.5996,-3.5995,-3.5982,-3.5931,-3.5481,-3.4509,-3.3583,-3.2538,-3.1325,-3.0708,-3.0367,-3.0323,-3.0521,-3.141,-3.2891,-3.3045,-3.3968,-3.5493,-3.5493,-3.5493,-3.5449,-3.4564,-3.4199,-3.4064,-3.2449,-3.2885,-3.4392,-3.3445,-3.4297,-3.5976,-3.5821,-3.5321,-3.4672,-3.4487,-3.441,-3.441,-3.441,-3.4968,-3.5618,-3.5678,-3.5786,-3.6094,-3.7051,-3.7949,-3.8809,-3.9687,-4.0566,-4.1191,-4.1191,-4.1191,-4.1426,-4.2226,-4.2402,-4.2676,-4.3535,-4.2988,-4.2402,-4.2402,-4.1719,-4.1191,-4.1191,-4.1191,-4.1191,-4.1191,-4.1191,-4.1191,-4.1191,-4.1191,-4.1191,-4.1191,-4.1185,-4.1172,-4.1172,-4.0461,-4.0054,-4.0054,-3.9102,-3.8281,-3.7613,-3.7356,-3.7225,-3.721,-3.6581,-3.6632,-3.7298,-3.7254,-3.7219,-3.7214,-3.7067,-3.6573,-3.5888,-3.5739,-3.5641,-3.5584,-3.5584,-3.5468,-3.5262,-3.5235,-3.4754,-3.4139,-4.229,-4.179,-4.1084,-4.0215,-4.0684,-4.0684,-3.918,-4.0234,-4.0664,-3.9141,-3.8848,-3.8496,-3.7734,-3.6777,-3.6133,-3.6016,-3.5996,-3.5981,-3.5913,-3.5907,-3.5438,-3.4371,-3.3544,-3.2538,-3.1325,-3.0708,-3.0299,-3.0042,-3.1047,-3.2006,-3.291,-3.366,-3.4545,-3.5493,-3.5493,-3.5493,-3.5449,-3.4564,-3.4199,-3.4064,-3.2455,-3.2877,-3.4337,-3.2765,-3.3769,-3.5898,-3.5154,-3.5166,-3.5526,-3.5372,-3.5334,-3.5334,-3.5334,-3.5449,-3.5603,-3.5676,-3.5788,-3.6094,-3.7051,-3.7949,-3.8809,-3.9687,-4.0566,-4.1191,-4.1191,-4.1191,-4.1426,-4.2226,-4.2402,-4.2676,-4.3535,-4.2988,-4.2402,-4.2402,-4.1719,-4.1191,-4.1191,-4.1191,-4.1191,-4.1191,-4.1191,-4.1191,-4.1191,-4.1191,-4.1191,-4.1191,-4.1096,-4.1029,-4.1029,-4.082,-4.0682,-4.0682,-3.9863,-3.9389,-3.9281,-3.8507,-3.813,-3.8117,-3.7906,-3.7916,-3.8142,-3.8137,-3.8118,-3.8075,-3.7321,-3.691,-3.6677,-3.5925,-3.5584,-3.5526,-3.5526,-3.5045,-3.4359,-3.4129,-3.3971,-3.3856,-4.1377,-4.1286,-4.0877,-3.988,-4.0137,-4.0059,-3.8789,-3.9668,-4.001,-3.8753,-3.8529,-3.8179,-3.7335,-3.6476,-3.5937,-3.5937,-3.5934,-3.5863,-3.5679,-3.5723,-3.5451,-3.484,-3.3527,-3.2497,-3.1813,-3.0729,-3.0061,-2.9829,-3.0598,-3.1641,-3.291,-3.3295,-3.4199,-3.5493,-3.5493,-3.5238,-3.4718,-3.3833,-3.3199,-3.2699,-3.1494,-3.2095,-3.3581,-3.2394,-3.3602,-3.5878,-3.5432,-3.5437,-3.568,-3.5565,-3.5493,-3.5493,-3.5493,-3.5526,-3.5565,-3.5622,-3.5679,-3.6059,-3.7517,-3.8203,-3.8828,-4.0273,-4.0918,-4.1191,-4.1191,-4.1191,-4.1562,-4.2851,-4.2734,-4.2812,-4.418,-4.3711,-4.3125,-4.3125,-4.2832,-4.2422,-4.1933,-4.1875,-4.1699,-4.125,-4.1191,-4.1191,-4.1191,-4.1571,-4.1607,-4.1118,-4.1412,-4.1403,-4.0904,-4.0835,-4.0796,-4.0796,-4.0416,-3.9986,-3.9488,-3.9065,-3.8854,-3.8854,-3.8796,-3.8834,-3.8896,-3.8877,-3.8593,-3.8112,-3.7719,-3.7007,-3.6089,-3.5685,-3.5545,-3.5493,-3.5493,-3.4968,-3.4166,-3.3903,-3.3295,-3.2723]}]]